     2              OBSERVATION DATA    GPS                 RINEX VERSION / TYPE
ASHTORIN 06 - MAR - 99 13:56                                PGM / RUN BY / DATE
                                                            COMMENT
Original Marker Name: SIO2                                  COMMENT
Campaign Name: rose canyon fault                            COMMENT
4-Character Station Name: SIO2                              COMMENT
6-Character Antenna Code: DMRCHT                            COMMENT
Vertical Measurement Point: BPA                             COMMENT
Vertical Offset to Rinex Ref. Point: 0.0000                 COMMENT
Radial Measurement Point: RRP                               COMMENT
Radial Offset to Rinex Ref. Point: 0.0000                   COMMENT
Antenna Height from Field Measurement: 0.0000 m             COMMENT
Additional Antenna Identification Info.:                    COMMENT
Turborogue and Ashtech Choke Ring                           COMMENT
Original XYZ: 0.0000 0.0000 0.0000                          COMMENT
New XYZ position is based on association with SCEC monument COMMENT
E1C8P4W3+0401. Position of that monument is believed to be  COMMENT
valid to within 1 m horizontally; vertical accuracy         COMMENT
should be no worse than 3-times this value.                 COMMENT
                                                            COMMENT
Revised Rinex header created by UCSD GPS archive for        COMMENT
GSAC on 03-Sep-1999 (1999:246) 21:11:42 GMT                 COMMENT
For assistance contact dagnew@ucsd.edu or hjohnson@ucsd.edu COMMENT
                                                            COMMENT
SIO2 SCRIPPS LIBRARY WALL                                   MARKER NAME
                                                            MARKER NUMBER
sjb SCRIPPS INSTITUTION OF OCEANOGRAPHY                     OBSERVER / AGENCY
755 ASHTECH Z12-XII3 1F501D0                                REC # / TYPE / VERS
632 DORNE-MARGOL. TYPE T                                    ANT # / TYPE
 -2455539.0000 -4767224.0000  3441629.0000                  APPROX POSITION XYZ
        0.0000        0.0000        0.0000                  ANTENNA: DELTA H/E/N
     1     1     0                                          WAVELENGTH FACT L1/2
     7    L1    L2    C1    P1    P2    D1    D2            # / TYPES OF OBSERV
    30                                                      INTERVAL
  1999     3    19     0     0   30.000000                  TIME OF FIRST OBS
  1999     3    19    19    33   30.000000                  TIME OF LAST OBS
                                                            END OF HEADER
 99  3 19  0  0 30.0000000  0  8 25 24 30  5  6 17  8 10             0.000000000
  -1204954.265 8   -835630.85545  25120530.307    25120530.2684   25120544.0654
        -0.000          -0.000
   2290669.340 9   1768708.65948  21836856.971    21836856.9784   21836866.8634
        -0.000          -0.000
  -1716800.173 9  -1198062.29649  20549279.489    20549279.8404   20549287.6004
        -0.000          -0.000
   1538116.112 9   1132403.25549  20802205.691    20802205.3534   20802214.5484
        -0.000          -0.000
  -2988181.399 9  -2137330.75148  22096364.701    22096364.5664   22096374.3964
        -0.000          -0.000
  -3985041.470 9  -3079980.35746  24246694.685    24246694.4134   24246711.2604
        -0.000          -0.000
   3130114.478 9   2430692.42446  23909722.735    23909722.4834   23909739.0574
        -0.000          -0.000
   -846790.364 9   -655613.82648  21031488.274    21031487.5244   21031496.8124
        -0.000          -0.000
 99  3 19  0  1  0.0000000  0  8 25 24 30  5  6 17  8 10            -0.000000032
  -1214558.516 8   -843114.69145  25118702.559    25118702.6144   25118716.6574
        -0.000          -0.000
   2359113.518 9   1822041.74848  21849881.401    21849881.4224   21849891.2184
        -0.000          -0.000
  -1736197.043 9  -1213176.72349  20545588.459    20545588.7654   20545596.4504
        -0.000          -0.000
   1595669.731 9   1177250.18548  20813157.729    20813157.4114   20813166.7124
        -0.000          -0.000
  -3049310.754 9  -2184963.93948  22084731.793    22084731.7594   22084741.7214
        -0.000          -0.000
  -4068606.104 9  -3145095.36846  24230792.792    24230792.4814   24230809.2484
        -0.000          -0.000
   3217567.357 8   2498837.28946  23926364.609    23926364.3134   23926381.1854
        -0.000          -0.000
   -844061.071 9   -653487.07648  21032007.460    21032006.7454   21032016.0954
        -0.000          -0.000
 99  3 19  0  1 30.0000000  0  8 25 24 30  5  6 17  8 10            -0.000000041
  -1223658.423 8   -850205.54945  25116970.826    25116970.9424   25116984.4684
        -0.000          -0.000
   2427713.169 9   1875495.99248  21862935.373    21862935.4054   21862945.1624
        -0.000          -0.000
  -1755015.842 9  -1227840.68549  20542007.389    20542007.6544   20542015.3634
        -0.000          -0.000
   1653729.350 9   1222491.41248  20824206.159    20824205.8424   20824215.0294
        -0.000          -0.000
  -3110380.196 9  -2232550.43548  22073110.429    22073110.4344   22073120.3814
        -0.000          -0.000
  -4151981.903 9  -3210063.21246  24214927.265    24214926.6654   24214943.3844
        -0.000          -0.000
   3305044.919 8   2567001.41445  23943010.837    23943010.6394   23943028.0864
        -0.000          -0.000
   -840701.519 9   -650869.20248  21032646.728    21032646.0524   21032655.2614
        -0.000          -0.000
 99  3 19  0  2  0.0000000  0  8 25 24 30  5  6 17  8 10            -0.000000034
  -1232268.546 8   -856914.74345  25115332.591    25115332.6874   25115345.9264
        -0.000          -0.000
   2496455.462 9   1929061.37948  21876016.424    21876016.5194   21876026.3814
        -0.000          -0.000
  -1773260.979 9  -1242057.65249  20538535.262    20538535.6084   20538543.4154
        -0.000          -0.000
   1712284.126 9   1268118.47548  20835348.869    20835348.5384   20835357.6084
        -0.000          -0.000
  -3171395.922 9  -2280095.07947  22061499.331    22061499.3324   22061509.3624
        -0.000          -0.000
  -4235164.975 9  -3274880.90046  24199098.138    24199097.4544   24199113.8574
        -0.000          -0.000
   3392553.244 9   2635189.44645  23959662.865    23959662.8504   23959680.7914
        -0.000          -0.000
   -836707.084 9   -647756.60548  21033406.844    21033406.1564   21033415.3564
        -0.000          -0.000
 99  3 19  0  2 30.0000000  0  8 25 24 30  5  6 17  8 10            -0.000000021
  -1240444.471 8   -863285.64345  25113777.091    25113776.9464   25113789.8604
        -0.000          -0.000
   2565306.978 9   1982711.86448  21889118.383    21889118.5084   21889128.3904
        -0.000          -0.000
  -1790961.907 9  -1255850.55349  20535166.773    20535167.1204   20535174.9904
        -0.000          -0.000
   1771301.158 9   1314105.74149  20846579.717    20846579.3434   20846588.0994
        -0.000          -0.000
  -3232393.557 9  -2327625.62548  22049891.658    22049891.7974   22049901.7344
        -0.000          -0.000
  -4318167.071 8  -3339557.57146  24183302.764    24183302.1494   24183318.6574
        -0.000          -0.000
   3480066.751 9   2703381.54146  23976316.302    23976316.3714   23976334.4264
        -0.000          -0.000
   -832103.599 9   -644169.43148  21034282.866    21034282.1804   21034291.3574
        -0.000          -0.000
 99  3 19  0  3  0.0000000  0  8 25 24 30  5  6 17  8 10            -0.000000008
  -1248248.716 8   -869366.88545  25112291.299    25112291.1254   25112304.9034
        -0.000          -0.000
   2634228.894 9   2036417.21648  21902234.042    21902234.0984   21902243.8364
        -0.000          -0.000
  -1808149.150 9  -1269243.18149  20531896.092    20531896.5044   20531904.3554
        -0.000          -0.000
   1830744.441 9   1360425.14049  20857891.693    20857891.2624   20857899.7314
        -0.000          -0.000
  -3293395.004 9  -2375159.13148  22038283.753    22038283.8134   22038293.4424
        -0.000          -0.000
  -4401004.570 9  -3404105.98146  24167538.479    24167538.0634   24167554.8604
        -0.000          -0.000
   3567573.976 8   2771568.72946  23992968.329    23992968.5334   23992987.0334
        -0.000          -0.000
   -826907.816 9   -640120.72348  21035271.455    21035270.7364   21035280.1224
        -0.000          -0.000
 99  3 19  0  3 30.0000000  0  8 25 24 30  5  6 17  8 10             0.000000009
  -1255671.884 8   -875151.17345  25110878.161    25110878.1304   25110893.0164
        -0.000          -0.000
   2703222.441 9   2090178.39048  21915363.420    21915363.3394   21915372.9814
        -0.000          -0.000
  -1824808.043 9  -1282224.11049  20528726.174    20528726.5184   20528734.2214
        -0.000          -0.000
   1890618.505 9   1407080.21249  20869285.533    20869285.0944   20869293.4414
        -0.000          -0.000
  -3354363.371 9  -2422666.85848  22026682.200    22026682.0754   22026691.5794
        -0.000          -0.000
  -4483672.236 9  -3468522.05946  24151806.797    24151806.5834   24151823.4304
        -0.000          -0.000
   3655085.266 9   2839759.09946  24009621.132    24009621.4654   24009640.1674
        -0.000          -0.000
   -821106.858 9   -635600.45348  21036375.218    21036374.5114   21036383.9884
        -0.000          -0.000
 99  3 19  0  4  0.0000000  0  8 25 24 30  5  6 17  8 10             0.000000023
  -1262696.316 8   -880624.81145  25109541.809    25109541.6374   25109557.2174
        -0.000          -0.000
   2772299.018 9   2144004.26948  21928508.409    21928508.3094   21928517.8714
        -0.000          -0.000
  -1840927.332 9  -1294784.56649  20525658.799    20525659.1724   20525666.7584
        -0.000          -0.000
   1950922.479 9   1454070.29349  20880761.070    20880760.6304   20880769.0144
        -0.000          -0.000
  -3415275.005 9  -2470130.38148  22015090.954    22015090.8404   22015100.4634
        -0.000          -0.000
  -4566180.128 9  -3532813.61646  24136105.972    24136105.5824   24136122.3484
        -0.000          -0.000
   3742586.778 9   2907941.88546  24026272.507    24026272.6374   24026291.2784
        -0.000          -0.000
   -814713.902 9   -630618.88548  21037591.718    21037591.0094   21037600.4594
        -0.000          -0.000
 99  3 19  0  4 30.0000000  0  8 25 24 30  5  6 17  8 10             0.000000019
  -1269308.418 8   -885777.13345  25108284.230    25108283.8064   25108299.8944
        -0.000          -0.000
   2841460.539 9   2197896.34148  21941669.515    21941669.4084   21941678.9184
        -0.000          -0.000
  -1856492.422 9  -1306913.18149  20522696.892    20522697.2024   20522704.7514
        -0.000          -0.000
   2011659.128 9   1501397.52049  20892318.860    20892318.3994   20892326.8934
        -0.000          -0.000
  -3476123.599 9  -2517544.78848  22003511.601    22003511.5464   22003521.3794
        -0.000          -0.000
  -4648532.390 9  -3596983.88046  24120435.128    24120434.4414   24120451.0364
        -0.000          -0.000
   3830064.229 8   2976105.93046  24042919.045    24042919.2334   24042938.0204
        -0.000          -0.000
   -807742.618 9   -625186.68148  21038918.481    21038917.7704   21038926.9764
        -0.000          -0.000
 99  3 19  0  5  0.0000000  0  8 25 24 30  5  6 17  8 10            -0.000000004
  -1275462.945 8   -890572.90845  25107113.601    25107113.5564   25107128.9184
        -0.000          -0.000
   2910725.274 9   2251868.84048  21954850.254    21954850.0734   21954859.6544
        -0.000          -0.000
  -1871480.275 9  -1318591.99649  20519844.741    20519845.0474   20519852.5564
        -0.000          -0.000
   2072854.296 9   1549082.01849  20903963.899    20903963.4174   20903972.2344
        -0.000          -0.000
  -3536873.097 9  -2564881.97048  21991951.258    21991951.2694   21991961.1004
        -0.000          -0.000
  -4730722.100 9  -3661027.49046  24104794.725    24104794.1394   24104810.7284
        -0.000          -0.000
   3917523.424 9   3044255.70445  24059562.146    24059562.3614   24059581.2334
        -0.000          -0.000
   -800175.456 9   -619290.16048  21040358.568    21040357.8234   21040366.9004
        -0.000          -0.000
 99  3 19  0  5 30.0000000  0  8 25 24 30  5  6 17  8 10            -0.000000038
  -1281112.656 8   -894975.33545  25106038.640    25106038.0414   25106053.3814
        -0.000          -0.000
   2980132.155 9   2305952.09548  21968057.884    21968057.7414   21968067.4494
        -0.000          -0.000
  -1885836.540 9  -1329778.67849  20517112.855    20517113.1884   20517120.5964
        -0.000          -0.000
   2134542.154 9   1597150.43248  20915702.610    20915702.1214   20915711.2314
        -0.000          -0.000
  -3597491.735 9  -2612117.16548  21980416.141    21980416.0444   21980425.6444
        -0.000          -0.000
  -4812723.577 9  -3724924.40546  24089190.330    24089189.8204   24089206.0374
        -0.000          -0.000
   4004983.449 9   3112406.13045  24076206.023    24076205.9184   24076224.3024
        -0.000          -0.000
   -791996.294 9   -612916.75448  21041914.956    21041914.2464   21041923.3114
        -0.000          -0.000
 99  3 19  0  6  0.0000000  0  8 25 24 30  5  6 17  8 10            -0.000000075
  -1286229.066 8   -898962.14644  25105064.697    25105064.4474   25105079.6434
        -0.000          -0.000
   3049707.635 9   2360166.71247  21981297.491    21981297.4154   21981307.2984
        -0.000          -0.000
  -1899509.305 9  -1340432.76149  20514511.056    20514511.4094   20514518.7044
        -0.000          -0.000
   2196744.112 9   1645619.45448  20927539.057    20927538.6274   20927547.9144
        -0.000          -0.000
  -3657973.498 9  -2659245.72748  21968906.873    21968906.7034   21968916.2314
        -0.000          -0.000
  -4894495.321 9  -3788642.31446  24073629.625    24073628.9254   24073645.0024
        -0.000          -0.000
   4092469.204 9   3180576.60245  24092854.560    24092854.2034   24092872.4614
        -0.000          -0.000
   -783179.542 9   -606046.51448  21043592.746    21043592.0444   21043601.0894
        -0.000          -0.000
 99  3 19  0  6 30.0000000  0  8 25 24 30  5  6 17  8 10            -0.000000104
  -1290825.657 8   -902543.90944  25104189.366    25104189.0514   25104205.4604
        -0.000          -0.000
   3119438.388 9   2414502.32547  21994566.752    21994566.6494   21994576.7634
        -0.000          -0.000
  -1912509.829 9  -1350563.01749  20512037.290    20512037.6024   20512044.8234
        -0.000          -0.000
   2259459.217 9   1694488.33348  20939473.287    20939472.8654   20939482.1224
        -0.000          -0.000
  -3718331.260 9  -2706277.66448  21957421.031    21957420.9244   21957430.4214
        -0.000          -0.000
  -4976034.993 9  -3852179.40446  24058112.596    24058112.0074   24058128.2954
        -0.000          -0.000
   4179993.388 9   3248776.99045  24109510.300    24109509.9924   24109528.2564
        -0.000          -0.000
   -773711.180 9   -598668.52748  21045394.537    21045393.8574   21045402.8064
        -0.000          -0.000
 99  3 19  0  7  0.0000000  0  8 25 24 30  5  6 17  8 10            -0.000000121
  -1294941.002 8   -905750.71644  25103406.481    25103405.9644   25103422.9514
        -0.000          -0.000
   3189301.161 9   2468940.81948  22007861.191    22007861.1354   22007871.3584
        -0.000          -0.000
  -1924870.852 9  -1360194.96349  20509685.179    20509685.4404   20509692.6894
        -0.000          -0.000
   2322662.050 9   1743737.25448  20951500.464    20951500.0684   20951509.1244
        -0.000          -0.000
  -3778581.095 9  -2753225.51048  21945955.676    21945955.6324   21945965.1574
        -0.000          -0.000
  -5057360.884 9  -3915549.91646  24042636.301    24042635.8414   24042652.1734
        -0.000          -0.000
   4267548.550 9   3317001.57846  24126172.197    24126171.7484   24126189.8254
        -0.000          -0.000
   -763596.524 9   -590786.93048  21047319.360    21047318.6054   21047327.4524
        -0.000          -0.000
 99  3 19  0  7 30.0000000  0  8 25 24 30  5  6 17  8 10            -0.000000124
  -1298581.797 8   -908587.72345  25102714.631    25102713.7834   25102730.4444
        -0.000          -0.000
   3259285.104 9   2523473.72948  22021178.788    22021178.6954   22021189.0084
        -0.000          -0.000
  -1936580.609 9  -1369319.42149  20507457.045    20507457.2134   20507464.4894
        -0.000          -0.000
   2386345.456 9   1793360.64348  20963619.074    20963618.6094   20963627.6474
        -0.000          -0.000
  -3838731.821 9  -2800096.11548  21934509.240    21934509.2054   21934518.6684
        -0.000          -0.000
  -5138465.789 9  -3978748.21246  24027202.363    24027201.9644   24027217.9274
        -0.000          -0.000
   4355150.124 9   3385262.29646  24142842.309    24142841.9494   24142860.0744
        -0.000          -0.000
   -752835.001 9   -582401.30248  21049367.102    21049366.3974   21049375.2144
        -0.000          -0.000
 99  3 19  0  8  0.0000000  0  8 25 24 30  5  6 17  8 10            -0.000000105
  -1301760.626 8   -911064.77045  25102109.511    25102108.7724   25102125.1874
        -0.000          -0.000
   3329370.280 9   2578085.53148  22034515.656    22034515.5324   22034525.7994
        -0.000          -0.000
  -1947679.883 9  -1377968.17949  20505344.772    20505344.9464   20505352.2774
        -0.000          -0.000
   2450490.365 9   1843343.65548  20975825.477    20975825.0884   20975834.1564
        -0.000          -0.000
  -3898789.840 9  -2846894.47148  21923080.633    21923080.5774   21923089.9184
        -0.000          -0.000
  -5219354.608 9  -4041778.12446  24011810.092    24011809.5404   24011824.9034
        -0.000          -0.000
   4442785.305 8   3453549.20245  24159518.621    24159518.2244   24159536.7184
        -0.000          -0.000
   -741432.770 9   -573516.42048  21051536.777    21051536.0854   21051544.9414
        -0.000          -0.000
 99  3 19  0  8 30.0000000  0  8 25 24 30  5  6 17  8 10            -0.000000076
  -1304525.822 8   -913219.47344  25101583.068    25101582.6944   25101598.5854
        -0.000          -0.000
   3399520.547 9   2632748.04248  22047864.890    22047864.7604   22047874.9364
        -0.000          -0.000
  -1958229.098 9  -1386188.32549  20503337.012    20503337.2464   20503344.7064
        -0.000          -0.000
   2515067.086 9   1893663.13348  20988114.179    20988113.7614   20988122.7814
        -0.000          -0.000
  -3958766.472 9  -2893629.41648  21911667.263    21911667.2494   21911676.7714
        -0.000          -0.000
  -5300074.032 9  -4104676.03346  23996449.460    23996448.8154   23996464.1754
        -0.000          -0.000
   4530419.413 8   3521835.26845  24176194.813    24176194.3894   24176213.0664
        -0.000          -0.000
   -729418.708 9   -564154.77248  21053823.059    21053822.3024   21053831.1284
        -0.000          -0.000
 99  3 19  0  9  0.0000000  0  8 25 24 30  5  6 17  8 10            -0.000000054
  -1306886.195 7   -915058.80644  25101134.649    25101134.3264   25101149.2144
        -0.000          -0.000
   3469729.700 9   2687456.43947  22061225.287    22061225.1224   22061235.2634
        -0.000          -0.000
  -1968219.852 9  -1393973.30949  20501435.549    20501435.8924   20501443.4954
        -0.000          -0.000
   2580064.557 9   1944310.46048  21000482.816    21000482.3994   21000491.4384
        -0.000          -0.000
  -4018662.493 9  -2940301.56448  21900268.991    21900269.1304   21900278.8964
        -0.000          -0.000
  -5380621.430 9  -4167439.90146  23981121.166    23981120.5374   23981136.0604
        -0.000          -0.000
   4618030.087 9   3590103.09245  24192866.393    24192866.1674   24192884.9354
        -0.000          -0.000
   -716816.089 9   -554334.51248  21056221.208    21056220.4824   21056229.3034
        -0.000          -0.000
 99  3 19  0  9 30.0000000  0  8 25 24 30  5  6 17  8 10            -0.000000032
  -1308817.989 8   -916564.17144  25100766.982    25100766.2314   25100781.5354
        -0.000          -0.000
   3540014.121 9   2742223.49247  22074599.990    22074599.8334   22074609.9224
        -0.000          -0.000
  -1977644.302 9  -1401317.01849  20499642.073    20499642.4234   20499650.0814
        -0.000          -0.000
   2645489.180 9   1995290.63348  21012932.570    21012932.2004   21012941.4274
        -0.000          -0.000
  -4078473.003 9  -2986907.08248  21888887.392    21888887.5484   21888897.2104
        -0.000          -0.000
  -5460981.446 9  -4230057.77046  23965828.496    23965827.8844   23965843.7454
        -0.000          -0.000
   4705609.366 9   3658346.42245  24209532.316    24209532.2184   24209550.6384
        -0.000          -0.000
   -703627.764 9   -544057.85948  21058730.835    21058730.1054   21058738.9284
        -0.000          -0.000
 99  3 19  0 10  0.0000000  0  8 25 24 30  5  6 17  8 10            -0.000000007
  -1310342.441 7   -917752.15044  25100477.802    25100476.5914   25100491.7704
        -0.000          -0.000
   3610378.023 9   2797052.47847  22087989.871    22087989.6934   22087999.8284
        -0.000          -0.000
  -1986541.089 9  -1408249.55349  20497949.191    20497949.5144   20497957.1124
        -0.000          -0.000
   2711336.949 9   2046600.53848  21025462.926    21025462.5654   21025471.9784
        -0.000          -0.000
  -4138206.087 9  -3033452.24948  21877521.003    21877520.9974   21877530.2204
        -0.000          -0.000
  -5541167.029 9  -4292539.73146  23950569.087    23950568.7174   23950584.4744
        -0.000          -0.000
   4793129.267 9   3726543.50645  24226187.357    24226187.1794   24226205.2604
        -0.000          -0.000
   -689863.160 9   -533332.17248  21061350.111    21061349.4014   21061358.2294
        -0.000          -0.000
 99  3 19  0 10 30.0000000  0  8 25 24 30  5  6 17  8 10             0.000000011
  -1311474.036 7   -918633.97744  25100261.119    25100260.8814   25100276.2184
        -0.000          -0.000
   3680816.913 9   2851939.89247  22101394.021    22101393.8234   22101403.9514
        -0.000          -0.000
  -1994920.758 9  -1414779.14749  20496354.696    20496354.9994   20496362.5704
        -0.000          -0.000
   2777602.008 9   2098235.61348  21038072.893    21038072.4554   21038081.9664
        -0.000          -0.000
  -4197873.674 9  -3079946.37448  21866166.792    21866166.7384   21866175.6834
        -0.000          -0.000
  -5621195.210 9  -4354899.07946  23935339.903    23935339.6994   23935354.9904
        -0.000          -0.000
   4880567.012 8   3794676.57445  24242826.540    24242826.5404   24242844.6864
        -0.000          -0.000
   -675536.963 9   -522168.86348  21064076.247    21064075.5344   21064084.4404
        -0.000          -0.000
 99  3 19  0 11  0.0000000  0  8 25 24 30  5  6 17  8 10             0.000000025
  -1312189.282 8   -919191.35444  25100125.087    25100124.2194   25100139.5174
        -0.000          -0.000
   3751348.743 9   2906899.73447  22114815.742    22114815.5824   22114825.6764
        -0.000          -0.000
  -2002766.904 9  -1420893.00149  20494861.595    20494861.8934   20494869.5264
        -0.000          -0.000
   2844283.058 9   2150194.82848  21050761.907    21050761.4914   21050771.0924
        -0.000          -0.000
  -4257484.393 9  -3126396.18948  21854823.184    21854823.1514   21854831.9774
        -0.000          -0.000
  -5701048.550 9  -4417122.16046  23920143.818    23920143.8494   23920159.0594
        -0.000          -0.000
   4967919.409 8   3862743.12945  24259449.169    24259449.0924   24259467.7224
        -0.000          -0.000
   -660652.505 9   -510570.55048  21066908.568    21066907.8834   21066916.8554
        -0.000          -0.000
 99  3 19  0 11 30.0000000  0  8 25 24 30  5  6 17  8 10             0.000000038
  -1312495.923 8   -919430.33144  25100067.020    25100065.3564   25100080.8384
        -0.000          -0.000
   3821956.445 9   2961918.67847  22128251.909    22128251.6914   22128261.9004
        -0.000          -0.000
  -2010111.144 9  -1426615.76649  20493463.943    20493464.2804   20493471.9444
        -0.000          -0.000
   2911357.851 9   2202460.85248  21063525.949    21063525.5054   21063534.9484
        -0.000          -0.000
  -4317062.274 9  -3172820.42848  21843485.664    21843485.5804   21843494.5174
        -0.000          -0.000
  -5780741.463 9  -4479220.26946  23904978.731    23904978.5784   23904993.9134
        -0.000          -0.000
   5055169.701 8   3930730.08745  24276052.765    24276052.5084   24276071.4224
        -0.000          -0.000
   -645213.488 9   -498540.12148  21069846.264    21069845.6204   21069854.7184
        -0.000          -0.000
 99  3 19  0 12  0.0000000  0  8 25 24 30  5  6 17  8 10             0.000000026
  -1312418.282 8   -919369.86845  25100081.227    25100080.5764   25100095.9334
        -0.000          -0.000
   3892618.167 9   3016979.72847  22141698.191    22141698.1214   22141708.3704
        -0.000          -0.000
  -2016943.059 9  -1431939.32349  20492163.902    20492164.2204   20492171.8874
        -0.000          -0.000
   2978814.839 9   2255024.70348  21076362.573    21076362.1484   21076371.4604
        -0.000          -0.000
  -4376616.381 9  -3219226.15248  21832152.513    21832152.5954   21832161.7654
        -0.000          -0.000
  -5860295.573 9  -4541210.23646  23889839.914    23889839.5784   23889855.3114
        -0.000          -0.000
   5142304.077 8   3998626.77545  24292634.264    24292633.8804   24292652.8904
        -0.000          -0.000
   -629222.586 9   -486079.65348  21072889.189    21072888.5034   21072897.6534
        -0.000          -0.000
 99  3 19  0 12 30.0000000  0  8 25 24 30  5  6 17  8 10             0.000000005
  -1311904.921 8   -918969.90645  25100178.570    25100178.3984   25100194.4304
        -0.000          -0.000
   3963360.336 9   3072103.46647  22155160.129    22155160.0624   22155170.2224
        -0.000          -0.000
  -2023177.356 9  -1436797.20149  20490977.650    20490977.9414   20490985.5794
        -0.000          -0.000
   3046675.913 9   2307903.42148  21089276.111    21089275.6684   21089284.9874
        -0.000          -0.000
  -4436110.514 9  -3265585.13748  21820831.207    21820831.2334   21820840.3434
        -0.000          -0.000
  -5939660.706 9  -4603052.96646  23874737.347    23874736.7944   23874752.7474
        -0.000          -0.000
   5229376.728 8   4066475.33345  24309203.540    24309203.1794   24309222.6314
        -0.000          -0.000
   -612629.149 9   -473149.67648  21076046.740    21076046.0874   21076055.2814
        -0.000          -0.000
 99  3 19  0 13  0.0000000  0  8 25 24 30  5  6 17  8 10            -0.000000017
  -1310931.447 8   -918211.39745  25100363.955    25100363.7504   25100379.6424
        -0.000          -0.000
   4034194.683 9   3127299.03447  22168639.628    22168639.5704   22168649.5624
        -0.000          -0.000
  -2028760.451 9  -1441147.65349  20489915.152    20489915.4774   20489923.1734
        -0.000          -0.000
   3114959.621 9   2361111.46248  21102270.038    21102269.6134   21102278.9704
        -0.000          -0.000
  -4495526.630 9  -3311883.33448  21809524.563    21809524.6004   21809533.6704
        -0.000          -0.000
  -6018803.928 9  -4664722.75946  23859676.843    23859676.1414   23859692.2114
        -0.000          -0.000
   5316420.172 9   4134301.12645  24325767.541    24325767.2014   24325786.6124
        -0.000          -0.000
   -595403.565 9   -459727.11248  21079324.641    21079323.9584   21079333.2474
        -0.000          -0.000
 99  3 19  0 13 30.0000000  0  8 25 24 30  5  6 17  8 10            -0.000000048
  -1309508.272 8   -917102.48745  25100634.593    25100634.9204   25100650.3094
        -0.000          -0.000
   4105106.865 9   3182555.25747  22182133.942    22182133.8284   22182143.6784
        -0.000          -0.000
  -2033683.848 9  -1444984.03949  20488978.173    20488978.4864   20488986.2134
        -0.000          -0.000
   3183683.788 9   2414662.71548  21115347.847    21115347.4294   21115356.8374
        -0.000          -0.000
  -4554844.065 9  -3358104.62248  21798236.858    21798236.8154   21798245.9274
        -0.000          -0.000
  -6097720.783 9  -4726216.16346  23844659.219    23844658.6464   23844674.7174
        -0.000          -0.000
   5403441.094 9   4202109.39645  24342327.533    24342327.1174   24342346.0704
        -0.000          -0.000
   -577530.105 9   -445799.71148  21082725.815    21082725.1334   21082734.4254
        -0.000          -0.000
 99  3 19  0 14  0.0000000  0  8 25 24 30  5  6 17  8 10            -0.000000069
  -1307600.448 7   -915616.00744  25100997.546    25100998.4704   25101013.1674
        -0.000          -0.000
   4176132.266 9   3237899.70447  22195649.576    22195649.4824   22195659.2794
        -0.000          -0.000
  -2037902.154 9  -1448271.01149  20488175.409    20488175.7014   20488183.3934
        -0.000          -0.000
   3252884.098 9   2468584.98248  21128516.379    21128515.9124   21128525.2324
        -0.000          -0.000
  -4614020.369 9  -3404215.97148  21786975.785    21786975.7714   21786985.0884
        -0.000          -0.000
  -6176382.200 9  -4787510.53746  23829690.398    23829689.7004   23829705.5684
        -0.000          -0.000
   5490478.391 9   4269930.41445  24358890.628    24358890.2004   24358908.9774
        -0.000          -0.000
   -558985.304 9   -431349.19448  21086254.872    21086254.1904   21086263.3344
        -0.000          -0.000
 99  3 19  0 14 30.0000000  0  8 25 24 30  5  6 17  8 10            -0.000000071
  -1305211.944 7   -913754.88044  25101451.452    25101452.6484   25101467.9144
        -0.000          -0.000
   4247265.937 9   3293328.50447  22209185.802    22209185.7404   22209195.5374
        -0.000          -0.000
  -2041446.789 9  -1451033.05249  20487500.784    20487501.0984   20487508.7974
        -0.000          -0.000
   3322559.777 9   2522877.66348  21141775.384    21141774.9134   21141784.0074
        -0.000          -0.000
  -4673062.968 9  -3450223.11048  21775740.344    21775740.4184   21775749.5674
        -0.000          -0.000
  -6254788.003 9  -4848605.72646  23814770.094    23814769.3184   23814784.8214
        -0.000          -0.000
   5577527.272 9   4337760.45246  24375456.027    24375455.4624   24375474.3674
        -0.000          -0.000
   -539789.382 9   -416391.30648  21089907.849    21089907.0714   21089916.1044
        -0.000          -0.000
 99  3 19  0 15  0.0000000  0  8 25 24 30  5  6 17  8 10            -0.000000061
  -1302359.972 7   -911532.62344  25101994.313    25101994.6504   25102011.1044
        -0.000          -0.000
   4318492.075 9   3348829.34147  22222739.731    22222739.6284   22222749.5694
        -0.000          -0.000
  -2044366.144 9  -1453307.85949  20486945.136    20486945.4834   20486953.2244
        -0.000          -0.000
   3392708.072 9   2577538.63248  21155124.238    21155123.7434   21155132.7804
        -0.000          -0.000
  -4731981.529 9  -3496133.60148  21764528.725    21764528.6314   21764537.6024
        -0.000          -0.000
  -6332965.165 9  -4909522.77446  23799893.588    23799892.7474   23799907.5524
        -0.000          -0.000
   5664558.802 8   4405576.98245  24392018.085    24392017.3284   24392036.6024
        -0.000          -0.000
   -519967.234 9   -400945.44348  21093679.773    21093679.0004   21093688.0014
        -0.000          -0.000
 99  3 19  0 15 30.0000000  0  8 25 24 30  5  6 17  8 10            -0.000000054
  -1299080.416 7   -908977.21344  25102618.863    25102618.3404   25102635.1064
        -0.000          -0.000
   4389772.979 9   3404372.84347  22236304.075    22236303.9874   22236314.0214
        -0.000          -0.000
  -2046721.871 9  -1455143.47849  20486496.784    20486497.1534   20486504.9124
        -0.000          -0.000
   3463284.462 9   2632533.17548  21168554.342    21168553.9054   21168563.1664
        -0.000          -0.000
  -4790807.463 9  -3541971.91348  21753334.292    21753334.1914   21753343.3204
        -0.000          -0.000
  -6410958.906 9  -4970296.88846  23785051.734    23785050.9524   23785065.6114
        -0.000          -0.000
   5751534.606 8   4473350.08945  24408568.954    24408568.2004   24408588.0034
        -0.000          -0.000
   -499553.281 9   -385038.43848  21097564.324    21097563.5514   21097572.5014
        -0.000          -0.000
 99  3 19  0 16  0.0000000  0  8 25 24 30  5  6 17  8 10            -0.000000036
  -1295355.413 8   -906074.64444  25103328.690    25103328.0764   25103342.9314
        -0.000          -0.000
   4461119.187 9   3459967.25747  22249880.941    22249880.8684   22249890.8824
        -0.000          -0.000
  -2048509.558 9  -1456536.46949  20486156.609    20486156.9794   20486164.6644
        -0.000          -0.000
   3534283.337 9   2687856.92848  21182065.032    21182064.6314   21182073.9554
        -0.000          -0.000
  -4849551.020 9  -3587746.04148  21742155.580    21742155.6294   21742164.7724
        -0.000          -0.000
  -6488771.365 9  -5030929.73346  23770244.176    23770243.4444   23770258.2244
        -0.000          -0.000
   5838466.724 9   4541089.11745  24425111.513    24425110.9274   24425130.5604
        -0.000          -0.000
   -478547.055 9   -368669.92148  21101561.656    21101560.8734   21101569.7524
        -0.000          -0.000
 99  3 19  0 16 30.0000000  0  8 25 24 30  5  6 17  8 10            -0.000000019
  -1291204.177 8   -902839.95144  25104118.575    25104117.9814   25104132.6754
        -0.000          -0.000
   4532516.377 9   3515601.41147  22263467.429    22263467.2824   22263477.3704
        -0.000          -0.000
  -2049747.440 9  -1457501.03549  20485921.032    20485921.4224   20485929.0514
        -0.000          -0.000
   3605701.608 9   2743507.47348  21195655.615    21195655.2034   21195664.4684
        -0.000          -0.000
  -4908228.362 9  -3633468.57848  21730989.654    21730989.6794   21730998.7104
        -0.000          -0.000
  -6566422.002 9  -5091436.48846  23755467.512    23755466.7934   23755481.7584
        -0.000          -0.000
   5925332.276 9   4608776.28145  24441642.073    24441641.1834   24441660.2534
        -0.000          -0.000
   -456954.498 9   -351844.53448  21105670.566    21105669.7894   21105678.7094
        -0.000          -0.000
 99  3 19  0 17  0.0000000  0  8 25 24 30  5  6 17  8 10            -0.000000009
  -1286620.966 8   -899268.59544  25104990.529    25104990.1854   25105005.2914
        -0.000          -0.000
   4603963.453 9   3571274.42247  22277063.245    22277063.1604   22277073.2364
        -0.000          -0.000
  -2050419.498 9  -1458024.70549  20485793.213    20485793.5704   20485801.1494
        -0.000          -0.000
   3677526.146 9   2799474.58048  21209323.400    21209323.0014   21209332.1464
        -0.000          -0.000
  -4966826.515 9  -3679129.41448  21719838.744    21719838.7384   21719847.8324
        -0.000          -0.000
  -6643908.309 9  -5151815.17646  23740722.310    23740721.6304   23740736.5704
        -0.000          -0.000
   6012126.441 9   4676407.84645  24458158.622    24458157.7704   24458176.4234
        -0.000          -0.000
   -434770.427 9   -334558.21348  21109892.036    21109891.2764   21109900.2474
        -0.000          -0.000
 99  3 19  0 17 30.0000000  0  8 25 24 30  5  6 17  8 10             0.000000002
  -1281603.907 8   -895359.24344  25105945.638    25105945.1944   25105960.4754
        -0.000          -0.000
   4675477.885 9   3626999.92646  22290672.132    22290672.0184   22290681.9064
        -0.000          -0.000
  -2050505.278 9  -1458091.54049  20485776.941    20485777.2914   20485784.9044
        -0.000          -0.000
   3749764.816 9   2855764.40248  21223069.928    21223069.5754   21223078.6644
        -0.000          -0.000
  -5025330.675 9  -3724716.98548  21708705.913    21708705.8054   21708714.9024
        -0.000          -0.000
  -6721215.331 9  -5212054.16046  23726011.289    23726010.6454   23726025.4434
        -0.000          -0.000
   6098856.859 8   4743989.74045  24474662.985    24474661.9844   24474680.8334
        -0.000          -0.000
   -412000.184 9   -316815.14548  21114225.097    21114224.3274   21114233.2984
        -0.000          -0.000
 99  3 19  0 18  0.0000000  0  8 25 24 30  5  6 17  8 10             0.000000019
  -1276142.594 7   -891103.70345  25106985.292    25106984.9374   25107000.1094
        -0.000          -0.000
   4747092.893 9   3682803.77746  22304300.208    22304300.1244   22304309.9174
        -0.000          -0.000
  -2049970.565 9  -1457674.87349  20485878.698    20485879.0414   20485886.6364
        -0.000          -0.000
   3822449.774 9   2912401.98748  21236901.464    21236901.1094   21236910.1624
        -0.000          -0.000
  -5083705.138 9  -3770203.51848  21697597.551    21697597.4864   21697606.6534
        -0.000          -0.000
  -6798325.779 9  -5272139.96346  23711337.595    23711336.9334   23711351.6514
        -0.000          -0.000
   6185526.810 9   4811524.51545  24491155.856    24491154.9254   24491173.9074
        -0.000          -0.000
   -388630.889 9   -298605.29248  21118672.032    21118671.2484   21118680.3174
        -0.000          -0.000
 99  3 19  0 18 30.0000000  0  8 25 24 30  5  6 17  8 10             0.000000026
  -1270273.42716   -886530.35354  25108100.412    25108100.4015          0.0005
        -0.000          -0.000
   4818787.225 9   3738669.44046  22317943.625    22317943.3794   22317953.1144
        -0.000          -0.000
  -2048839.440 9  -1456793.46149  20486093.964    20486094.2924   20486101.9094
        -0.000          -0.000
   3895547.239 9   2969361.00148  21250811.547    21250811.1504   21250820.3034
        -0.000          -0.000
  -5141944.768 9  -3815584.98748  21686514.627    21686514.6794   21686523.9864
        -0.000          -0.000
  -6875258.105 9  -5332086.98046  23696697.459    23696696.8694   23696711.6954
        -0.000          -0.000
   6272095.676 9   4878980.49645  24507629.623    24507628.6814   24507647.9324
        -0.000          -0.000
   -364680.335 9   -279942.51348  21123229.673    21123228.9034   21123237.8974
        -0.000          -0.000
 99  3 19  0 19  0.0000000  0  8 25 24 30  5  6 17  8 10             0.000000030
  -1263985.683 7   -881631.12354  25109294.903    25109294.9094          0.0005
        -0.000          -0.000
   4890572.719 9   3794606.15546  22331604.149    22331603.8524   22331613.5694
        -0.000          -0.000
  -2047085.990 9  -1455427.12349  20486427.574    20486427.9314   20486435.5324
        -0.000          -0.000
   3969063.072 9   3026646.01848  21264801.127    21264800.7254   21264810.0274
        -0.000          -0.000
  -5200021.749 9  -3860839.71048  21675462.764    21675462.8504   21675472.2114
        -0.000          -0.000
  -6951986.767 9  -5391875.30746  23682095.847    23682095.4374   23682110.3134
        -0.000          -0.000
   6358580.086 8   4946370.70945  24524086.854    24524086.0194   24524105.6204
        -0.000          -0.000
   -340126.927 9   -260809.96548  21127902.087    21127901.3284   21127910.2594
        -0.000          -0.000
 99  3 19  0 19 30.0000000  0  8 25 24 30  5  6 17  8 10             0.000000042
  -1257281.616 8   -876407.33644  25110571.678    25110571.5674   25110587.8554
        -0.000          -0.000
   4962460.774 9   3850622.78046  22345284.041    22345283.6724   22345293.3914
        -0.000          -0.000
  -2044707.103 9  -1453573.43949  20486880.242    20486880.6084   20486888.1524
        -0.000          -0.000
   4043008.129 9   3084265.49948  21278872.272    21278871.8844   21278881.3794
        -0.000          -0.000
  -5257935.654 9  -3905967.35848  21664441.950    21664442.0594   21664451.3984
        -0.000          -0.000
  -7028508.035 9  -5451502.02546  23667534.105    23667533.6974   23667548.1044
        -0.000          -0.000
   6444984.030 8   5013698.19045  24540528.464    24540527.9074   24540548.0294
        -0.000          -0.000
   -314953.320 9   -241194.13548  21132692.502    21132691.7124   21132700.6054
        -0.000          -0.000
 99  3 19  0 20  0.0000000  0  8 25 24 30  5  6 17  8 10            -0.000000089
  -1250096.559 7   -870808.67645  25111940.877    25111940.3054   25111956.8804
        -0.000          -0.000
   5034505.596 9   3906761.57246  22358993.686    22358993.3014   22359002.9134
        -0.000          -0.000
  -2041636.106 9  -1451180.44349  20487464.629    20487464.9834   20487472.4154
        -0.000          -0.000
   4117440.532 9   3142264.72748  21293036.277    21293035.8984   21293045.4664
        -0.000          -0.000
  -5315627.709 9  -3950922.14048  21653463.442    21653463.5594   21653472.8004
        -0.000          -0.000
  -7104755.707 9  -5510915.56646  23653024.521    23653024.1234   23653038.0554
        -0.000          -0.000
   6531368.291 8   5081010.28345  24556966.845    24556966.3054   24556986.3744
        -0.000          -0.000
   -289083.146 9   -221035.52748  21137615.320    21137614.5644   21137623.3824
        -0.000          -0.000
 99  3 19  0 20 30.0000000  0  8 25 24 30  5  6 17  8 10            -0.000000101
  -1242508.720 8   -864896.16245  25113384.701    25113384.6954   25113401.1414
        -0.000          -0.000
   5106603.839 9   3962941.99746  22372713.578    22372713.2134   22372722.5284
        -0.000          -0.000
  -2037968.428 9  -1448322.50849  20488162.534    20488162.9304   20488170.2824
        -0.000          -0.000
   4192264.024 9   3200568.70348  21307274.701    21307274.3314   21307283.9594
        -0.000          -0.000
  -5373212.855 9  -3995793.60048  21642505.424    21642505.4654   21642514.5104
        -0.000          -0.000
  -7180801.569 9  -5570171.84646  23638553.422    23638552.8614   23638566.7754
        -0.000          -0.000
   6617656.938 9   5148247.86645  24573387.194    24573386.8374   24573406.8134
        -0.000          -0.000
   -262611.555 9   -200408.27648  21142652.577    21142651.8374   21142660.7574
        -0.000          -0.000
 99  3 19  0 21  0.0000000  0  8 25 24 30  5  6 17  8 10            -0.000000108
  -1234519.370 7   -858670.67244  25114905.375    25114904.8554   25114921.2924
        -0.000          -0.000
   5178743.134 9   4019154.38746  22386441.417    22386441.0094   22386449.9724
        -0.000          -0.000
  -2033716.080 9  -1445008.98149  20488971.736    20488972.0904   20488979.4714
        -0.000          -0.000
   4267483.757 9   3259181.42048  21321588.614    21321588.2814   21321597.8894
        -0.000          -0.000
  -5430722.576 9  -4040606.29448  21631561.702    21631561.6124   21631570.6724
        -0.000          -0.000
  -7256641.061 9  -5629267.30446  23624121.355    23624120.7924   23624135.0154
        -0.000          -0.000
   6703851.259 9   5215411.98645  24589790.050    24589789.6214   24589809.2524
        -0.000          -0.000
   -235559.995 9   -179329.11348  21147800.252    21147799.5434   21147808.5634
        -0.000          -0.000
 99  3 19  0 21 30.0000000  0  8 25 24 30  5  6 17  8 10            -0.000000104
  -1226133.605 8   -852136.40744  25116500.989    25116499.9894   25116516.2434
        -0.000          -0.000
   5250909.740 9   4075388.05846  22400174.347    22400173.9334   22400182.6494
        -0.000          -0.000
  -2028906.732 9  -1441261.42449  20489886.846    20489887.1864   20489894.7114
        -0.000          -0.000
   4343077.708 9   3318085.73148  21335974.036    21335973.5834   21335982.8984
        -0.000          -0.000
  -5488183.045 9  -4085380.62548  21620627.310    21620627.2114   21620636.3894
        -0.000          -0.000
  -7332286.248 9  -5688211.34946  23609726.227    23609725.7174   23609740.2754
        -0.000          -0.000
   6789932.667 9   5282488.12745  24606171.362    24606171.0114   24606190.1524
        -0.000          -0.000
   -207958.546 9   -157821.47048  21153052.586    21153051.8774   21153060.9534
        -0.000          -0.000
 99  3 19  0 22  0.0000000  0  8 25 24 30  5  6 17  8 10            -0.000000085
  -1217359.954 7   -845299.92244  25118170.348    25118169.7354   25118184.8954
        -0.000          -0.000
   5323083.366 9   4131627.22946  22413908.342    22413908.0344   22413916.7334
        -0.000          -0.000
  -2023563.151 9  -1437097.59049  20490903.648    20490904.0124   20490911.6334
        -0.000          -0.000
   4419037.904 9   3377275.43148  21350428.834    21350428.3964   21350437.6034
        -0.000          -0.000
  -5545611.043 9  -4130129.63748  21609699.147    21609699.1064   21609708.1874
        -0.000          -0.000
  -7407735.721 9  -5747002.91746  23595368.373    23595367.9274   23595382.4254
        -0.000          -0.000
   6875888.007 8   5349466.03245  24622528.495    24622528.0984   24622547.2354
        -0.000          -0.000
   -179828.500 9   -135901.93848  21158405.628    21158404.9314   21158414.0174
        -0.000          -0.000
 99  3 19  0 22 30.0000000  0  8 25 24 30  5  6 17  8 10            -0.000000061
  -1208215.498 8   -838174.42645  25119910.712    25119910.1664   25119925.7624
        -0.000          -0.000
   5395239.230 9   4187852.57546  22427639.053    22427638.8284   22427647.3204
        -0.000          -0.000
  -2017707.232 9  -1432534.52949  20492017.999    20492018.3414   20492026.0334
        -0.000          -0.000
   4495340.084 9   3436731.64048  21364948.782    21364948.3744   21364957.5174
        -0.000          -0.000
  -5603027.396 9  -4174869.56648  21598773.170    21598773.1204   21598782.0914
        -0.000          -0.000
  -7483011.174 9  -5805658.90146  23581043.765    23581043.3844   23581057.6024
        -0.000          -0.000
   6961693.838 8   5416327.45245  24638857.028    24638856.5554   24638875.8584
        -0.000          -0.000
   -151189.950 9   -113586.17048  21163855.562    21163854.8084   21163863.7814
        -0.000          -0.000
 99  3 19  0 23  0.0000000  0  8 25 24 30  5  6 17  8 10            -0.000000035
  -1198675.850 8   -830740.98345  25121727.452    25121726.2994   25121742.4854
        -0.000          -0.000
   5467407.975 9   4244087.94746  22441372.528    22441372.1314   22441380.2944
        -0.000          -0.000
  -2011300.507 9  -1427542.27549  20493237.093    20493237.4874   20493245.2014
        -0.000          -0.000
   4572001.167 9   3496467.50148  21379536.982    21379536.5854   21379545.7284
        -0.000          -0.000
  -5660386.438 9  -4219564.83548  21587858.212    21587858.1174   21587866.8934
        -0.000          -0.000
  -7558099.437 9  -5864169.00546  23566754.915    23566754.4654   23566768.3484
        -0.000          -0.000
   7047364.293 8   5483083.38445  24655159.384    24655159.0694   24655178.5934
        -0.000          -0.000
   -122003.236 9    -90843.26048  21169409.680    21169408.9134   21169417.8274
        -0.000          -0.000
 99  3 19  0 23 30.0000000  0  8 25 24 30  5  6 17  8 10            -0.000000030
  -1188737.221 7   -822996.68844  25123618.625    25123617.9734   25123634.5244
        -0.000          -0.000
   5539590.757 9   4300334.25046  22455108.418    22455107.9224   22455116.0544
        -0.000          -0.000
  -2004327.921 9  -1422109.09049  20494563.863    20494564.2884   20494572.0364
        -0.000          -0.000
   4649010.651 9   3556474.83448  21394191.493    21394191.0404   21394200.2024
        -0.000          -0.000
  -5717677.247 9  -4264206.93348  21576956.118    21576956.0444   21576964.7364
        -0.000          -0.000
  -7633013.844 9  -5922543.62746  23552499.021    23552498.4354   23552512.5024
        -0.000          -0.000
   7132890.041 9   5549726.48045  24671434.612    24671434.1914   24671453.4334
        -0.000          -0.000
    -92260.376 9    -67666.98548  21175069.527    21175068.7954   21175077.6324
        -0.000          -0.000
 99  3 19  0 24  0.0000000  0  8 25 24 30  5  6 17  8 10            -0.000000032
  -1178350.62117   -814903.31154  25125593.745    25125593.8855          0.0005
        -0.000          -0.000
   5611834.301 9   4356627.85745  22468855.486    22468855.1864   22468863.6634
        -0.000          -0.000
  -1996728.846 9  -1416187.72549  20496010.038    20496010.3974   20496018.0894
        -0.000          -0.000
   4726410.746 9   3616786.54148  21408920.247    21408919.7934   21408928.9424
        -0.000          -0.000
  -5774844.308 9  -4308752.62648  21566077.469    21566077.4454   21566086.1374
        -0.000          -0.000
  -7707712.725 9  -5980750.35946  23538283.904    23538283.3464   23538297.9854
        -0.000          -0.000
   7218319.168 8   5616294.33345  24687691.784    24687691.3964   24687710.2524
        -0.000          -0.000
    -61912.365 9    -44019.16848  21180844.432    21180843.7474   21180852.5114
        -0.000          -0.000
 99  3 19  0 24 30.0000000  0  8 25 24 30  5  6 17  8 10            -0.000000049
  -1167498.98817   -806447.72654  25127657.898    25127658.6825          0.0005
        -0.000          -0.000
   5684162.236 8   4412987.24946  22482618.974    22482618.7574   22482627.5084
        -0.000          -0.000
  -1988474.729 9  -1409755.93749  20497580.873    20497581.2004   20497588.7894
        -0.000          -0.000
   4804203.135 9   3677403.91748  21423723.673    21423723.1954   21423732.3984
        -0.000          -0.000
  -5831859.684 9  -4353180.10948  21555227.652    21555227.6374   21555236.4324
        -0.000          -0.000
  -7782198.995 9  -6038791.38446  23524109.235    23524108.7694   23524123.8174
        -0.000          -0.000
   7303666.020 8   5682798.10945  24703932.568    24703932.4244   24703951.8104
        -0.000          -0.000
    -30957.595 9    -19898.55248  21186734.981    21186734.3294   21186742.8894
        -0.000          -0.000
 99  3 19  0 25  0.0000000  0  8 25 24 30  5  6 17  8 10            -0.000000049
  -1156162.93517   -797614.48553         0.000           0.0005          0.0005
        -0.000          -0.000
   5756609.884 8   4469439.87846  22496405.070    22496404.8844   22496413.9714
        -0.000          -0.000
  -1979546.525 9  -1402798.89749  20499279.742    20499280.0844   20499287.7494
        -0.000          -0.000
   4882417.748 9   3738350.30648  21438607.414    21438606.9214   21438616.1724
        -0.000          -0.000
  -5888686.136 9  -4397460.38548  21544413.655    21544413.7434   21544422.6044
        -0.000          -0.000
  -7856440.997 9  -6096642.09346  23509981.481    23509981.0484   23509995.9884
        -0.000          -0.000
   7388956.811 8   5749258.20545  24720162.776    24720162.5974   24720182.7194
        -0.000          -0.000
       626.600 9      4712.52348  21192745.313    21192744.6484   21192753.0464
        -0.000          -0.000
 99  3 19  0 25 30.0000000  0  8 25 24 30  5  6 17  8 10            -0.000000045
  -1144384.998 7    631150.12142         0.000           0.0004          0.0004
        -0.000          -0.000
   5829150.599 8   4525965.03346  22510208.784    22510208.6074   22510218.1354
        -0.000          -0.000
  -1969984.246 9  -1395347.76649  20501099.244    20501099.6344   20501107.3634
        -0.000          -0.000
   4961027.971 9   3799604.98048  21453566.456    21453565.9354   21453575.2264
        -0.000          -0.000
  -5945352.016 9  -4441615.53148  21533630.459    21533630.5584   21533639.3814
        -0.000          -0.000
  -7930469.171 9  -6154326.15746  23495894.675    23495894.1704   23495908.7814
        -0.000          -0.000
   7474157.548 9   5815648.09245  24736376.409    24736376.0924   24736396.2204
        -0.000          -0.000
     32791.213 9     29775.87448  21198866.032    21198865.3514   21198873.8264
        -0.000          -0.000
 99  3 19  0 26  0.0000000  0  8 25 24 30  5  6 17  8 10            -0.000000039
  -1132199.020 7    640662.50852         0.000           0.0004          0.0005
        -0.000          -0.000
   5901762.745 8   4582545.86246  22524026.368    22524026.0024   22524035.7554
        -0.000          -0.000
  -1959820.233 9  -1387427.75449  20503033.417    20503033.7754   20503041.4504
        -0.000          -0.000
   5040019.442 9   3861156.71948  21468598.018    21468597.4894   21468606.8584
        -0.000          -0.000
  -6001872.031 9  -4485657.03148  21522875.028    21522875.0744   21522884.0084
        -0.000          -0.000
  -8004300.368 9  -6211856.74146  23481845.176    23481844.6574   23481858.7694
        -0.000          -0.000
   7559244.187 8   5881949.10345  24752567.940    24752567.7854   24752587.8584
        -0.000          -0.000
     65511.813 9     55272.46148  21205092.348    21205091.7214   21205100.4194
        -0.000          -0.000
 99  3 19  0 26 30.0000000  0  8 25 24 30  5  6 17  8 10            -0.000000037
  -1119635.222 8    650482.97852         0.000           0.0004          0.0005
        -0.000          -0.000
   5974417.814 9   4639160.14346  22537852.282    22537851.9484   22537861.4974
        -0.000          -0.000
  -1949079.620 9  -1379058.44849  20505077.431    20505077.7604   20505085.2924
        -0.000          -0.000
   5119385.453 9   3923000.30148  21483700.934    21483700.3834   21483709.8054
        -0.000          -0.000
  -6058257.134 9  -4529593.40048  21512145.246    21512145.2824   21512154.3554
        -0.000          -0.000
  -8077942.202 9  -6269239.77546  23467831.272    23467830.8794   23467844.6564
        -0.000          -0.000
   7644190.959 8   5948141.07045  24768732.524    24768732.5934   24768752.8644
        -0.000          -0.000
     98776.609 9     81193.09248  21211422.415    21211421.7884   21211430.5234
        -0.000          -0.000
 99  3 19  0 27  0.0000000  0  8 25 24 30  5  6 17  8 10            -0.000000024
  -1106694.782 7    663337.47242         0.000           0.0004          0.0004
        -0.000          -0.000
   6047113.257 9   4695805.90546  22551686.284    22551685.9624   22551695.1364
        -0.000          -0.000
  -1937757.728 9  -1370236.19149  20507232.026    20507232.3484   20507239.7284
        -0.000          -0.000
   5199132.997 9   3985141.18948  21498876.457    21498875.9184   21498885.3554
        -0.000          -0.000
  -6114510.281 9  -4573426.94548  21501440.702    21501440.7024   21501449.6844
        -0.000          -0.000
  -8151374.901 9  -6326459.84946  23453857.286    23453856.8834   23453870.4554
        -0.000          -0.000
   7728995.993 8   6014222.62945  24784870.697    24784870.7504   24784890.8654
        -0.000          -0.000
    132609.456 9    107556.36348  21217860.664    21217860.0114   21217868.7824
        -0.000          -0.000
 99  3 19  0 27 30.0000000  0  8 25 24 30  5  6 17  8 10            -0.000000017
  -1093379.581 7    673712.87252         0.000           0.0004          0.0005
        -0.000          -0.000
   6119833.259 9   4752470.80546  22565524.823    22565524.5424   22565533.5344
        -0.000          -0.000
  -1925853.525 9  -1360960.18049  20509497.369    20509497.6904   20509505.0244
        -0.000          -0.000
   5279247.132 9   4047567.72948  21514121.513    21514121.0544   21514130.5094
        -0.000          -0.000
  -6170629.331 9  -4617156.00148  21490761.563    21490761.5264   21490770.4564
        -0.000          -0.000
  -8224604.223 9  -6383521.44146  23439922.203    23439921.6504   23439935.0694
        -0.000          -0.000
   7813651.802 8   6080187.94245  24800980.538    24800980.4984   24801000.9094
        -0.000          -0.000
    167011.373 9    134363.08648  21224407.256    21224406.5294   21224415.3334
        -0.000          -0.000
 99  3 19  0 28  0.0000000  0  8 25 24 30  5  6 17  8 10            -0.000000020
  -1079684.780 8    684384.02952         0.000           0.0004          0.0005
        -0.000          -0.000
   6192561.192 9   4809141.87646  22579364.683    22579364.4214   22579373.4494
        -0.000          -0.000
  -1913369.372 9  -1351232.25549  20511873.122    20511873.4154   20511880.7104
        -0.000          -0.000
   5359720.821 9   4110274.43248  21529435.017    21529434.6524   21529444.0824
        -0.000          -0.000
  -6226624.072 9  -4660788.20648  21480105.968    21480105.9324   21480114.8474
        -0.000          -0.000
  -8297626.106 9  -6440421.39946  23426026.630    23426025.9104   23426039.4124
        -0.000          -0.000
   7898164.230 8   6146041.50545  24817062.739    24817062.8144   24817083.9944
        -0.000          -0.000
    201991.582 9    161620.42448  21231063.711    21231062.9714   21231071.8614
        -0.000          -0.000
 99  3 19  0 28 30.0000000  0  8 25 24 30  5  6 17  8 10            -0.000000026
  -1065586.466 8    695304.78842         0.000           0.0004          0.0004
        -0.000          -0.000
   6265310.238 9   4865829.42946  22593208.726    22593208.2374   22593217.0604
        -0.000          -0.000
  -1900287.307 9  -1341038.43349  20514362.491    20514362.7724   20514370.1994
        -0.000          -0.000
   5440557.180 9   4173263.73648  21544817.800    21544817.4334   21544826.7014
        -0.000          -0.000
  -6282495.843 9  -4704324.58848  21469473.828    21469473.7934   21469482.6694
        -0.000          -0.000
  -8370426.674 9  -6497148.93446  23412172.854    23412172.2014   23412185.7934
        -0.000          -0.000
   7982548.490 8   6211795.20245  24833120.781    24833121.0274   24833142.1964
        -0.000          -0.000
    237568.774 9    189342.92948  21237833.643    21237832.9544   21237842.0524
        -0.000          -0.000
 99  3 19  0 29  0.0000000  0  8 25 24 30  5  6 17  8 10            -0.000000041
  -1051076.260 7    706569.85252         0.000           0.0004          0.0005
        -0.000          -0.000
   6338092.043 9   4922542.50346  22607058.705    22607058.1594   22607066.8054
        -0.000          -0.000
  -1886606.053 9  -1330377.71149  20516965.742    20516966.0604   20516973.6474
        -0.000          -0.000
   5521745.241 9   4236527.10548  21560267.606    21560267.1674   21560276.2744
        -0.000          -0.000
  -6338241.116 9  -4747762.40548  21458865.679    21458865.6864   21458874.5804
        -0.000          -0.000
  -8443021.034 9  -6553715.78546  23398358.365    23398357.7944   23398371.2134
        -0.000          -0.000
   8066808.686 8   6277452.22645  24849155.445    24849155.3684   24849177.0354
        -0.000          -0.000
    273742.491 9    217530.24648  21244717.251    21244716.5394   21244725.7074
        -0.000          -0.000
 99  3 19  0 29 30.0000000  0  8 25 24 30  5  6 17  8 10            -0.000000056
  -1036127.245 7    718110.22952         0.000           0.0004          0.0005
        -0.000          -0.000
   6410932.365 9   4979301.16246  22620919.995    22620919.3634   22620927.7594
        -0.000          -0.000
  -1872302.609 9  -1319232.15849  20519687.359    20519687.7364   20519695.4754
        -0.000          -0.000
   5603310.953 9   4300084.74748  21575789.051    21575788.6624   21575797.7974
        -0.000          -0.000
  -6393824.021 9  -4791073.68148  21448288.707    21448288.6984   21448297.4104
        -0.000          -0.000
  -8515391.241 9  -6610107.94446  23384586.459    23384586.0394   23384599.2474
        -0.000          -0.000
   8150975.042 8   6343036.06445  24865171.315    24865171.5514   24865193.8874
        -0.000          -0.000
    310531.853 9    246197.28848  21251718.005    21251717.3124   21251726.4654
        -0.000          -0.000
 99  3 19  0 30  0.0000000  0  8 25 24 30  5  6 17  8 10            -0.000000065
  -1020762.792 7    727115.71142         0.000           0.0004          0.0004
        -0.000          -0.000
   6483824.796 9   5036100.40746  22634790.963    22634790.3504   22634798.6394
        -0.000          -0.000
  -1857399.944 9  -1307619.69249  20522523.134    20522523.5134   20522531.3254
        -0.000          -0.000
   5685237.031 9   4363923.19048  21591379.182    21591378.7494   21591388.0414
        -0.000          -0.000
  -6449284.621 9  -4834289.66448  21437735.058    21437734.9354   21437743.6154
        -0.000          -0.000
  -8587555.750 9  -6666339.80646  23370853.792    23370853.3654   23370866.4534
        -0.000          -0.000
   8235022.101 8   6408527.02645  24881164.441    24881164.9684   24881188.0104
        -0.000          -0.000
    347904.972 9    275319.20348  21258829.941    21258829.2094   21258838.3084
        -0.000          -0.000
 99  3 19  0 30 30.0000000  0  8 25 24 30  5  6 17  8 10            -0.000000068
  -1004999.574 7    739375.16242         0.000           0.0004          0.0004
        -0.000          -0.000
   6556777.843 9   5092946.89446  22648673.491    22648672.9904   22648681.3414
        -0.000          -0.000
  -1841900.967 9  -1295542.56749  20525472.370    20525472.8014   20525480.5644
        -0.000          -0.000
   5767518.014 9   4428038.16148  21607036.825    21607036.3894   21607045.7124
        -0.000          -0.000
  -6504612.172 9  -4877401.99248  21427206.383    21427206.3544   21427215.2384
        -0.000          -0.000
  -8659522.600 9  -6722417.65646  23357158.667    23357158.2374   23357171.4054
        -0.000          -0.000
   8318934.554 8   6473913.05045  24897133.250    24897133.3024   24897156.7084
        -0.000          -0.000
    385850.207 9    304886.92748  21266050.585    21266049.8804   21266058.9434
        -0.000          -0.000
 99  3 19  0 31  0.0000000  0  8 25 24 30  5  6 17  8 10            -0.000000077
   -988866.321 7    751868.03952         0.000           0.0004          0.0005
        -0.000          -0.000
   6629778.423 9   5149830.44246  22662565.215    22662564.6334   22662573.2754
        -0.000          -0.000
  -1825819.948 9  -1283011.89349  20528532.520    20528532.9424   20528540.7194
        -0.000          -0.000
   5850144.563 9   4492422.41848  21622760.277    21622759.8144   21622769.0814
        -0.000          -0.000
  -6559799.670 9  -4920405.18848  21416704.432    21416704.5044   21416713.3944
        -0.000          -0.000
  -8731304.587 9  -6778351.46246  23343498.519    23343498.3624   23343511.7484
        -0.000          -0.000
   8402689.391 8   6539176.30845  24913072.507    24913071.9974   24913095.0784
        -0.000          -0.000
    424348.585 9    334885.66348  21273376.492    21273375.8584   21273384.8564
        -0.000          -0.000
 99  3 19  0 31 30.0000000  0  8 25 24 30  5  6 17  8 10            -0.000000075
   -972358.606 7    758826.47142         0.000           0.0004          0.0004
        -0.000          -0.000
   6702829.550 9   5206753.38845  22676466.406    22676465.7604   22676474.7794
        -0.000          -0.000
  -1809136.060 9  -1270011.45549  20531707.380    20531707.7654   20531715.6174
        -0.000          -0.000
   5933133.140 9   4557088.77548  21638552.460    21638552.0224   21638561.3914
        -0.000          -0.000
  -6614853.186 9  -4963303.97148  21406228.180    21406228.1574   21406236.9264
        -0.000          -0.000
  -8802875.310 9  -6834120.66746  23329879.226    23329878.9714   23329892.2414
        -0.000          -0.000
   8486294.491 8   6604322.89445  24928982.599    24928981.9554   24929004.4204
        -0.000          -0.000
    463398.577 9    365314.23048  21280807.560    21280806.9434   21280815.8124
        -0.000          -0.000
 99  3 19  0 32  0.0000000  0  8 25 24 30  5  6 17  8 10            -0.000000069
   -955480.814 7    771957.05742         0.000           0.0004          0.0004
        -0.000          -0.000
   6775924.968 9   5263710.82045  22690375.901    22690375.2104   22690384.2774
        -0.000          -0.000
  -1791845.298 9  -1256538.13349  20534997.705    20534998.0864   20535006.0194
        -0.000          -0.000
   6016480.804 9   4622034.92848  21654412.872    21654412.4924   21654421.9444
        -0.000          -0.000
  -6669781.333 9  -5006105.05648  21395775.667    21395775.6434   21395784.2684
        -0.000          -0.000
  -8874237.810 9  -6889727.63446  23316299.213    23316298.9934   23316312.1164
        -0.000          -0.000
   8569736.327 8   6669342.21145  24944861.357    24944860.5624   24944882.1994
        -0.000          -0.000
    502990.872 9    396165.38448  21288341.879    21288341.1884   21288349.9824
        -0.000          -0.000
 99  3 19  0 32 30.0000000  0  8 25 24 30  5  6 17  8 10            -0.000000069
   -938220.473 7    785310.12052         0.000           0.0004          0.0005
        -0.000          -0.000
   6849053.089 8   5320693.74945  22704291.555    22704290.9264   22704299.7144
        -0.000          -0.000
  -1773946.168 9  -1242590.76949  20538403.899    20538404.2494   20538412.1784
        -0.000          -0.000
   6100196.589 9   4687267.93948  21670343.624    21670343.2234   21670352.5934
        -0.000          -0.000
  -6724558.720 9  -5048788.66848  21385351.903    21385351.8294   21385360.2694
        -0.000          -0.000
  -8945390.603 9  -6945171.18146  23302758.997    23302758.7564   23302771.8104
        -0.000          -0.000
   8653026.307 8   6734243.17945  24960711.655    24960710.4694   24960731.7134
        -0.000          -0.000
    543126.436 9    427439.86248  21295979.258    21295978.5814   21295987.5094
        -0.000          -0.000
 99  3 19  0 33  0.0000000  0  8 25 24 30  5  6 17  8 10            -0.000000069
   -920558.22017    798055.218 1         0.000           0.0001          0.000
        -0.000          -0.000
   6922202.041 8   5377692.90745  22718211.310    22718210.8594   22718219.1244
        -0.000          -0.000
  -1755431.123 9  -1228163.45749  20541927.195    20541927.5794   20541935.5134
        -0.000          -0.000
   6184293.404 9   4752797.85248  21686346.817    21686346.4054   21686355.7234
        -0.000          -0.000
  -6779187.586 9  -5091356.55948  21374956.304    21374956.2464   21374964.6344
        -0.000          -0.000
  -9016319.198 9  -7000440.02146  23289261.699    23289261.2614   23289274.1554
        -0.000          -0.000
   8736167.624 8   6799028.31745  24976533.443    24976532.2654   24976553.1474
        -0.000          -0.000
    583800.321 9    459133.81048  21303719.157    21303718.5034   21303727.4404
        -0.000          -0.000
 99  3 19  0 33 30.0000000  0  8 25 24 30  5  6 17  8 10            -0.000000067
   -902492.667 7    804523.45042         0.000           0.0004          0.0004
        -0.000          -0.000
   6995360.664 8   5434699.57845  22732133.230    22732132.6814   22732140.9134
        -0.000          -0.000
  -1736311.864 9  -1213265.33549  20545565.575    20545565.9404   20545573.8574
        -0.000          -0.000
   6268755.435 9   4818612.36248  21702419.282    21702418.9184   21702428.3854
        -0.000          -0.000
  -6833679.208 9  -5133817.50748  21364586.815    21364586.7344   21364595.1534
        -0.000          -0.000
  -9087019.962 9  -7055531.33846  23275807.444    23275807.0144   23275819.9714
        -0.000          -0.000
   8819161.098 8   6863698.31045  24992326.171    24992325.4344   24992346.4204
        -0.000          -0.000
    624998.111 9    491235.98848  21311558.892    21311558.2254   21311567.0904
        -0.000          -0.000
 99  3 19  0 34  0.0000000  0  7 24 30  5  6 17  8 10               -0.000000050
   7068539.499 8   5491722.04145  22746059.111    22746058.5604   22746066.8984
        -0.000          -0.000
  -1716612.004 9  -1197914.78949  20549314.442    20549314.7954   20549322.5714
        -0.000          -0.000
   6353575.498 9   4884705.86148  21718559.923    21718559.5444   21718569.2264
        -0.000          -0.000
  -6888009.287 9  -5176152.56748  21354248.030    21354247.9924   21354256.4164
        -0.000          -0.000
  -9157497.287 9  -7110448.55846  23262395.824    23262395.4894   23262408.3644
        -0.000          -0.000
   8902005.528 8   6928252.17945  25008090.439    25008090.0394   25008111.7074
        -0.000          -0.000
    666728.210 9    523752.94748  21319499.966    21319499.2584   21319508.0514
        -0.000          -0.000
 99  3 19  0 34 30.0000000  0  7 24 30  5  6 17  8 10               -0.000000031
   7141701.888 8   5548731.68445  22759981.697    22759981.2124   22759989.8204
        -0.000          -0.000
  -1696382.407 9  -1182151.47549  20553164.068    20553164.3614   20553172.1144
        -0.000          -0.000
   6438704.344 9   4951039.95748  21734759.528    21734759.1494   21734768.9264
        -0.000          -0.000
  -6942212.762 9  -5218388.97448  21343933.388    21343933.3534   21343941.8054
        -0.000          -0.000
  -9227782.783 9  -7165216.30946  23249021.134    23249020.6284   23249033.4134
        -0.000          -0.000
   8984660.712 8   6992658.52745  25023819.613    25023818.9214   25023841.1754
        -0.000          -0.000
    708957.662 9    556659.03548  21327535.988    21327535.2454   21327544.0254
        -0.000          -0.000
 99  3 19  0 35  0.0000000  0  7 24 30  5  6 17  8 10               -0.000000021
   7214847.510 7   5605728.22445  22773900.256    22773902.8684   22773910.7104
        -0.000          -0.000
  -1675629.391 9  -1165980.29949  20557113.091    20557113.4174   20557121.1684
        -0.000          -0.000
   6524110.783 9   5017590.34048  21751012.091    21751011.6974   21751021.3894
        -0.000          -0.000
  -6996311.246 9  -5260543.58448  21333638.640    21333638.6204   21333647.2184
        -0.000          -0.000
  -9297890.452 9  -7219845.48147  23235680.061    23235679.4054   23235692.5584
        -0.000          -0.000
   9067103.769 8   7056899.56245  25039508.180    25039507.4994   25039529.8954
        -0.000          -0.000
    751691.708 9    589958.29748  21335667.897    21335667.1754   21335676.1244
        -0.000          -0.000
 99  3 19  0 35 30.0000000  0  7 24 30  5  6 17  8 10               -0.000000020
   7287999.259 7   5662729.46845  22787819.649    22787820.3804   22787833.0604
        -0.000          -0.000
  -1654346.614 9  -1149396.32649  20561162.911    20561163.3634   20561171.0744
        -0.000          -0.000
   6609790.894 9   5084353.98948  21767316.596    21767316.1314   21767325.7844
        -0.000          -0.000
  -7050297.410 9  -5302610.67748  21323365.245    21323365.3014   21323373.9604
        -0.000          -0.000
  -9367826.635 9  -7274341.04746  23222371.205    23222370.6584   23222384.1164
        -0.000          -0.000
   9149347.632 8   7120985.41845  25055158.394    25055158.1454   25055180.1454
        -0.000          -0.000
    794960.144 9    623673.96348  21343901.595    21343900.8954   21343909.8534
        -0.000          -0.000
 99  3 19  0 36  0.0000000  0  7 24 30  5  6 17  8 10               -0.000000024
   7361170.229 7   5719745.76944  22801743.509    22801743.2054   22801754.9944
        -0.000          -0.000
  -1632511.637 9  -1132382.04949  20565318.038    20565318.4664   20565326.0824
        -0.000          -0.000
   6695762.603 9   5151344.86148  21783676.358    21783675.9254   21783685.5704
        -0.000          -0.000
  -7104162.736 9  -5344583.59648  21313115.114    21313115.0774   21313123.6174
        -0.000          -0.000
  -9437585.584 9  -7328698.49846  23209096.706    23209096.0474   23209109.0934
        -0.000          -0.000
   9231396.482 8   7184919.32645  25070772.002    25070771.3854   25070792.9204
        -0.000          -0.000
    838793.875 9    657830.11748  21352243.010    21352242.2804   21352251.1644
        -0.000          -0.000
 99  3 19  0 36 30.0000000  0  7 24 30  5  6 17  8 10               -0.000000039
   7434376.104 7   5776789.31045  22815673.676    22815673.0294   22815685.2974
        -0.000          -0.000
  -1610069.188 9  -1114894.42349  20569588.912    20569589.2794   20569596.8274
        -0.000          -0.000
   6782059.610 9   5218589.21848  21800098.106    21800097.7064   21800107.2464
        -0.000          -0.000
  -7157889.704 9  -5386448.70948  21302891.268    21302891.1364   21302899.6704
        -0.000          -0.000
  -9507140.669 9  -7382897.09246  23195860.951    23195860.0014   23195872.6144
        -0.000          -0.000
   9313276.773 8   7248721.90545  25086354.203    25086353.2674   25086374.2794
        -0.000          -0.000
    883217.998 9    692446.31848  21360696.635    21360695.8884   21360704.7284
        -0.000          -0.000
 99  3 19  0 37  0.0000000  0  7 24 30  5  6 17  8 10               -0.000000057
   7507647.664 7   5833884.01644  22829616.898    22829616.3464   22829628.6254
        -0.000          -0.000
  -1586967.744 9  -1096893.29949  20573985.039    20573985.3364   20573992.9104
        -0.000          -0.000
   6868720.047 9   5286116.78548  21816589.293    21816588.8594   21816598.1544
        -0.000          -0.000
  -7211442.966 9  -5428178.46748  21292700.206    21292700.1814   21292708.7824
        -0.000          -0.000
  -9576463.507 9  -7436914.72346  23182668.598    23182667.9044   23182680.4214
        -0.000          -0.000
   9395030.757 8   7312426.02645  25101911.763    25101911.0284   25101931.7694
        -0.000          -0.000
    928259.230 9    727543.39248  21369267.642    21369266.9444   21369275.7104
        -0.000          -0.000
 99  3 19  0 37 30.0000000  0  7 24 30  5  6 17  8 10               -0.000000083
   7580963.543 7   5891013.18544  22843567.803    22843567.4284   22843580.5854
        -0.000          -0.000
  -1563217.055 9  -1078386.27349  20578504.598    20578504.9384   20578512.6164
        -0.000          -0.000
   6955747.902 9   5353930.63248  21833150.351    21833149.8254   21833159.0794
        -0.000          -0.000
  -7264829.687 9  -5469778.45048  21282541.026    21282541.0434   21282549.4154
        -0.000          -0.000
  -9645555.447 9  -7490752.44046  23169520.151    23169519.7454   23169532.5164
        -0.000          -0.000
   9476653.897 8   7376028.20745  25117443.699    25117443.5564   25117464.2684
        -0.000          -0.000
    973890.609 9    763100.31648  21377950.949    21377950.2534   21377959.0264
        -0.000          -0.000
 99  3 19  0 38  0.0000000  0  7 24 30  5  6 17  8 10               -0.000000095
   7654333.487 7   5948184.52944  22857529.277    22857529.4814   22857542.7874
        -0.000          -0.000
  -1538808.852 9  -1059366.89349  20583149.240    20583149.5624   20583157.3174
        -0.000          -0.000
   7043159.670 9   5422043.62648  21849784.207    21849783.7794   21849793.1744
        -0.000          -0.000
  -7318022.632 9  -5511227.42948  21272418.858    21272418.8314   21272426.9744
        -0.000          -0.000
  -9714393.833 9  -7544392.55446  23156420.374    23156420.0244   23156432.9714
        -0.000          -0.000
   9558153.352 8   7439534.00045  25132951.689    25132952.0084   25132973.4624
        -0.000          -0.000
   1020105.573 9    799111.98348  21386745.299    21386744.6454   21386753.4634
        -0.000          -0.000
 99  3 19  0 38 30.0000000  0  7 24 30  5  6 17  8 10               -0.000000096
   7727748.969 7   6005391.39244  22871499.804    22871500.1984   22871513.4364
        -0.000          -0.000
  -1513763.156 9  -1039850.77549  20587915.240    20587915.6024   20587923.3944
        -0.000          -0.000
   7130936.468 9   5490441.04448  21866487.580    21866487.1764   21866496.6624
        -0.000          -0.000
  -7371015.862 9  -5552520.79848  21262334.580    21262334.4924   21262342.6294
        -0.000          -0.000
  -9782989.049 9  -7597843.20146  23143367.308    23143366.7604   23143379.6064
        -0.000          -0.000
   9639523.700 8   7502939.16645  25148436.203    25148436.3294   25148457.9024
        -0.000          -0.000
   1066879.975 9    835559.56648  21395646.171    21395645.4734   21395654.3694
        -0.000          -0.000
 99  3 19  0 39  0.0000000  0  7 24 30  5  6 17  8 10               -0.000000094
   7801182.332 8   6062612.18245  22885474.421    22885474.5864   22885487.0654
        -0.000          -0.000
  -1488122.690 9  -1019871.19849  20592794.537    20592794.8944   20592802.6374
        -0.000          -0.000
   7219049.991 9   5559100.84648  21883255.116    21883254.6784   21883264.1924
        -0.000          -0.000
  -7423828.223 9  -5593673.23348  21252284.531    21252284.5504   21252292.7034
        -0.000          -0.000
  -9851362.657 9  -7651121.18347  23130356.194    23130355.7584   23130368.4734
        -0.000          -0.000
   9720728.044 8   7566215.04345  25163890.701    25163889.8694   25163910.7694
        -0.000          -0.000
   1114188.429 9    872423.29748  21404648.557    21404647.8814   21404656.8084
        -0.000          -0.000
 99  3 19  0 39 30.0000000  0  7 24 30  5  6 17  8 10               -0.000000085
   7874630.474 8   6119844.50245  22899451.284    22899450.8104   22899463.4544
        -0.000          -0.000
  -1461916.962 9   -999451.15249  20597781.453    20597781.8124   20597789.4744
        -0.000          -0.000
   7307488.966 9   5628014.25948  21900084.511    21900084.1074   21900093.5514
        -0.000          -0.000
  -7476461.236 9  -5634685.90848  21242268.845    21242268.8134   21242276.9374
        -0.000          -0.000
  -9919522.298 9  -7704232.41147  23117385.941    23117385.5174   23117398.0104
        -0.000          -0.000
   9801740.755 8   7629341.52545  25179308.359    25179307.1884   25179327.2024
        -0.000          -0.000
   1162029.160 9    909701.79148  21413752.294    21413751.6184   21413760.5874
        -0.000          -0.000
 99  3 19  0 40  0.0000000  0  7 24 30  5  6 17  8 10               -0.000000090
   7948074.723 8   6177073.78045  22913427.565    22913427.3034   22913439.9244
        -0.000          -0.000
  -1435178.682 9   -978616.13049  20602869.587    20602869.9204   20602877.6644
        -0.000          -0.000
   7396211.674 9   5697148.76848  21916967.879    21916967.4694   21916976.9524
        -0.000          -0.000
  -7528931.423 9  -5675571.69748  21232284.244    21232284.1354   21232292.1414
        -0.000          -0.000
  -9987508.847 9  -7757208.77047  23104448.641    23104448.0034   23104460.4154
        -0.000          -0.000
   9882515.689 8   7692282.72045  25194679.584    25194678.2384   25194697.7384
        -0.000          -0.000
   1210374.586 9    947373.56148  21422952.174    21422951.4894   21422960.4004
        -0.000          -0.000
 99  3 19  0 40 30.0000000  0  7 24 30  5  6 17  8 10               -0.000000097
   8021543.770 8   6234322.32545  22927408.283    22927408.0664   22927420.8744
        -0.000          -0.000
  -1407863.914 9   -957331.89949  20608067.337    20608067.7024   20608075.4724
        -0.000          -0.000
   7485243.320 9   5766524.00148  21933910.025    21933909.6704   21933919.2034
        -0.000          -0.000
  -7581221.671 9  -5716317.27248  21222333.683    21222333.5644   21222341.5404
        -0.000          -0.000
 -10055291.061 9  -7810025.92347  23091549.809    23091549.3534   23091561.7554
        -0.000          -0.000
   9963080.783 8   7755060.47044  25210010.496    25210009.5844   25210028.8434
        -0.000          -0.000
   1259252.671 9    985460.38248  21432253.425    21432252.7404   21432261.5964
        -0.000          -0.000
 99  3 19  0 41  0.0000000  0  7 24 30  5  6 17  8 10               -0.000000100
   8095029.581 8   6291583.91145  22941392.038    22941391.9844   22941404.4854
        -0.000          -0.000
  -1379985.789 9   -935608.68549  20613372.232    20613372.6294   20613380.4814
        -0.000          -0.000
   7574568.475 9   5836127.94648  21950908.378    21950907.8924   21950917.3264
        -0.000          -0.000
  -7633360.554 9  -5756944.91148  21212411.885    21212411.8134   21212419.7494
        -0.000          -0.000
 -10122877.307 9  -7862690.34847  23078688.724    23078688.1864   23078700.3674
        -0.000          -0.000
  10043420.031 8   7817662.26944  25225298.827    25225297.4404   25225317.5544
        -0.000          -0.000
   1308650.203 9   1023951.97148  21441653.512    21441652.8334   21441661.6304
        -0.000          -0.000
 99  3 19  0 41 30.0000000  0  7 24 30  5  6 17  8 10               -0.000000096
   8168532.828 8   6348859.07945  22955378.832    22955379.1024   22955391.6924
        -0.000          -0.000
  -1351551.114 9   -913451.79649  20618783.121    20618783.5134   20618791.4094
        -0.000          -0.000
   7664166.599 9   5905944.60447  21967958.253    21967957.7604   21967967.3794
        -0.000          -0.000
  -7685355.540 9  -5797460.40448  21202517.535    21202517.4334   21202525.3854
        -0.000          -0.000
 -10190268.176 9  -7915202.54347  23065865.066    23065864.3144   23065876.1554
        -0.000          -0.000
  10123544.200 8   7880096.44045  25240546.279    25240544.5254   25240565.7094
        -0.000          -0.000
   1358555.714 9   1062839.38448  21451150.094    21451149.4094   21451158.2904
        -0.000          -0.000
 99  3 19  0 42  0.0000000  0  7 24 30  5  6 17  8 10               -0.000000079
   8242047.863 8   6406143.47945  22969367.975    22969368.4074   22969381.3104
        -0.000          -0.000
  -1322546.701 9   -890850.97349  20624302.503    20624302.9224   20624310.7084
        -0.000          -0.000
   7754036.564 9   5975973.06547  21985059.655    21985059.2604   21985069.2364
        -0.000          -0.000
  -7737212.491 9  -5837868.34848  21192649.399    21192649.2744   21192657.3224
        -0.000          -0.000
 -10257442.275 9  -7967545.82847  23053082.258    23053081.3954   23053093.2364
        -0.000          -0.000
  10203471.069 8   7942376.83945  25255756.151    25255754.8644   25255776.0664
        -0.000          -0.000
   1408959.129 9   1102114.76948  21460741.360    21460740.7194   21460749.7034
        -0.000          -0.000
 99  3 19  0 42 30.0000000  0  7 24 30  5  6 17  8 10               -0.000000052
   8315526.621 8   6463399.59645  22983351.021    22983351.1664   22983363.8614
        -0.000          -0.000
  -1293010.936 9   -867836.09449  20629923.172    20629923.5614   20629931.1454
        -0.000          -0.000
   7844143.367 9   6046186.07047  22002206.516    22002205.9904   22002216.2344
        -0.000          -0.000
  -7788979.328 9  -5878206.08148  21182798.463    21182798.3944   21182806.3904
        -0.000          -0.000
 -10324409.248 9  -8019727.72847  23040338.441    23040337.6074   23040349.7864
        -0.000          -0.000
  10283187.993 8   8004493.67945  25270925.743    25270924.8534   25270946.5994
        -0.000          -0.000
   1459828.808 9   1141753.47548  21470421.448    21470420.7774   21470429.8144
        -0.000          -0.000
 99  3 19  0 43  0.0000000  0  7 24 30  5  6 17  8 10               -0.000000021
   8388949.990 8   6520612.53745  22997323.598    22997323.5934   22997335.9924
        -0.000          -0.000
  -1262963.664 9   -844422.63949  20635641.083    20635641.4734   20635648.9894
        -0.000          -0.000
   7934483.813 9   6116581.15547  22019397.727    22019397.2194   22019407.6504
        -0.000          -0.000
  -7840648.435 9  -5918467.64848  21172966.251    21172966.1504   21172974.0154
        -0.000          -0.000
 -10391171.796 9  -8071750.33147  23027633.654    23027632.8624   23027645.3004
        -0.000          -0.000
  10362689.087 7   8066442.35444  25286054.399    25286053.4104   25286075.5814
        -0.000          -0.000
   1511163.353 9   1181754.41048  21480190.167    21480189.4544   21480198.4444
        -0.000          -0.000
 99  3 19  0 43 30.0000000  0  7 24 30  5  6 17  8 10                0.000000012
   8462330.702 8   6577792.24445  23011288.075    23011287.9564   23011299.6454
        -0.000          -0.000
  -1232373.944 9   -820586.49849  20641462.110    20641462.4834   20641470.0694
        -0.000          -0.000
   8025078.997 9   6187174.73047  22036637.403    22036636.9544   22036647.5784
        -0.000          -0.000
  -7892185.057 9  -5958625.98748  21163159.230    21163159.1104   21163166.9364
        -0.000          -0.000
 -10457711.280 9  -8123599.12347  23014971.291    23014970.6984   23014983.1994
        -0.000          -0.000
  10441983.689 7   8128230.04844  25301143.162    25301142.7354   25301165.2754
        -0.000          -0.000
   1562975.032 9   1222127.13448  21490049.614    21490048.9294   21490057.8884
        -0.000          -0.000
 99  3 19  0 44  0.0000000  0  7 24 30  5  6 17  8 10                0.000000031
   8535673.002 8   6634942.06445  23025244.633    23025244.1264   23025255.8944
        -0.000          -0.000
  -1201225.170 9   -796314.72849  20647389.448    20647389.8304   20647397.4064
        -0.000          -0.000
   8115935.827 9   6257972.17247  22053926.886    22053926.4444   22053937.3354
        -0.000          -0.000
  -7943584.624 9  -5998677.53348  21153378.206    21153378.0514   21153385.8674
        -0.000          -0.000
 -10524038.212 9  -8175282.29747  23002349.467    23002349.0454   23002361.4324
        -0.000          -0.000
  10521058.684 8   8189846.66454  25316190.987    25316189.9264   25316213.5645
        -0.000          -0.000
   1615277.901 9   1262882.61948  21500002.579    21500001.8984   21500010.7454
        -0.000          -0.000
 99  3 19  0 44 30.0000000  0  7 24 30  5  6 17  8 10                0.000000025
   8609004.596 8   6692083.53245  23039199.101    23039198.6044   23039210.1474
        -0.000          -0.000
  -1169491.512 9   -771587.21149  20653428.110    20653428.5194   20653436.0284
        -0.000          -0.000
   8207079.590 9   6328993.20047  22071270.966    22071270.5574   22071281.6174
        -0.000          -0.000
  -7994811.574 9  -6038594.57748  21143629.887    21143629.8204   21143637.5954
        -0.000          -0.000
 -10590163.664 9  -8226808.47847  22989766.293    22989765.8564   22989778.0664
        -0.000          -0.000
  10599920.431 8   8251297.29444  25331198.183    25331197.8344   25331219.6674
        -0.000          -0.000
   1668108.998 9   1304049.71348  21510055.990    21510055.2694   21510064.1844
        -0.000          -0.000
 99  3 19  0 45  0.0000000  0  7 24 30  5  6 17  8 10                0.000000004
   8682382.266 8   6749260.89545  23053162.571    23053162.1974   23053173.2874
        -0.000          -0.000
  -1137129.133 9   -746369.78449  20659586.537    20659586.9154   20659594.3794
        -0.000          -0.000
   8298558.608 9   6400275.46947  22088678.845    22088678.4364   22088689.5344
        -0.000          -0.000
  -8045806.036 9  -6078330.46348  21133925.970    21133925.9274   21133933.6134
        -0.000          -0.000
 -10656077.880 9  -8278170.03947  22977223.236    22977222.7504   22977234.9344
        -0.000          -0.000
  10678588.938 7   8312597.21744  25346168.398    25346168.1654   25346189.6144
        -0.000          -0.000
   1721499.758 9   1345652.92248  21520215.775    21520215.0554   21520224.1364
        -0.000          -0.000
 99  3 19  0 45 30.0000000  0  7 24 30  5  6 17  8 10               -0.000000031
   8755824.174 8   6806488.35845  23067138.607    23067138.3014   23067148.4434
        -0.000          -0.000
  -1104137.321 9   -720661.89149  20665864.738    20665865.0694   20665872.5144
        -0.000          -0.000
   8390366.884 9   6471814.28747  22106149.355    22106148.9324   22106160.0384
        -0.000          -0.000
  -8096566.899 9  -6117884.32948  21124266.480    21124266.3554   21124274.0224
        -0.000          -0.000
 -10721794.815 9  -8329377.89247  22964717.562    22964717.0684   22964729.3534
        -0.000          -0.000
  10757054.741 8   8373739.19144  25361099.687    25361099.7074   25361121.8774
        -0.000          -0.000
   1775445.346 9   1387688.44448  21530481.110    21530480.4294   21530489.6354
        -0.000          -0.000
 99  3 19  0 46  0.0000000  0  7 24 30  5  6 17  8 10               -0.000000052
   8829365.354 8   6863793.16445  23081133.185    23081132.8754   23081142.6084
        -0.000          -0.000
  -1070492.002 9   -694444.76149  20672267.132    20672267.4974   20672274.9804
        -0.000          -0.000
   8482541.124 9   6543638.27247  22123689.497    22123689.1794   22123700.1084
        -0.000          -0.000
  -8147059.941 9  -6157229.50948  21114657.851    21114657.7774   21114665.3034
        -0.000          -0.000
 -10787279.195 9  -8380404.53647  22952256.052    22952255.6344   22952267.9854
        -0.000          -0.000
  10835358.290 8   8434754.67744  25376000.756    25375999.4124   25376022.6524
        -0.000          -0.000
   1829985.270 9   1430187.08648  21540859.696    21540859.0534   21540868.1954
        -0.000          -0.000
 99  3 19  0 46 30.0000000  0  7 24 30  5  6 17  8 10               -0.000000065
   8902962.715 8   6921141.78045  23095138.006    23095137.8374   23095147.5764
        -0.000          -0.000
  -1036247.273 9   -667760.56149  20678783.721    20678784.0764   20678791.5234
        -0.000          -0.000
   8575044.793 9   6615718.97147  22141292.464    22141292.0734   22141302.8454
        -0.000          -0.000
  -8197312.466 9  -6196387.26248  21105095.171    21105095.0274   21105102.3924
        -0.000          -0.000
 -10852551.820 9  -8431266.17547  22939835.227    22939834.6734   22939846.8434
        -0.000          -0.000
  10913454.011 8   8495608.27644  25390862.316    25390860.4034   25390883.6934
        -0.000          -0.000
   1885053.385 9   1473097.29648  21551338.967    21551338.3684   21551347.1964
        -0.000          -0.000
 99  3 19  0 47  0.0000000  0  7 24 30  5  6 17  8 10               -0.000000059
   8976579.374 8   6978505.34945  23109146.814    23109146.6414   23109156.4744
        -0.000          -0.000
  -1001447.047 9   -640643.49849  20685406.016    20685406.3214   20685413.7344
        -0.000          -0.000
   8667838.683 9   6688025.82747  22158950.671    22158950.2184   22158960.7604
        -0.000          -0.000
  -8247366.020 9  -6235389.98348  21095570.143    21095570.0514   21095577.4474
        -0.000          -0.000
 -10917615.615 9  -8481965.08047  22927453.969    22927453.3454   22927465.0904
        -0.000          -0.000
  10991316.201 7   8556279.95644  25405679.764    25405677.8234   25405700.5514
        -0.000          -0.000
   1940599.938 9   1516380.31248  21561909.473    21561908.8004   21561917.3004
        -0.000          -0.000
 99  3 19  0 47 30.0000000  0  7 24 30  5  6 17  8 10               -0.000000034
   9050188.812 8   7035863.31145  23123154.495    23123154.4434   23123164.1184
        -0.000          -0.000
   -966104.005 9   -613103.47649  20692131.632    20692131.8954   20692139.3784
        -0.000          -0.000
   8760887.566 9   6760531.37347  22176657.449    22176656.9494   22176667.4054
        -0.000          -0.000
  -8297244.623 9  -6274256.38148  21086078.489    21086078.4224   21086085.7934
        -0.000          -0.000
 -10982455.784 9  -8532489.73047  22915115.191    22915114.5474   22915125.9174
        -0.000          -0.000
  11068931.142 8   8616758.90744  25420450.223    25420448.3484   25420469.7814
        -0.000          -0.000
   1996621.972 9   1560033.83648  21572570.314    21572569.6304   21572577.9434
        -0.000          -0.000
 99  3 19  0 48  0.0000000  0  7 24 30  5  6 17  8 10               -0.000000014
   9123732.630 8   7093170.17545  23137149.614    23137149.3754   23137159.0324
        -0.000          -0.000
   -930262.723 9   -585175.21649  20698951.960    20698952.2344   20698959.7524
        -0.000          -0.000
   8854142.047 9   6833197.11247  22194403.289    22194402.8644   22194413.2814
        -0.000          -0.000
  -8347001.430 9  -6313027.86948  21076609.978    21076609.9074   21076617.4264
        -0.000          -0.000
 -11047098.242 9  -8582860.31047  22902813.927    22902813.3624   22902824.7554
        -0.000          -0.000
  11146269.966 8   8677022.73144  25435166.819    25435165.8414   25435187.4584
        -0.000          -0.000
   2053085.124 9   1604031.10248  21583314.943    21583314.2324   21583322.4994
        -0.000          -0.000
 99  3 19  0 48 30.0000000  0  7 24 30  5  6 17  8 10                0.000000009
   9197229.277 8   7150440.28745  23151135.127    23151134.9644   23151145.3354
        -0.000          -0.000
   -893900.230 9   -556840.82149  20705871.451    20705871.7834   20705879.3114
        -0.000          -0.000
   8947616.642 9   6906034.37147  22212191.154    22212190.7604   22212201.0464
        -0.000          -0.000
  -8396613.626 9  -6351686.68548  21067169.010    21067168.9424   21067176.6364
        -0.000          -0.000
 -11111522.955 9  -8633061.23347  22890554.308    22890553.7294   22890565.1664
        -0.000          -0.000
  11223363.116 7   8737095.07454  25449836.949    25449836.2044   25449858.2425
        -0.000          -0.000
   2110009.837 9   1648388.00448  21594147.358    21594146.6134   21594155.0634
        -0.000          -0.000
 99  3 19  0 49  0.0000000  0  8 24 30  5  6 17  8 10 23             0.000000019
   9270681.135 8   7207675.49745  23165112.294    23165112.1674   23165122.9604
        -0.000          -0.000
   -857004.791 9   -528091.13749  20712892.442    20712892.7834   20712900.3124
        -0.000          -0.000
   9041309.203 9   6979041.47347  22230020.552    22230020.1264   22230030.2064
        -0.000          -0.000
  -8446085.440 9  -6390236.10648  21057754.862    21057754.7404   21057762.4664
        -0.000          -0.000
 -11175744.421 9  -8683103.78147  22878333.373    22878332.7714   22878344.1674
        -0.000          -0.000
  11300225.249 7   8796987.46654  25464463.184    25464462.1744          0.0005
        -0.000          -0.000
   2167418.979 9   1693122.38348  21605071.924    21605071.2204   21605079.7904
        -0.000          -0.000
   -454533.367 8   -331448.65352         0.000           0.0004          0.0005
        -0.000          -0.000
 99  3 19  0 49 30.0000000  0  8 24 30  5  6 17  8 10 23             0.000000015
   9344114.069 8   7264895.89645  23179086.231    23179086.1604   23179096.8374
        -0.000          -0.000
   -819547.870 9   -498903.93649  20720020.291    20720020.6484   20720028.1784
        -0.000          -0.000
   9135250.703 9   7052242.55247  22247897.274    22247896.8114   22247906.6804
        -0.000          -0.000
  -8495380.415 9  -6428647.71848  21048374.310    21048374.2044   21048381.8874
        -0.000          -0.000
 -11239755.887 9  -8732982.67147  22866152.252    22866151.6034   22866163.0034
        -0.000          -0.000
  11376878.701 7   8856717.20554  25479049.014    25479047.8354          0.0005
        -0.000          -0.000
   2225343.763 9   1738258.57148  21616094.615    21616093.8704   21616102.6624
        -0.000          -0.000
   -561573.470 8   -126561.39442         0.000           0.0004          0.0004
        -0.000          -0.000
 99  3 19  0 50  0.0000000  0  8 24 30  5  6 17  8 10 23             0.000000008
   9417553.848 8   7322121.65045  23193061.817    23193061.4684   23193071.6884
        -0.000          -0.000
   -781508.534 9   -469262.90549  20727258.958    20727259.2874   20727266.8744
        -0.000          -0.000
   9229488.501 9   7125674.50947  22265830.200    22265829.7374   22265839.4924
        -0.000          -0.000
  -8544467.979 9  -6466897.71248  21039033.153    21039033.0614   21039040.7534
        -0.000          -0.000
 -11303552.942 9  -8782694.48647  22854011.856    22854011.2084   22854022.6304
        -0.000          -0.000
  11453352.139 7   8916306.70154  25493600.898    25493600.3774          0.0005
        -0.000          -0.000
   2283791.581 9   1783802.32648  21627216.744    21627216.0004   21627224.9804
        -0.000          -0.000
   -668559.605 8   -209927.61452         0.000           0.0004          0.0005
        -0.000          -0.000
 99  3 19  0 50 30.0000000  0  8 24 30  5  6 17  8 10 23            -0.000000020
   9490987.207 8   7379342.43345  23207035.263    23207035.1644   23207045.1734
        -0.000          -0.000
   -742907.105 9   -439183.87849  20734604.503    20734604.8724   20734612.4444
        -0.000          -0.000
   9324012.165 9   7199329.21247  22283817.432    22283817.0454   22283826.8344
        -0.000          -0.000
  -8593349.962 9  -6504987.52248  21029731.071    21029731.0304   21029738.7704
        -0.000          -0.000
 -11367164.947 9  -8832262.11847  22841906.614    22841906.0884   22841917.6344
        -0.000          -0.000
  11529598.815 7   8975719.58344  25508109.574    25508110.1844   25508134.4234
        -0.000          -0.000
   2342726.107 9   1829725.32248  21638431.463    21638430.7364   21638439.8194
        -0.000          -0.000
   -775517.852 8   -293271.85052         0.000           0.0004          0.0005
        -0.000          -0.000
 99  3 19  0 51  0.0000000  0  8 24 30  5  6 17  8 10 23            -0.000000034
   9564462.205 8   7436595.69745  23221016.904    23221016.8834   23221027.0624
        -0.000          -0.000
   -703703.724 9   -408635.79949  20742064.630    20742064.9774   20742072.5174
        -0.000          -0.000
   9418867.322 9   7273242.23647  22301867.773    22301867.3494   22301877.4044
        -0.000          -0.000
  -8641980.305 9  -6542881.24449  21020477.105    21020477.0964   21020484.6954
        -0.000          -0.000
 -11430550.828 9  -8881653.57847  22829844.597    22829844.0184   22829855.6264
        -0.000          -0.000
  11605638.484 7   9034971.14044  25522579.652    25522579.7944   25522604.6104
        -0.000          -0.000
   2402182.954 9   1876055.32948  21649745.571    21649744.8644   21649754.0284
        -0.000          -0.000
   -882412.51518   -376565.56645         0.000           0.0005   24829662.0494
        -0.000          -0.000
 99  3 19  0 51 30.0000000  0  8 24 30  5  6 17  8 10 23            -0.000000041
   9637949.686 8   7493858.64145  23235001.199    23235001.5434   23235011.8884
        -0.000          -0.000
   -663930.473 9   -377643.66849  20749633.189    20749633.5584   20749641.1644
        -0.000          -0.000
   9514020.352 9   7347387.38347  22319974.579    22319974.1744   22319984.6884
        -0.000          -0.000
  -8690382.973 9  -6580597.54449  21011266.569    21011266.5134   21011273.9064
        -0.000          -0.000
 -11493725.034 9  -8930880.09147  22817822.714    22817822.2214   22817833.6564
        -0.000          -0.000
  11681432.761 7   9094031.41654  25537003.375    25537003.9374          0.0005
        -0.000          -0.000
   2462117.503 9   1922757.56648  21661150.745    21661150.0684   21661159.2324
        -0.000          -0.000
   -989254.779 9   -459818.68445  24809312.448    24809313.0204   24809331.0744
        -0.000          -0.000
 99  3 19  0 52  0.0000000  0  8 24 30  5  6 17  8 10 23            -0.000000052
   9711428.807 8   7551115.07145  23248983.927    23248983.8744   23248994.6514
        -0.000          -0.000
   -623598.578 9   -346216.23549  20757308.055    20757308.4644   20757316.1294
        -0.000          -0.000
   9609437.169 9   7421738.07947  22338131.534    22338131.2544   22338142.0624
        -0.000          -0.000
  -8738577.321 9  -6618151.52449  21002095.449    21002095.3924   21002102.7244
        -0.000          -0.000
 -11556696.654 9  -8979948.74847  22805839.461    22805838.9874   22805850.3404
        -0.000          -0.000
  11756957.72717   9152881.78654         0.000           0.0005          0.0005
        -0.000          -0.000
   2522509.274 9   1969816.09948  21672643.011    21672642.3214   21672651.4594
        -0.000          -0.000
  -1096074.137 9   -543054.01945  24788985.690    24788985.3634   24789004.0654
        -0.000          -0.000
 99  3 19  0 52 30.0000000  0  8 24 30  5  6 17  8 10 23            -0.000000068
   9784910.391 8   7608373.41245  23262966.696    23262966.9854   23262978.0124
        -0.000          -0.000
   -582697.077 9   -314344.94349  20765091.268    20765091.6964   20765099.5294
        -0.000          -0.000
   9705093.871 9   7496275.67047  22356334.518    22356334.2214   22356344.9784
        -0.000          -0.000
  -8786556.701 9  -6655537.99349  20992965.122    20992965.1134   20992972.4824
        -0.000          -0.000
 -11619451.299 9  -9028848.32947  22793897.392    22793896.9144   22793908.5284
        -0.000          -0.000
  11832222.67617   9211529.57954         0.000           0.0005          0.0005
        -0.000          -0.000
   2583377.597 9   2017245.94948  21684225.934    21684225.2234   21684234.3294
        -0.000          -0.000
  -1202854.108 8   -626258.67245  24768666.288    24768665.8214   24768684.3204
        -0.000          -0.000
 99  3 19  0 53  0.0000000  0  8 24 30  5  6 17  8 10 23            -0.000000071
   9858414.520 8   7665649.34445  23276953.981    23276954.2704   23276965.0774
        -0.000          -0.000
   -541198.485 9   -282008.39449  20772988.140    20772988.6194   20772996.5404
        -0.000          -0.000
   9800990.685 9   7571000.36247  22374583.452    22374583.0784   22374593.5484
        -0.000          -0.000
  -8834304.346 9  -6692743.88448  20983878.912    20983878.8834   20983886.3124
        -0.000          -0.000
 -11681958.261 9  -9077554.90947  22782002.543    22782002.0194   22782013.8494
        -0.000          -0.000
  11907269.51316   9270007.48654         0.000           0.0005          0.0005
        -0.000          -0.000
   2644745.237 9   2065064.88348  21695903.851    21695903.1994   21695912.1474
        -0.000          -0.000
  -1309568.359 8   -709412.12845  24748358.756    24748357.9204   24748376.8034
        -0.000          -0.000
 99  3 19  0 53 30.0000000  0  7 24 30  5  6 17 10 23               -0.000000070
   9931914.728 8   7722922.22645  23290941.094    23290940.8364   23290951.6684
        -0.000          -0.000
   -499125.774 9   -249224.48149  20780994.395    20780994.8174   20781002.7864
        -0.000          -0.000
   9897102.562 9   7645892.63947  22392873.293    22392872.8264   22392883.0154
        -0.000          -0.000
  -8881840.657 9  -6729785.11148  20974832.780    20974832.7964   20974840.3734
        -0.000          -0.000
 -11744225.594 9  -9126074.78447  22770153.372    22770152.8314   22770164.4334
        -0.000          -0.000
   2706599.052 9   2113262.65848  21707674.390    21707673.7004   21707682.3644
        -0.000          -0.000
  -1416219.414 8   -792516.33845  24728062.786    24728061.6424   24728080.9134
        -0.000          -0.000
 99  3 19  0 54  0.0000000  0  7 24 30  5  6 17 10 23               -0.000000068
  10005407.012 8   7780188.90744  23304926.970    23304927.1754   23304935.9304
        -0.000          -0.000
   -456490.904 9   -216002.52649  20789107.638    20789107.9904   20789116.0024
        -0.000          -0.000
   9993419.045 9   7720944.35147  22411201.881    22411201.4674   22411211.4874
        -0.000          -0.000
  -8929178.796 9  -6766671.91948  20965824.602    20965824.6614   20965832.2604
        -0.000          -0.000
 -11806263.531 9  -9174415.89247  22758347.772    22758347.3944   22758358.6554
        -0.000          -0.000
   2768932.913 9   2161834.49948  21719536.057    21719535.3394   21719543.8804
        -0.000          -0.000
  -1522824.744 7   -875584.95645  24707774.928    24707774.1674   24707793.5064
        -0.000          -0.000
 99  3 19  0 54 30.0000000  0  7 24 30  5  6 17 10 23               -0.000000052
  10078902.51517   7837458.10444  23318912.666    23318912.8455   23318921.6004
        -0.000          -0.000
   -413292.137 9   -182341.15349  20797328.039    20797328.4094   20797336.4474
        -0.000          -0.000
  10089959.246 9   7796170.37947  22429573.046    22429572.5604   22429582.5044
        -0.000          -0.000
  -8976307.305 9  -6803395.36949  20956856.491    20956856.4004   20956864.0084
        -0.000          -0.000
 -11868061.536 9  -9222570.05847  22746588.040    22746587.6654   22746598.5784
        -0.000          -0.000
   2831753.212 9   2210785.36248  21731490.333    21731489.6234   21731498.1454
        -0.000          -0.000
  -1629359.075 8   -958598.28145  24687500.538    24687500.3404   24687520.0834
        -0.000          -0.000
 99  3 19  0 55  0.0000000  0  7 24 30  5  6 17 10 23               -0.000000024
  10152367.63617   7894703.58154  23332892.316    23332892.0645          0.0005
        -0.000          -0.000
   -369568.231 9   -148270.58449  20805648.357    20805648.7894   20805656.7414
        -0.000          -0.000
  10186719.823 9   7871568.13847  22447986.090    22447985.6234   22447995.5074
        -0.000          -0.000
  -9023255.664 9  -6839978.44248  20947922.417    20947922.3154   20947930.0014
        -0.000          -0.000
 -11929639.441 9  -9270552.70547  22734870.442    22734869.9174   22734880.4144
        -0.000          -0.000
   2895033.149 9   2260094.39148  21743532.242    21743531.5164   21743540.0274
        -0.000          -0.000
  -1735839.790 8  -1041569.79445  24667237.441    24667237.3094   24667256.5004
        -0.000          -0.000
 99  3 19  0 55 30.0000000  0  6 30  5  6 17 10 23                  -0.000000116
   -325307.943 9   -113782.05749  20814070.913    20814071.2984   20814079.0994
        -0.000          -0.000
  10283730.865 9   7947161.07047  22466446.744    22466446.2334   22466456.2794
        -0.000          -0.000
  -9070001.853 9  -6876403.96948  20939026.930    20939026.7844   20939034.5034
        -0.000          -0.000
 -11990991.340 9  -9318359.25747  22723195.719    22723195.0804   22723205.2754
        -0.000          -0.000
   2958801.508 9   2309784.01548  21755667.113    21755666.3654   21755674.9034
        -0.000          -0.000
  -1842235.958 8  -1124475.36745  24646990.913    24646990.5444   24647009.4574
        -0.000          -0.000
 99  3 19  0 56  0.0000000  0  6 30  5  6 17 10 23                  -0.000000044
   -280539.931 9    -78897.90149  20822590.208    20822590.5504   20822598.0594
        -0.000          -0.000
  10380967.644 9   8022929.90647  22484950.109    22484949.6944   22484960.1124
        -0.000          -0.000
  -9116558.935 9  -6912682.17049  20930167.253    20930167.1274   20930174.9474
        -0.000          -0.000
 -12052158.656 9  -9366021.96547  22711555.998    22711555.2284   22711565.2844
        -0.000          -0.000
   3023025.411 9   2359828.60948  21767888.478    21767887.7654   21767896.4234
        -0.000          -0.000
  -1948581.922 8  -1207341.83345  24626753.779    24626753.2044   24626771.7724
        -0.000          -0.000
 99  3 19  0 56 30.0000000  0  6 30  5  6 17 10 23                  -0.000000011
   -235325.772 9    -43666.10149  20831194.210    20831194.4944   20831202.0494
        -0.000          -0.000
  10478373.674 9   8098830.61347  22503485.672    22503485.2614   22503496.0924
        -0.000          -0.000
  -9162966.730 9  -6948844.03649  20921336.044    20921335.9914   20921343.7524
        -0.000          -0.000
 -12113207.794 9  -9413592.59547  22699938.322    22699937.6614   22699947.8424
        -0.000          -0.000
   3087648.277 9   2410184.07848  21780185.783    21780185.1014   21780193.7184
        -0.000          -0.000
  -2054927.147 8  -1290207.70445  24606516.732    24606516.2644   24606534.5654
        -0.000          -0.000
 99  3 19  0 57  0.0000000  0  6 30  5  6 17 10 23                   0.000000005
   -189589.407 9     -8027.38049  20839897.304    20839897.6594   20839905.3884
        -0.000          -0.000
  10576016.568 9   8174915.89447  22522066.456    22522065.9884   22522077.1284
        -0.000          -0.000
  -9209145.485 9  -6984827.41649  20912548.555    20912548.4444   20912556.0374
        -0.000          -0.000
 -12174061.657 9  -9461011.05047  22688358.009    22688357.3474   22688367.6454
        -0.000          -0.000
   3152742.294 9   2460906.66848  21792572.744    21792572.0474   21792580.6544
        -0.000          -0.000
  -2161187.962 8  -1373007.79645  24586295.541    24586295.3334   24586313.8074
        -0.000          -0.000
 99  3 19  0 57 30.0000000  0  6 30  5  6 17 10 23                  -0.000000001
   -143355.745 9     27998.83349  20848695.136    20848695.5684   20848703.4714
        -0.000          -0.000
  10673859.350 9   8251156.92847  22540685.252    22540684.7994   22540696.0804
        -0.000          -0.000
  -9255113.871 9  -7020646.87949  20903801.040    20903800.9404   20903808.4694
        -0.000          -0.000
 -12234758.013 9  -9508306.77147  22676807.553    22676806.8444   22676817.3764
        -0.000          -0.000
   3218253.823 9   2511954.58948  21805039.173    21805038.4964   21805047.0044
        -0.000          -0.000
  -2267402.453 8  -1455771.78245  24566082.987    24566083.0764   24566101.8844
        -0.000          -0.000
 99  3 19  0 58  0.0000000  0  6 30  5  6 17 10 23                  -0.000000014
    -96581.912 9     64445.95749  20857596.000    20857596.4464   20857604.3364
        -0.000          -0.000
  10771936.086 9   8327580.26147  22559348.695    22559348.2584   22559359.4804
        -0.000          -0.000
  -9300845.626 9  -7056281.95649  20895098.519    20895098.4244   20895105.9704
        -0.000          -0.000
 -12295256.227 9  -9555448.10047  22665294.685    22665294.1844   22665304.8964
        -0.000          -0.000
   3284212.891 9   2563351.25448  21817590.849    21817590.1864   21817598.5994
        -0.000          -0.000
  -2373533.065 8  -1538470.42745  24545886.424    24545886.5484   24545905.7174
        -0.000          -0.000
 99  3 19  0 58 30.0000000  0  6 30  5  6 17 10 23                  -0.000000018
    -49242.812 9    101333.55249  20866604.415    20866604.8604   20866612.6284
        -0.000          -0.000
  10870247.500 9   8404186.45147  22578057.015    22578056.5464   22578067.5744
        -0.000          -0.000
  -9346345.087 9  -7091736.02649  20886440.198    20886440.1284   20886447.7294
        -0.000          -0.000
 -12355529.428 9  -9602414.09547  22653824.950    22653824.4744   22653835.1284
        -0.000          -0.000
   3350632.155 9   2615106.51648  21830230.038    21830229.3574   21830237.7334
        -0.000          -0.000
  -2479552.745 8  -1621082.62045  24525711.134    24525711.2344   24525730.8134
        -0.000          -0.000
 99  3 19  0 59  0.0000000  0  6 30  5  6 17 10 23                  -0.000000017
     -1361.055 9    138644.00549  20875716.060    20875716.5024   20875724.1704
        -0.000          -0.000
  10968775.990 9   8480961.78647  22596806.725    22596806.2654   22596817.0884
        -0.000          -0.000
  -9391644.475 9  -7127034.19449  20877819.936    20877819.8764   20877827.5124
        -0.000          -0.000
 -12415590.322 9  -9649214.66047  22642395.775    22642395.2464   22642405.7874
        -0.000          -0.000
   3417494.720 9   2667207.20948  21842953.600    21842952.9284   21842961.2054
        -0.000          -0.000
  -2585474.635 8  -1703618.62145  24505554.449    24505554.4294   24505574.2264
        -0.000          -0.000
 99  3 19  0 59 30.0000000  0  6 30  5  6 17 10 23                  -0.000000009
     47078.548 9    176389.13649  20884933.893    20884934.3014   20884941.9764
        -0.000          -0.000
  11067531.924 9   8557914.36347  22615599.623    22615599.0374   22615609.8824
        -0.000          -0.000
  -9436727.466 9  -7162163.75449  20869240.806    20869240.8054   20869248.4394
        -0.000          -0.000
 -12475431.621 9  -9695844.10847  22631008.363    22631007.9184   22631018.2714
        -0.000          -0.000
   3484812.296 9   2719662.45448  21855763.812    21855763.1104   21855771.3364
        -0.000          -0.000
  -2691286.510 8  -1786068.86645  24485418.558    24485418.4194   24485438.5354
        -0.000          -0.000
 99  3 19  1  0  0.0000000  0  6 30  5  6 17 10 23                   0.000000006
     96046.322 9    214545.82349  20894252.237    20894252.6004   20894260.2834
        -0.000          -0.000
  11166477.273 9   8635014.53747  22634428.171    22634427.7024   22634438.7494
        -0.000          -0.000
  -9481619.062 9  -7197144.15749  20860698.198    20860698.1794   20860705.7044
        -0.000          -0.000
 -12535068.063 9  -9742313.92747  22619660.097    22619659.6254   22619669.7844
        -0.000          -0.000
   3552573.073 9   2772463.05048  21868658.226    21868657.5244   21868665.8394
        -0.000          -0.000
  -2797008.390 8  -1868449.01345  24465299.763    24465299.8064   24465319.5164
        -0.000          -0.000
 99  3 19  1  0 30.0000000  0  6 30  5  6 17 10 23                   0.000000022
    145510.274 9    253089.15049  20903664.962    20903665.2844   20903672.9554
        -0.000          -0.000
  11265591.931 9   8712246.63547  22653288.889    22653288.4654   22653299.7314
        -0.000          -0.000
  -9526315.526 9  -7231972.51849  20852192.670    20852192.7074   20852200.1574
        -0.000          -0.000
 -12594497.515 9  -9788622.45547  22608351.397    22608350.7044   22608360.6664
        -0.000          -0.000
   3620749.096 9   2825587.21148  21881631.720    21881631.0224   21881639.4294
        -0.000          -0.000
  -2902663.610 8  -1950777.24245  24445193.669    24445193.9654   24445213.2244
        -0.000          -0.000
 99  3 19  1  1  0.0000000  0  6 30  5  6 17 10 23                   0.000000041
    195477.747 9    292024.82348  20913173.494    20913173.7914   20913181.3944
        -0.000          -0.000
  11364891.623 9   8789622.89747  22672184.949    22672184.5534   22672195.9404
        -0.000          -0.000
  -9570774.466 9  -7266615.79349  20843732.432    20843732.4144   20843739.8994
        -0.000          -0.000
 -12653721.351 9  -9834770.75847  22597081.214    22597080.4984   22597090.5524
        -0.000          -0.000
   3689352.393 9   2879044.32848  21894686.605    21894685.7954   21894694.2924
        -0.000          -0.000
  -3008245.373 8  -2033048.21245  24425102.151    24425102.2144   24425121.1374
        -0.000          -0.000
 99  3 19  1  1 30.0000000  0  6 30  5  6 17 10 23                   0.000000047
    245962.165 9    331363.31548  20922780.334    20922780.6104   20922788.2234
        -0.000          -0.000
  11464377.977 9   8867144.59247  22691116.750    22691116.2674   22691127.7754
        -0.000          -0.000
  -9614969.799 9  -7301053.65849  20835322.318    20835322.2574   20835329.8834
        -0.000          -0.000
 -12712724.746 9  -9880747.29147  22585852.740    22585852.2004   22585862.4804
        -0.000          -0.000
   3758378.385 9   2932830.82548  21907821.721    21907820.9414   21907829.6194
        -0.000          -0.000
  -3113756.186 8  -2115263.89045  24405024.116    24405023.7844   24405042.3744
        -0.000          -0.000
 99  3 19  1  2  0.0000000  0  6 30  5  6 17 10 23                   0.000000041
    296961.885 9    371103.32749  20932485.184    20932485.5024   20932493.2704
        -0.000          -0.000
  11564047.370 9   8944808.92947  22710083.245    22710082.7874   22710094.5154
        -0.000          -0.000
  -9658892.246 9  -7335278.88849  20826964.135    20826964.0534   20826971.7194
        -0.000          -0.000
 -12771503.647 9  -9926548.88947  22574667.170    22574666.6744   22574677.2054
        -0.000          -0.000
   3827833.535 9   2986951.71248  21921038.626    21921037.8214   21921046.6064
        -0.000          -0.000
  -3219203.975 8  -2197430.45145  24384957.977    24384957.4764   24384975.7004
        -0.000          -0.000
 99  3 19  1  2 30.0000000  0  6 30  5  6 17 10 23                   0.000000017
    348512.601 9    411272.70549  20942294.998    20942295.3314   20942303.1854
        -0.000          -0.000
  11663921.730 9   9022632.99147  22729088.697    22729088.3004   22729100.2254
        -0.000          -0.000
  -9702521.808 9  -7369275.89949  20818661.549    20818661.4914   20818669.1584
        -0.000          -0.000
 -12830053.798 9  -9972172.23447  22563525.483    22563524.9574   22563535.5224
        -0.000          -0.000
   3897729.769 9   3041416.29248  21934339.482    21934338.6434   21934347.4774
        -0.000          -0.000
  -3324560.750 8  -2279526.11845  24364908.946    24364908.2264   24364926.6934
        -0.000          -0.000
 99  3 19  1  3  0.0000000  0  6 30  5  6 17 10 23                  -0.000000008
    400664.963 9    451910.89849  20952219.461    20952219.7404   20952227.4934
        -0.000          -0.000
  11764036.075 9   9100644.05047  22748140.046    22748139.5604   22748151.5884
        -0.000          -0.000
  -9745824.333 9  -7403018.07149  20810421.137    20810421.1654   20810428.8734
        -0.000          -0.000
 -12888354.089 9 -10017600.89147  22552431.411    22552430.7274   22552441.1804
        -0.000          -0.000
   3968113.920 9   3096261.07848  21947733.054    21947732.3214   21947741.1494
        -0.000          -0.000
  -3429778.919 8  -2361513.76845  24344885.390    24344885.1694   24344903.9744
        -0.000          -0.000
 99  3 19  1  3 30.0000000  0  6 30  5  6 17 10 23                  -0.000000017
    453403.878 9    493006.14049  20962255.499    20962255.7024   20962263.3974
        -0.000          -0.000
  11864390.130 9   9178841.91047  22767236.947    22767236.4404   22767248.2504
        -0.000          -0.000
  -9788823.658 9  -7436523.98449  20802238.670    20802238.6304   20802246.3424
        -0.000          -0.000
 -12946387.998 9 -10062821.98347  22541387.646    22541387.0534   22541397.4654
        -0.000          -0.000
   4038979.172 9   3151480.73048  21961218.246    21961217.5164   21961226.2854
        -0.000          -0.000
  -3534852.794 8  -2443389.01845  24324889.409    24324889.3314   24324909.0314
        -0.000          -0.000
 99  3 19  1  4  0.0000000  0  6 30  5  6 17 10 23                  -0.000000014
    506701.272 9    534536.56048  20972397.613    20972397.8514   20972405.5144
        -0.000          -0.000
  11964954.987 9   9257204.02447  22786373.894    22786373.4324   22786384.8254
        -0.000          -0.000
  -9831573.482 9  -7469835.48949  20794103.539    20794103.5224   20794111.2644
        -0.000          -0.000
 -13004194.770 9 -10107866.08747  22530386.876    22530386.4884   22530397.0394
        -0.000          -0.000
   4110304.904 9   3207059.23448  21974790.949    21974790.2594   21974799.0584
        -0.000          -0.000
  -3639793.754 8  -2525160.71745  24304918.799    24304918.9674   24304939.3824
        -0.000          -0.000
 99  3 19  1  4 30.0000000  0  6 30  5  6 17 10 23                   0.000000003
    560533.900 9    576484.04248  20982641.582    20982641.7704   20982649.5274
        -0.000          -0.000
  12065727.930 9   9335728.27947  22805550.593    22805549.9564   22805560.9914
        -0.000          -0.000
  -9874103.426 9  -7502975.64549  20786010.403    20786010.4244   20786018.0404
        -0.000          -0.000
 -13061789.113 9 -10152744.64347  22519426.963    22519426.4964   22519437.2084
        -0.000          -0.000
   4182072.448 9   3262981.99248  21988447.773    21988447.0754   21988456.0074
        -0.000          -0.000
  -3744603.569 8  -2606830.21245  24284973.162    24284973.3454   24284994.6764
        -0.000          -0.000
 99  3 19  1  5  0.0000000  0  6 30  5  6 17 10 23                   0.000000028
    614846.914 9    618805.86148  20992976.810    20992977.0854   20992984.8794
        -0.000          -0.000
  12166673.001 9   9414386.67346  22824759.858    22824759.1584   22824769.9374
        -0.000          -0.000
  -9916449.409 9  -7535972.45949  20777952.428    20777952.3534   20777959.9174
        -0.000          -0.000
 -13119193.103 9 -10197474.86747  22508503.287    22508502.7184   22508513.4814
        -0.000          -0.000
   4254254.800 9   3319227.98147  22002183.610    22002182.9264   22002191.9374
        -0.000          -0.000
  -3849322.779 8  -2688429.14345  24265044.641    24265045.0904   24265066.9044
        -0.000          -0.000
 99  3 19  1  5 30.0000000  0  6 30  5  6 17 10 23                   0.000000048
    669615.951 9    661483.01748  21003398.954    21003399.2394   21003407.1004
        -0.000          -0.000
  12267771.884 9   9493164.90046  22843998.248    22843997.6504   22844008.3874
        -0.000          -0.000
  -9958647.604 9  -7568854.11549  20769922.386    20769922.3224   20769929.8774
        -0.000          -0.000
 -13176429.950 9 -10242074.87847  22497611.227    22497610.6994   22497621.5294
        -0.000          -0.000
   4326822.818 9   3375774.50147  22015992.921    22015992.2064   22016001.1994
        -0.000          -0.000
  -3953973.428 8  -2769974.65545  24245129.657    24245130.3164   24245151.8444
        -0.000          -0.000
 99  3 19  1  6  0.0000000  0  6 30  5  6 17 10 23                   0.000000052
    724843.431 9    704517.40248  21013908.424    21013908.7634   21013916.5624
        -0.000          -0.000
  12369014.490 9   9572055.10746  22863264.045    22863263.5424   22863274.3964
        -0.000          -0.000
 -10000684.680 9  -7601610.22849  20761922.965    20761922.8504   20761930.4784
        -0.000          -0.000
 -13233508.914 9 -10286551.85147  22486749.405    22486748.9284   22486759.7144
        -0.000          -0.000
   4399772.266 9   3432618.22347  22029874.758    22029874.0164   22029883.0184
        -0.000          -0.000
  -4058561.115 8  -2851471.13445  24225227.397    24225227.9244   24225248.5194
        -0.000          -0.000
 99  3 19  1  6 30.0000000  0  6 30  5  6 17 10 23                   0.000000043
    780539.022 9    747916.54748  21024507.286    21024507.5364   21024515.1114
        -0.000          -0.000
  12470413.307 9   9651067.04446  22882559.672    22882559.1834   22882570.2334
        -0.000          -0.000
 -10042504.262 9  -7634196.87049  20753964.842    20753964.7994   20753972.4054
        -0.000          -0.000
 -13290401.887 9 -10330883.89747  22475923.027    22475922.5634   22475933.2124
        -0.000          -0.000
   4473109.569 9   3489764.17547  22043830.252    22043829.5744   22043838.6004
        -0.000          -0.000
  -4163074.959 8  -2932910.03545  24205339.225    24205339.7014   24205359.3504
        -0.000          -0.000
 99  3 19  1  7  0.0000000  0  6 30  5  6 17 10 23                   0.000000028
    836710.069 9    791686.18148  21035196.291    21035196.5674   21035204.1094
        -0.000          -0.000
  12571961.369 9   9730195.27747  22901883.697    22901883.2764   22901894.4594
        -0.000          -0.000
 -10084079.651 9  -7666593.22449  20746053.348    20746053.2764   20746060.7624
        -0.000          -0.000
 -13347100.008 9 -10375064.10447  22465133.523    22465133.1334   22465143.7214
        -0.000          -0.000
   4546835.560 9   3547212.99647  22057859.801    22057859.1024   22057868.0814
        -0.000          -0.000
  -4267497.496 8  -3014277.80945  24185468.744    24185468.9674   24185487.4424
        -0.000          -0.000
 99  3 19  1  7 30.0000000  0  6 30  5  6 17 10 23                   0.000000002
    893360.789 9    835829.58148  21045976.376    21045976.6744   21045984.3954
        -0.000          -0.000
  12673669.300 9   9809448.08747  22921238.163    22921237.7374   22921249.1814
        -0.000          -0.000
 -10125378.339 9  -7698773.97449  20738194.428    20738194.3274   20738201.8744
        -0.000          -0.000
 -13403599.850 9 -10419089.81647  22454381.664    22454381.3264   22454391.9254
        -0.000          -0.000
   4620942.514 9   3604958.68947  22071961.707    22071961.0394   22071970.0164
        -0.000          -0.000
  -4371810.978 9  -3095560.62845  24165618.992    24165619.0894   24165636.3264
        -0.000          -0.000
 99  3 19  1  8  0.0000000  0  6 30  5  6 17 10 23                  -0.000000026
    950504.812 9    880357.36948  21056850.207    21056850.5964   21056858.5134
        -0.000          -0.000
  12775544.830 9   9888831.46946  22940624.628    22940624.1454   22940635.6704
        -0.000          -0.000
 -10166348.521 9  -7730698.74049  20730397.966    20730397.9144   20730405.4974
        -0.000          -0.000
 -13459878.936 9 -10462943.50847  22443671.787    22443671.5804   22443682.2934
        -0.000          -0.000
   4695438.576 9   3663007.55847  22086137.844    22086137.1464   22086145.9934
        -0.000          -0.000
  -4475988.203 9  -3176737.28845  24145794.968    24145795.0344   24145811.4984
        -0.000          -0.000
 99  3 19  1  8 30.0000000  0  6 30  5  6 17 10 23                  -0.000000044
   1008154.488 9    925279.17848  21067820.613    21067820.9914   21067828.8944
        -0.000          -0.000
  12877608.958 9   9968361.83246  22960047.082    22960046.4414   22960058.0524
        -0.000          -0.000
 -10206982.695 9  -7762361.68349  20722665.591    20722665.5274   20722672.9444
        -0.000          -0.000
 -13515922.061 9 -10506613.35047  22433007.136    22433006.8134   22433017.6184
        -0.000          -0.000
   4770330.764 9   3721365.11547  22100389.496    22100388.7994   22100397.4744
        -0.000          -0.000
  -4580000.959 8  -3257785.77145  24126002.092    24126002.1364   24126018.0284
        -0.000          -0.000
 99  3 19  1  9  0.0000000  0  6 30  5  6 17 10 23                  -0.000000060
   1066291.391 9    970580.63848  21078883.747    21078884.1324   21078892.0114
        -0.000          -0.000
  12979847.603 9  10048028.20346  22979502.323    22979501.8134   22979513.5864
        -0.000          -0.000
 -10247317.477 9  -7793791.33249  20714990.146    20714990.0514   20714997.3054
        -0.000          -0.000
 -13571748.728 9 -10550114.51147  22422383.660    22422383.2474   22422393.9934
        -0.000          -0.000
   4845601.204 9   3780017.41047  22114713.141    22114712.4134   22114720.9314
        -0.000          -0.000
  -4683862.435 9  -3338716.39245  24106237.758    24106237.8394   24106253.5884
        -0.000          -0.000
 99  3 19  1  9 30.0000000  0  6 30  5  6 17 10 23                  -0.000000074
   1124934.791 9   1016276.77548  21090043.364    21090043.7364   21090051.4324
        -0.000          -0.000
  13082263.374 9  10127832.57246  22998991.411    22998991.0494   22999002.7344
        -0.000          -0.000
 -10287350.170 9  -7824985.58749  20707372.093    20707372.0254   20707379.2414
        -0.000          -0.000
 -13627347.223 9 -10593437.88947  22411803.266    22411802.9824   22411813.8164
        -0.000          -0.000
   4921268.906 9   3838979.23347  22129112.323    22129111.5754   22129119.9624
        -0.000          -0.000
  -4787574.646 9  -3419530.71245  24086502.046    24086501.8624   24086517.7044
        -0.000          -0.000
 99  3 19  1 10  0.0000000  0  6 30  5  6 17 10 23                  -0.000000071
   1184084.294 9   1062367.27848  21101299.109    21101299.5244   21101307.1424
        -0.000          -0.000
  13184841.390 9  10207763.39346  23018511.478    23018511.1364   23018522.5544
        -0.000          -0.000
 -10327115.025 9  -7855971.13849  20699804.968    20699804.9234   20699812.1184
        -0.000          -0.000
 -13682716.753 9 -10636582.85647  22401266.754    22401266.5254   22401277.1524
        -0.000          -0.000
   4997341.577 9   3898256.64647  22143588.521    22143587.7434   22143595.9694
        -0.000          -0.000
  -4891129.660 8  -3500222.55345  24066795.991    24066795.6664   24066812.0244
        -0.000          -0.000
 99  3 19  1 10 30.0000000  0  6 30  5  6 17 10 23                  -0.000000051
   1243714.361 9   1108832.24648  21112646.428    21112646.8484   21112654.3834
        -0.000          -0.000
  13287558.454 9  10287802.54446  23038057.857    23038057.6144   23038068.9304
        -0.000          -0.000
 -10366654.932 9  -7886781.40249  20692280.672    20692280.6724   20692287.8034
        -0.000          -0.000
 -13737875.133 9 -10679563.27847  22390770.811    22390770.3524   22390780.6934
        -0.000          -0.000
   5073811.348 9   3957843.47547  22158140.320    22158139.5594   22158147.5694
        -0.000          -0.000
  -4994554.065 8  -3580812.60945  24047114.318    24047113.9804   24047131.1114
        -0.000          -0.000
 99  3 19  1 11  0.0000000  0  7 30  5  6 17 22 10 23               -0.000000028
   1303793.154 9   1155646.86548  21124079.187    21124079.5444   21124087.0844
        -0.000          -0.000
  13390369.680 9  10367915.04846  23057622.301    23057622.0804   23057633.1714
        -0.000          -0.000
 -10405992.531 9  -7917434.01649  20684795.024    20684794.9844   20684802.1084
        -0.000          -0.000
 -13792858.052 9 -10722406.99747  22380307.782    22380307.2864   22380317.7344
        -0.000          -0.000
  -1402449.48618  -1056194.72245         0.000           0.0005   25186457.9674
        -0.000          -0.000
   5150663.111 9   4017727.93947  22172764.862    22172764.0654   22172771.9594
        -0.000          -0.000
  -5097879.534 8  -3661325.59346  24027451.639    24027451.5024   24027468.8824
        -0.000          -0.000
 99  3 19  1 11 30.0000000  0  7 30  5  6 17 22 10 23                0.000000007
   1364317.411 9   1202808.59948  21135596.564    21135596.9414   21135604.5074
        -0.000          -0.000
  13493269.286 9  10448096.42746  23077203.657    23077203.4344   23077214.3074
        -0.000          -0.000
 -10445125.669 9  -7947927.32749  20677348.208    20677348.1304   20677355.3034
        -0.000          -0.000
 -13847664.215 9 -10765113.00447  22369878.181    22369877.9164   22369888.4084
        -0.000          -0.000
  -1489918.431 8  -1124352.29945  25169800.723    25169799.7804   25169812.3094
        -0.000          -0.000
   5227898.451 9   4077911.30346  22187462.178    22187461.4304   22187469.3274
        -0.000          -0.000
  -5201094.709 9  -3741752.63046  24007810.358    24007810.0394   24007827.5634
        -0.000          -0.000
 99  3 19  1 12  0.0000000  0  7 30  5  6 17 22 10 23                0.000000029
   1425235.135 9   1250276.94148  21147188.909    21147189.2264   21147196.7174
        -0.000          -0.000
  13596224.241 9  10528320.94146  23096795.523    23096795.2414   23096805.9854
        -0.000          -0.000
 -10484083.523 9  -7978284.04149  20669934.695    20669934.6724   20669941.6764
        -0.000          -0.000
 -13902332.546 9 -10807711.58447  22359475.288    22359474.7284   22359485.2284
        -0.000          -0.000
  -1577179.319 8  -1192347.79245  25153195.492    25153195.1754   25153207.5874
        -0.000          -0.000
   5305456.173 9   4138345.87546  22202220.928    22202220.1934   22202228.1564
        -0.000          -0.000
  -5304232.597 9  -3822119.42246  23988183.876    23988183.4374   23988200.6724
        -0.000          -0.000
 99  3 19  1 12 30.0000000  0  7 30  5  6 17 22 10 23                0.000000046
   1486605.191 9   1298097.73848  21158867.151    21158867.5414   21158874.9634
        -0.000          -0.000
  13699295.469 9  10608636.05546  23116409.320    23116409.1134   23116419.8624
        -0.000          -0.000
 -10522787.420 9  -8008442.86149  20662569.617    20662569.5914   20662576.4584
        -0.000          -0.000
 -13956811.565 9 -10850162.65447  22349108.061    22349107.5354   22349117.9394
        -0.000          -0.000
  -1664186.116 8  -1260145.27545  25136639.344    25136639.5064   25136651.4704
        -0.000          -0.000
   5383384.157 9   4199068.96546  22217050.382    22217049.5564   22217057.5644
        -0.000          -0.000
  -5407251.354 9  -3902393.38846  23968579.898    23968579.4884   23968596.1924
        -0.000          -0.000
 99  3 19  1 13  0.0000000  0  7 30  5  6 17 22 10 23                0.000000054
   1548445.999 9   1346285.36348  21170635.097    21170635.4344   21170642.8514
        -0.000          -0.000
  13802487.345 9  10689045.15446  23136046.240    23136045.9094   23136056.8094
        -0.000          -0.000
 -10561219.985 9  -8038390.26049  20655256.144    20655256.1244   20655263.0084
        -0.000          -0.000
 -14011093.658 9 -10892460.27147  22338778.471    22338777.9764   22338788.1624
        -0.000          -0.000
  -1750923.646 8  -1327732.94445  25120134.124    25120133.6934   25120145.6334
        -0.000          -0.000
   5461680.210 9   4260078.86546  22231949.612    22231948.8124   22231957.0874
        -0.000          -0.000
  -5510133.571 9  -3982560.95046  23949001.637    23949001.4814   23949017.4264
        -0.000          -0.000
 99  3 19  1 13 30.0000000  0  7 30  5  6 17 22 10 23                0.000000049
   1610792.042 9   1394866.67448  21182499.013    21182499.3714   21182506.9274
        -0.000          -0.000
  13905830.479 9  10769572.13746  23155711.997    23155711.6044   23155722.4794
        -0.000          -0.000
 -10599355.948 9  -8068106.53549  20647999.085    20647999.0384   20648006.0464
        -0.000          -0.000
 -14065151.932 9 -10934583.49147  22328491.490    22328490.9784   22328501.0994
        -0.000          -0.000
  -1837359.144 8  -1395085.23745  25103686.577    25103686.0404   25103697.9274
        -0.000          -0.000
   5540347.033 9   4321377.66746  22246919.187    22246918.5594   22246927.0944
        -0.000          -0.000
  -5612858.486 9  -4062605.92445  23929453.568    23929453.4154   23929468.4844
        -0.000          -0.000
 99  3 19  1 14  0.0000000  0  7 30  5  6 17 22 10 23                0.000000025
   1673669.760 9   1443862.28148  21194464.058    21194464.4784   21194472.2614
        -0.000          -0.000
  14009336.430 9  10850225.99146  23175408.512    23175408.1994   23175419.2334
        -0.000          -0.000
 -10637183.280 9  -8097582.31949  20640800.722    20640800.6614   20640807.8034
        -0.000          -0.000
 -14118983.144 9 -10976529.79347  22318247.676    22318247.1894   22318257.2364
        -0.000          -0.000
  -1923483.603 8  -1462195.21245  25087298.117    25087297.0664   25087309.2074
        -0.000          -0.000
   5619400.013 9   4382977.35546  22261962.491    22261961.7154   22261970.4154
        -0.000          -0.000
  -5715419.975 9  -4142523.55345  23909936.577    23909936.1664   23909950.9824
        -0.000          -0.000
 99  3 19  1 14 30.0000000  0  7 30  5  6 17 22 10 23                0.000000004
   1737111.204 9   1493297.15448  21206536.522    21206536.9504   21206544.8354
        -0.000          -0.000
  14113033.351 9  10931028.64446  23195141.396    23195141.1184   23195152.3744
        -0.000          -0.000
 -10674676.311 9  -8126797.61149  20633665.921    20633665.9404   20633673.1144
        -0.000          -0.000
 -14172560.225 9 -11018278.06548  22308052.305    22308051.8574   22308061.7524
        -0.000          -0.000
  -2009265.546 8  -1529038.26545  25070974.468    25070973.2674   25070985.8184
        -0.000          -0.000
   5698879.957 9   4444909.77646  22277086.862    22277086.2044   22277094.9254
        -0.000          -0.000
  -5817785.980 9  -4222288.87145  23890456.612    23890456.1434   23890470.9974
        -0.000          -0.000
 99  3 19  1 15  0.0000000  0  7 30  5  6 17 22 10 23               -0.000000017
   1801095.550 9   1543155.05948  21218712.255    21218712.7114   21218720.6774
        -0.000          -0.000
  14216894.675 9  11011959.41446  23214905.827    23214905.3054   23214916.7944
        -0.000          -0.000
 -10711856.851 9  -8155769.39549  20626590.743    20626590.7194   20626597.8484
        -0.000          -0.000
 -14225899.247 9 -11059840.83348  22297902.170    22297901.7144   22297911.6434
        -0.000          -0.000
  -2094719.619 8  -1595625.80545  25054712.963    25054711.7554   25054724.3804
        -0.000          -0.000
   5778761.367 9   4507155.02646  22292287.749    22292287.1314   22292295.7314
        -0.000          -0.000
  -5919964.716 9  -4301908.26245  23871012.170    23871011.5344   23871026.6774
        -0.000          -0.000
 99  3 19  1 15 30.0000000  0  7 30  5  6 17 22 10 23               -0.000000046
   1865588.559 9   1593409.32648  21230984.946    21230985.3854   21230993.2824
        -0.000          -0.000
  14320906.588 9  11093007.51146  23234698.772    23234698.1434   23234709.9244
        -0.000          -0.000
 -10748743.185 9  -8184511.93149  20619571.445    20619571.3384   20619578.5624
        -0.000          -0.000
 -14279021.366 9 -11101234.59648  22287793.276    22287792.8924   22287802.8404
        -0.000          -0.000
  -2179864.600 8  -1661972.44945  25038510.013    25038508.6624   25038521.9274
        -0.000          -0.000
   5859021.895 9   4569695.69246  22307560.755    22307560.1284   22307568.7584
        -0.000          -0.000
  -6021973.147 9  -4381394.94445  23851599.829    23851599.3634   23851614.7464
        -0.000          -0.000
 99  3 19  1 16  0.0000000  0  7 30  5  6 17 22 10 23               -0.000000049
   1930581.646 9   1644053.26548  21243352.918    21243353.3124   21243361.1164
        -0.000          -0.000
  14425072.359 9  11174175.51246  23254521.046    23254520.4704   23254532.2764
        -0.000          -0.000
 -10785318.912 9  -8213012.45049  20612611.125    20612611.0874   20612618.5034
        -0.000          -0.000
 -14331914.402 9 -11142449.84348  22277728.178    22277727.6304   22277737.4734
        -0.000          -0.000
  -2264690.549 8  -1728070.48145  25022368.158    25022366.5764   25022380.0844
        -0.000          -0.000
   5939685.232 9   4632550.23846  22322910.417    22322909.7714   22322918.5354
        -0.000          -0.000
  -6123787.588 9  -4460730.47645  23832224.703    23832224.2764   23832239.4614
        -0.000          -0.000
 99  3 19  1 16 30.0000000  0  7 30  5  6 17 22 10 23               -0.000000050
   1995994.353 9   1695024.18248  21255800.852    21255801.1354   21255808.8134
        -0.000          -0.000
  14529317.886 9  11255405.63346  23274358.615    23274358.0064   23274369.8454
        -0.000          -0.000
 -10821636.148 9  -8241311.55449  20605700.086    20605700.0714   20605707.5724
        -0.000          -0.000
 -14384624.305 9 -11183522.38848  22267697.691    22267697.1744   22267707.0104
        -0.000          -0.000
  -2349262.404 8  -1793970.52945  25006274.404    25006273.0094   25006286.4944
        -0.000          -0.000
   6020682.794 9   4695665.20146  22338323.787    22338323.1604   22338332.0084
        -0.000          -0.000
  -6225462.186 9  -4539957.05646  23812876.481    23812875.8404   23812890.4534
        -0.000          -0.000
 99  3 19  1 17  0.0000000  0  7 30  5  6 17 22 10 23               -0.000000040
   2061824.039 9   1746320.02248  21268327.913    21268328.1534   21268335.9224
        -0.000          -0.000
  14633643.620 9  11336698.26146  23294211.559    23294210.9224   23294222.5724
        -0.000          -0.000
 -10857686.262 9  -8269402.50249  20598839.961    20598839.9204   20598847.3634
        -0.000          -0.000
 -14437138.375 9 -11224442.32148  22257704.310    22257703.8634   22257713.9214
        -0.000          -0.000
  -2433573.331 8  -1859667.23845  24990229.826    24990228.3864   24990241.8874
        -0.000          -0.000
   6102012.353 9   4759038.89547  22353800.426    22353799.7164   22353808.6484
        -0.000          -0.000
  -6326978.752 9  -4619060.46346  23793558.117    23793557.5544   23793571.8634
        -0.000          -0.000
 99  3 19  1 17 30.0000000  0  7 30  5  6 17 22 10 23               -0.000000012
   2128052.784 9   1797926.79948  21280930.811    21280931.0184   21280938.9184
        -0.000          -0.000
  14738053.154 9  11418056.17946  23314080.354    23314079.7384   23314091.2124
        -0.000          -0.000
 -10893462.183 9  -8297279.78249  20592032.089    20592031.9934   20592039.2634
        -0.000          -0.000
 -14489467.020 9 -11265217.78648  22247746.322    22247745.8964   22247756.1084
        -0.000          -0.000
  -2517620.475 8  -1925158.43145  24974235.888    24974234.6484   24974248.4914
        -0.000          -0.000
   6183677.037 9   4822673.73347  22369340.603    22369339.9884   22369349.1024
        -0.000          -0.000
  -6428334.488 9  -4698038.57946  23774270.351    23774269.9364   23774284.1094
        -0.000          -0.000
 99  3 19  1 18  0.0000000  0  7 30  5  6 17 22 10 23                0.000000011
   2194648.803 9   1849819.77548  21293603.462    21293603.7654   21293611.6694
        -0.000          -0.000
  14842524.812 9  11499462.52546  23333960.592    23333960.0664   23333971.5384
        -0.000          -0.000
 -10928985.023 9  -8324959.86149  20585272.324    20585272.2234   20585279.3824
        -0.000          -0.000
 -14541640.940 9 -11305872.66848  22237818.125    22237817.6194   22237827.6304
        -0.000          -0.000
  -2601431.541 8  -1990465.68345  24958286.736    24958285.9384   24958299.4454
        -0.000          -0.000
   6265649.577 9   4886548.42146  22384939.425    22384938.8794   22384948.1224
        -0.000          -0.000
  -6529565.271 9  -4776919.33846  23755006.461    23755006.2214   23755020.2704
        -0.000          -0.000
 99  3 19  1 18 30.0000000  0  7 30  5  6 17 22 10 23                0.000000031
   2261661.147 9   1902037.16448  21306355.488    21306355.8174   21306363.7334
        -0.000          -0.000
  14947105.932 9  11580954.16746  23353861.589    23353861.0894   23353872.7274
        -0.000          -0.000
 -10964214.094 9  -8352411.03349  20578568.438    20578568.3634   20578575.4264
        -0.000          -0.000
 -14593623.932 9 -11346378.78448  22227926.060    22227925.5484   22227935.4544
        -0.000          -0.000
  -2684959.375 8  -2055552.17845  24942391.626    24942391.2704   24942404.4934
        -0.000          -0.000
   6347948.893 9   4950677.76546  22400600.431    22400599.9274   22400609.2014
        -0.000          -0.000
  -6630636.781 9  -4855675.99146  23735773.101    23735772.9574   23735786.9374
        -0.000          -0.000
 99  3 19  1 19  0.0000000  0  7 30  5  6 17 22 10 23                0.000000038
   2329103.634 9   1954589.71848  21319189.407    21319189.7024   21319197.6564
        -0.000          -0.000
  15051819.728 9  11662549.19746  23373787.866    23373787.3944   23373799.2144
        -0.000          -0.000
 -10999143.715 9  -8379628.86749  20571921.549    20571921.4554   20571928.4854
        -0.000          -0.000
 -14645431.186 9 -11386747.95848  22218067.159    22218066.7334   22218076.6314
        -0.000          -0.000
  -2768184.416 8  -2120402.76645  24926554.844    24926553.9564   24926567.1564
        -0.000          -0.000
   6430579.888 9   5015065.53746  22416324.654    22416324.1314   22416333.2884
        -0.000          -0.000
  -6731546.905 9  -4934306.92246  23716570.651    23716570.5194   23716584.3054
        -0.000          -0.000
 99  3 19  1 19 30.0000000  0  7 30  5  6 17 22 10 23                0.000000022
   2397001.108 9   2007496.80748  21332110.027    21332110.2874   21332118.1274
        -0.000          -0.000
  15156682.782 9  11744260.53646  23393742.344    23393741.9404   23393754.1774
        -0.000          -0.000
 -11033761.219 9  -8406603.49749  20565333.890    20565333.8364   20565340.9404
        -0.000          -0.000
 -14697062.753 9 -11426980.25048  22208241.693    22208241.4644   22208251.3064
        -0.000          -0.000
  -2851087.757 8  -2185002.75545  24910779.248    24910778.0984   24910790.8824
        -0.000          -0.000
   6513562.663 9   5079727.42346  22432115.818    22432115.2704   22432124.2854
        -0.000          -0.000
  -6832300.498 9  -5012815.86946  23697397.933    23697397.7034   23697411.4104
        -0.000          -0.000
 99  3 19  1 20  0.0000000  0  7 30  5  6 17 22 10 23               -0.000000002
   2465410.814 9   2060803.04248  21345127.988    21345128.2164   21345136.0984
        -0.000          -0.000
  15261713.041 9  11826102.15146  23413728.877    23413728.4634   23413740.8524
        -0.000          -0.000
 -11068035.201 9  -8433310.45449  20558811.624    20558811.6214   20558818.7404
        -0.000          -0.000
 -14748464.577 9 -11467033.50048  22198460.612    22198460.1264   22198469.7694
        -0.000          -0.000
  -2933617.194 8  -2249311.32045  24895074.679    24895073.2494   24895085.7604
        -0.000          -0.000
   6596924.200 9   5144684.44946  22447979.139    22447978.5184   22447987.3224
        -0.000          -0.000
  -6932868.391 9  -5091180.12346  23678260.303    23678259.9724   23678273.9104
        -0.000          -0.000
 99  3 19  1 20 30.0000000  0  7 30  5  6 17 22 10 23               -0.000000033
   2534333.579 9   2114509.06748  21358243.393    21358243.6264   21358251.6074
        -0.000          -0.000
  15366879.904 9  11908050.18846  23433741.610    23433741.1684   23433753.4834
        -0.000          -0.000
 -11101975.727 9  -8459757.57049  20552352.964    20552352.9324   20552360.0114
        -0.000          -0.000
 -14799633.924 9 -11506905.59848  22188723.466    22188722.8874   22188732.3734
        -0.000          -0.000
  -3015777.126 8  -2313331.90445  24879440.257    24879438.7424   24879451.2734
        -0.000          -0.000
   6680652.357 9   5209927.18146  22463912.211    22463911.5874   22463920.1524
        -0.000          -0.000
  -7033238.355 9  -5169390.16946  23659160.235    23659159.8864   23659173.8834
        -0.000          -0.000
 99  3 19  1 21  0.0000000  0  7 30  5  6 17 22 10 23               -0.000000050
   2603741.440 9   2168593.08348  21371451.088    21371451.4524   21371459.4524
        -0.000          -0.000
  15472156.684 9  11990083.89046  23453775.246    23453774.8694   23453787.0554
        -0.000          -0.000
 -11135595.137 9  -8485954.46849  20545955.281    20545955.2414   20545962.4074
        -0.000          -0.000
 -14850566.713 9 -11546593.36848  22179031.134    22179030.6074   22179039.9764
        -0.000          -0.000
  -3097582.288 8  -2377076.07245  24863873.065    24863871.8894   24863884.2324
        -0.000          -0.000
   6764755.287 9   5275461.92746  22479916.452    22479915.8884   22479924.2694
        -0.000          -0.000
  -7133417.799 9  -5247451.73846  23640096.501    23640096.0044   23640110.1524
        -0.000          -0.000
 99  3 19  1 21 30.0000000  0  7 30  5  6 17 22 10 23               -0.000000061
   2673592.761 9   2223022.64848  21384743.452    21384743.8304   21384751.8384
        -0.000          -0.000
  15577494.081 9  12072164.82646  23473820.363    23473819.9734   23473832.2484
        -0.000          -0.000
 -11168915.641 9  -8511918.45149  20539614.617    20539614.6204   20539621.7394
        -0.000          -0.000
 -14901271.991 9 -11586103.85348  22169382.100    22169381.5974   22169391.0094
        -0.000          -0.000
  -3179065.430 8  -2440569.33445  24848367.134    24848365.9854   24848378.5284
        -0.000          -0.000
   6849192.918 9   5341257.48446  22495984.438    22495983.7244   22495992.1764
        -0.000          -0.000
  -7233423.783 9  -5325378.16446  23621065.645    23621065.1384   23621079.1804
        -0.000          -0.000
 99  3 19  1 22  0.0000000  0  7 30  5  6 17 22 10 23               -0.000000060
   2743853.964 9   2277771.61248  21398113.830    21398114.1744   21398122.2624
        -0.000          -0.000
  15682867.369 9  12154273.73446  23493871.963    23493871.8214   23493884.1904
        -0.000          -0.000
 -11201950.489 9  -8537659.83449  20533328.468    20533328.3534   20533335.4164
        -0.000          -0.000
 -14951755.417 9 -11625441.48548  22159775.202    22159774.7284   22159784.2514
        -0.000          -0.000
  -3260241.971 8  -2503823.73145  24832919.434    24832918.3794   24832931.2844
        -0.000          -0.000
   6933937.715 9   5407292.39046  22512110.856    22512110.0404   22512118.7054
        -0.000          -0.000
  -7333247.255 9  -5403162.35046  23602069.356    23602068.9394   23602082.8614
        -0.000          -0.000
 99  3 19  1 22 30.0000000  0  7 30  5  6 17 22 10 23               -0.000000035
   2814472.677 9   2332799.16348  21411552.086    21411552.4214   21411560.6494
        -0.000          -0.000
  15788260.922 9  12236398.43746  23513927.780    23513927.6964   23513940.1114
        -0.000          -0.000
 -11234732.449 9  -8563204.17349  20527090.117    20527090.0424   20527097.1884
        -0.000          -0.000
 -15002057.535 9 -11664637.82548  22150202.771    22150202.4144   22150211.9084
        -0.000          -0.000
  -3341142.690 8  -2566863.12945  24817524.264    24817523.3274   24817536.3124
        -0.000          -0.000
   7018977.848 9   5473557.41846  22528293.487    22528292.6784   22528301.3144
        -0.000          -0.000
  -7432902.538 9  -5480815.50746  23583105.049    23583104.6974   23583118.5044
        -0.000          -0.000
 99  3 19  1 23  0.0000000  0  7 30  5  6 17 22 10 23               -0.000000012
   2885416.033 9   2388079.66348  21425052.313    21425052.5744   21425060.7504
        -0.000          -0.000
  15893664.547 9  12318530.95546  23533985.792    23533985.5704   23533998.0904
        -0.000          -0.000
 -11267283.002 9  -8588568.19649  20520895.700    20520895.6904   20520902.9144
        -0.000          -0.000
 -15052220.746 9 -11703725.91947  22140657.042    22140656.6134   22140665.9114
        -0.000          -0.000
  -3421790.506 8  -2629705.48745  24802176.998    24802176.2224   24802189.5994
        -0.000          -0.000
   7104288.320 9   5540033.10746  22544527.654    22544526.7594   22544535.2234
        -0.000          -0.000
  -7532426.718 9  -5558366.50346  23564165.910    23564165.5784   23564179.3684
        -0.000          -0.000
 99  3 19  1 23 30.0000000  0  7 30  5  6 17 22 10 23                0.000000005
   2956724.538 9   2443644.69448  21438621.932    21438622.2404   21438630.1774
        -0.000          -0.000
  15999116.976 9  12400701.53246  23554053.034    23554052.8484   23554065.1874
        -0.000          -0.000
 -11299567.955 9  -8613725.24949  20514751.969    20514752.0034   20514759.2254
        -0.000          -0.000
 -15102234.920 9 -11742697.89448  22131139.487    22131139.0914   22131148.3674
        -0.000          -0.000
  -3502150.447 8  -2692323.55045  24786884.498    24786883.8684   24786897.5904
        -0.000          -0.000
   7189881.673 9   5606729.21746  22560815.633    22560814.7034   22560822.9844
        -0.000          -0.000
  -7631781.934 9  -5635785.85346  23545259.211    23545258.8664   23545272.3934
        -0.000          -0.000
 99  3 19  1 24  0.0000000  0  7 30  5  6 17 22 10 23                0.000000019
   3028400.488 9   2499496.05048  21452261.737    21452261.9584   21452269.5454
        -0.000          -0.000
  16104622.566 9  12482913.53546  23574130.033    23574129.9004   23574142.2894
        -0.000          -0.000
 -11331590.900 9  -8638678.13449  20508658.268    20508658.2914   20508665.4354
        -0.000          -0.000
 -15152108.164 9 -11781560.06248  22121648.809    22121648.4414   22121657.8614
        -0.000          -0.000
  -3582223.555 8  -2754718.15045  24771646.907    24771646.4464   24771660.1714
        -0.000          -0.000
   7275767.406 9   5673653.15946  22577159.272    22577158.3294   22577166.2884
        -0.000          -0.000
  -7730965.944 9  -5713071.78346  23526385.153    23526384.6434   23526397.9814
        -0.000          -0.000
 99  3 19  1 24 30.0000000  0  7 30  5  6 17 22 10 23                0.000000029
   3100467.855 9   2555652.41948  21465975.797    21465976.0344   21465983.4914
        -0.000          -0.000
  16210196.480 9  12565178.79346  23594219.644    23594219.5934   23594232.3634
        -0.000          -0.000
 -11363322.412 9  -8663403.94449  20502619.996    20502619.9724   20502627.0264
        -0.000          -0.000
 -15201819.391 9 -11820295.98448  22112188.994    22112188.5914   22112198.1754
        -0.000          -0.000
  -3661999.408 8  -2816881.10245  24756465.741    24756465.2664   24756479.3854
        -0.000          -0.000
   7361959.120 9   5740815.51846  22593561.219    22593560.1444   22593567.7634
        -0.000          -0.000
  -7829972.292 9  -5790219.28646  23507544.924    23507544.2574   23507557.2374
        -0.000          -0.000
 99  3 19  1 25  0.0000000  0  7 30  5  6 17 22 10 23                0.000000020
   3172968.604 9   2612146.47148  21479772.264    21479772.5334   21479779.9714
        -0.000          -0.000
  16315862.294 9  12647515.63546  23614327.016    23614326.8824   23614339.9904
        -0.000          -0.000
 -11394711.358 9  -8687862.81449  20496646.804    20496646.7774   20496653.8584
        -0.000          -0.000
 -15251334.944 9 -11858879.42848  22102766.360    22102765.9844   22102775.5814
        -0.000          -0.000
  -3741458.001 8  -2878796.81645  24741345.336    24741344.5044   24741358.6214
        -0.000          -0.000
   7448456.855 9   5808216.33745  22610021.280    22610020.1294   22610027.4904
        -0.000          -0.000
  -7928772.991 9  -5867206.53146  23488743.395    23488742.7734   23488755.4774
        -0.000          -0.000
 99  3 19  1 25 30.0000000  0  7 30  5  6 17 22 10 23                0.000000013
   3245939.233 9   2669006.67348  21493658.038    21493658.3204   21493665.9014
        -0.000          -0.000
  16421639.118 9  12729938.96346  23634455.866    23634455.7664   23634468.6414
        -0.000          -0.000
 -11425719.465 9  -8712024.92349  20490746.101    20490746.0524   20490753.2094
        -0.000          -0.000
 -15300607.126 9 -11897273.23148  22093390.068    22093389.7454   22093399.2074
        -0.000          -0.000
  -3820554.008 9  -2940429.98345  24726293.971    24726293.2134   24726306.4324
        -0.000          -0.000
   7535284.169 9   5875873.98045  22626543.889    22626542.8204   22626549.9914
        -0.000          -0.000
  -8027324.795 9  -5943999.83546  23469989.106    23469988.6264   23470001.2324
        -0.000          -0.000
 99  3 19  1 26  0.0000000  0  7 30  5  6 17 22 10 23                0.000000004
   3319372.765 9   2726227.59248  21507631.829    21507632.1264   21507639.7764
        -0.000          -0.000
  16527519.785 9  12812443.23846  23654604.949    23654604.8164   23654617.1404
        -0.000          -0.000
 -11456348.234 9  -8735891.45149  20484917.514    20484917.4974   20484924.6844
        -0.000          -0.000
 -15349632.058 9 -11935474.38648  22084060.981    22084060.5534   22084070.0924
        -0.000          -0.000
  -3899286.373 8  -3001779.78645  24711311.934    24711311.0764   24711323.5874
        -0.000          -0.000
   7622429.856 9   5943779.70945  22643127.055    22643126.0504   22643133.3294
        -0.000          -0.000
  -8125640.144 9  -6020608.89546  23451279.902    23451279.4084   23451292.3214
        -0.000          -0.000
 99  3 19  1 26 30.0000000  0  8 30  5  6 17 22 26 10 23            -0.000000018
   3393261.803 9   2783803.44248  21521692.292    21521692.6124   21521700.2804
        -0.000          -0.000
  16633506.842 9  12895030.39046  23674774.185    23674773.9944   23674785.8554
        -0.000          -0.000
 -11486592.873 9  -8759458.65549  20479162.127    20479162.1214   20479169.2884
        -0.000          -0.000
 -15398417.230 9 -11973488.71648  22074777.436    22074777.0404   22074786.5914
        -0.000          -0.000
  -3977650.846 9  -3062842.89945  24696399.624    24696398.6694   24696410.5284
        -0.000          -0.000
   -763503.146 8   -581934.98342         0.000           0.0004          0.0004
        -0.000          -0.000
   7709885.776 8   6011927.19345  22659769.085    22659768.2494   22659775.7764
        -0.000          -0.000
  -8223726.837 9  -6097039.78546  23432613.899    23432613.6204   23432627.0764
        -0.000          -0.000
 99  3 19  1 27  0.0000000  0  8 30  5  6 17 22 26 10 23            -0.000000030
   3467618.433 9   2841743.64648  21535841.779    21535842.1374   21535849.8784
        -0.000          -0.000
  16739620.737 9  12977716.40646  23694967.371    23694967.0264   23694978.6964
        -0.000          -0.000
 -11516446.161 9  -8782720.91249  20473481.252    20473481.2344   20473488.4204
        -0.000          -0.000
 -15446957.629 9 -12011312.30648  22065540.649    22065540.1254   22065549.5364
        -0.000          -0.000
  -4055613.967 9  -3123593.26945  24681563.669    24681562.7404   24681574.3814
        -0.000          -0.000
   -842132.336 8   -643204.02552         0.000           0.0004          0.0005
        -0.000          -0.000
   7797680.964 8   6080339.04345  22676475.465    22676474.7644   22676482.7954
        -0.000          -0.000
  -8321564.653 9  -6173276.73146  23413995.479    23413995.3194   23414009.1084
        -0.000          -0.000
 99  3 19  1 27 30.0000000  0  8 30  5  6 17 22 26 10 23            -0.000000035
   3542380.079 9   2899999.43948  21550068.420    21550068.7484   21550076.6584
        -0.000          -0.000
  16845813.900 9  13060464.16846  23715175.250    23715174.8164   23715186.5384
        -0.000          -0.000
 -11545968.210 9  -8805725.06949  20467863.390    20467863.3834   20467870.5184
        -0.000          -0.000
 -15495299.329 9 -12048981.07048  22056341.388    22056340.8734   22056350.1964
        -0.000          -0.000
  -4133206.243 9  -3184054.69545  24666798.067    24666797.3334   24666808.7784
        -0.000          -0.000
   -920586.42217   -704336.86644         0.000           0.0005   23359768.1924
        -0.000          -0.000
   7885787.413 8   6148993.40745  22693241.100    22693240.4284   22693249.1284
        -0.000          -0.000
  -8419201.327 9  -6249356.95046  23395415.826    23395415.5614   23395429.2594
        -0.000          -0.000
 99  3 19  1 28  0.0000000  0  8 30  5  6 17 22 26 10 23            -0.000000021
   3617514.717 9   2958545.88548  21564365.909    21564366.3404   21564374.3654
        -0.000          -0.000
  16952074.209 9  13143264.24546  23735395.981    23735395.4974   23735407.3254
        -0.000          -0.000
 -11575170.029 9  -8828479.68849  20462306.420    20462306.4304   20462313.4414
        -0.000          -0.000
 -15543447.199 9 -12086498.80548  22047178.944    22047178.5164   22047187.9084
        -0.000          -0.000
  -4210441.736 9  -3244238.08145  24652100.465    24652099.7174   24652111.3694
        -0.000          -0.000
   -998853.950 7   -765324.30045  23344861.833    23344859.8104   23344873.1514
        -0.000          -0.000
   7974209.654 8   6217893.85745  22710067.059    22710066.6874   22710075.4874
        -0.000          -0.000
  -8516646.030 9  -6325287.56446  23376872.980    23376872.5874   23376885.8594
        -0.000          -0.000
 99  3 19  1 28 30.0000000  0  8 30  5  6 17 22 26 10 23             0.000000017
   3692971.103 9   3017343.03948  21578724.885    21578725.3094   21578733.2104
        -0.000          -0.000
  17058349.380 9  13226075.91746  23755619.685    23755619.0964   23755631.0714
        -0.000          -0.000
 -11604102.003 9  -8851024.03649  20456800.907    20456800.8924   20456807.8014
        -0.000          -0.000
 -15591439.520 9 -12123895.33648  22038046.302    22038045.8784   22038055.2464
        -0.000          -0.000
  -4287364.176 8  -3304177.55245  24637462.601    24637461.8114   24637473.6584
        -0.000          -0.000
  -1076976.604 8   -826198.87344  23329994.948    23329993.0124   23330007.9344
        -0.000          -0.000
   8062920.353 9   6287019.11045  22726948.527    22726948.0614   22726956.6934
        -0.000          -0.000
  -8613929.501 9  -6401092.55146  23358360.848    23358360.2434   23358373.3164
        -0.000          -0.000
 99  3 19  1 29  0.0000000  0  8 30  5  6 17 22 26 10 23             0.000000060
   3768743.595 9   3076386.50648  21593144.039    21593144.4674   21593152.2514
        -0.000          -0.000
  17164614.879 9  13308880.02846  23775841.556    23775841.0274   23775853.0694
        -0.000          -0.000
 -11632773.238 9  -8873365.21849  20451344.785    20451344.8194   20451351.7624
        -0.000          -0.000
 -15639276.884 9 -12161171.10648  22028943.354    22028942.8904   22028951.9774
        -0.000          -0.000
  -4363984.995 8  -3363881.95845  24622882.011    24622881.1554   24622893.4274
        -0.000          -0.000
  -1154966.508 8   -886970.02044  23315153.703    23315154.2434   23315166.5604
        -0.000          -0.000
   8151895.831 9   6356350.67145  22743880.512    22743879.9094   22743888.2704
        -0.000          -0.000
  -8711055.926 9  -6476775.15946  23339878.156    23339877.5594   23339890.6524
        -0.000          -0.000
 99  3 19  1 29 30.0000000  0  8 30  5  6 17 22 26 10 23             0.000000103
   3844842.902 9   3135684.63848  21607625.445    21607625.8024   21607633.5114
        -0.000          -0.000
  17270862.022 9  13391669.86446  23796060.031    23796059.4814   23796071.5104
        -0.000          -0.000
 -11661170.091 9  -8895492.59849  20445940.974    20445941.0004   20445947.9274
        -0.000          -0.000
 -15686940.317 9 -12198311.34448  22019873.467    22019872.8394   22019881.6884
        -0.000          -0.000
  -4440304.735 8  -3423351.78245  24608358.808    24608357.8384   24608370.4424
        -0.000          -0.000
  -1232820.613 8   -947635.25544  23300339.158    23300340.1614   23300351.8764
        -0.000          -0.000
   8241123.571 8   6425878.77545  22760860.164    22760859.4364   22760867.7834
        -0.000          -0.000
  -8808007.962 9  -6552321.89946  23321428.313    23321427.8134   23321441.0824
        -0.000          -0.000
 99  3 19  1 30  0.0000000  0  8 30  5  6 17 22 26 10 23             0.000000118
   3921284.690 9   3195249.63448  21622172.111    21622172.3614   21622180.0584
        -0.000          -0.000
  17377077.660 9  13474435.12546  23816272.362    23816271.7884   23816284.0554
        -0.000          -0.000
 -11689290.004 9  -8917404.17449  20440589.934    20440589.9844   20440596.8924
        -0.000          -0.000
 -15734442.318 9 -12235325.79548  22010834.007    22010833.3774   22010842.0854
        -0.000          -0.000
  -4516338.533 8  -3482598.80045  24593889.940    24593888.8764   24593901.7984
        -0.000          -0.000
  -1310556.296 7  -1008208.29144  23285546.260    23285547.0034   23285558.4104
        -0.000          -0.000
   8330582.481 8   6495586.99245  22777883.715    22777882.7114   22777890.9924
        -0.000          -0.000
  -8904779.301 9  -6627727.82946  23303012.826    23303012.3424   23303025.8694
        -0.000          -0.000
 99  3 19  1 30 30.0000000  0  8 30  5  6 17 22 26 10 23             0.000000112
   3998166.650 9   3255157.61448  21636802.417    21636802.6334   21636810.3694
        -0.000          -0.000
  17483327.892 9  13557227.36446  23836491.021    23836490.6214   23836503.1104
        -0.000          -0.000
 -11717061.289 9  -8939044.09149  20435305.292    20435305.2234   20435312.2594
        -0.000          -0.000
 -15781734.062 9 -12272176.39848  22001834.724    22001834.0174   22001842.5944
        -0.000          -0.000
  -4592016.496 8  -3541568.53545  24579488.863    24579487.7254   24579500.8034
        -0.000          -0.000
  -1388119.906 8  -1068647.29944  23270786.203    23270786.3914   23270798.1764
        -0.000          -0.000
   8420313.046 7   6565506.91045  22794958.266    22794957.5004   22794966.1684
        -0.000          -0.000
  -9001303.842 9  -6702941.46046  23284644.210    23284643.7984   23284657.5944
        -0.000          -0.000
 99  3 19  1 31  0.0000000  0  8 30  5  6 17 22 26 10 23             0.000000091
   4075552.300 9   3315458.08748  21651528.477    21651528.7284   21651536.3954
        -0.000          -0.000
  17589653.860 9  13640078.62046  23856724.156    23856723.7634   23856736.5414
        -0.000          -0.000
 -11744421.234 9  -8960363.49149  20430098.664    20430098.6674   20430105.8254
        -0.000          -0.000
 -15828778.262 9 -12308834.11748  21992882.339    21992881.6154   21992890.2614
        -0.000          -0.000
  -4667277.640 8  -3600213.46945  24565167.024    24565165.9504   24565179.1424
        -0.000          -0.000
  -1465458.032 8  -1128910.53245  23256068.970    23256068.7114   23256080.9804
        -0.000          -0.000
   8510350.693 8   6635666.10544  22812091.227    22812090.4604   22812099.3324
        -0.000          -0.000
  -9097537.798 9  -6777928.68446  23266331.099    23266330.8344   23266344.4994
        -0.000          -0.000
 99  3 19  1 31 30.0000000  0  8 30  5  6 17 22 26 10 23             0.000000052
   4153423.882 9   3376137.21348  21666346.939    21666347.2104   21666354.8484
        -0.000          -0.000
  17696042.278 9  13722978.51346  23876969.392    23876969.0984   23876981.6974
        -0.000          -0.000
 -11771392.015 9  -8981379.63749  20424966.232    20424966.2904   20424973.3124
        -0.000          -0.000
 -15875607.466 9 -12345324.30248  21983970.794    21983970.1944   21983978.8354
        -0.000          -0.000
  -4742128.406 8  -3658538.60545  24550923.361    24550922.1904   24550935.4054
        -0.000          -0.000
  -1542580.642 8  -1189005.84645  23241392.476    23241392.3204   23241404.7584
        -0.000          -0.000
   8600686.133 8   6706057.30644  22829282.296    22829281.0274   22829293.1164
        -0.000          -0.000
  -9193497.625 9  -6852702.27946  23248070.611    23248070.3164   23248083.5264
        -0.000          -0.000
 99  3 19  1 32  0.0000000  0  8 30  5  6 17 22 26 10 23             0.000000017
   4231805.939 9   3437214.10348  21681262.630    21681262.8844   21681270.3944
        -0.000          -0.000
  17802542.311 9  13805965.36846  23897236.165    23897235.7374   23897247.9534
        -0.000          -0.000
 -11797941.711 9  -9002067.66749  20419914.041    20419914.0484   20419920.9224
        -0.000          -0.000
 -15922200.489 9 -12381630.44748  21975104.265    21975103.6734   21975112.2474
        -0.000          -0.000
  -4816527.969 8  -3716512.16345  24536765.665    24536764.2424   24536777.3484
        -0.000          -0.000
  -1619426.877 8  -1248885.73545  23226768.735    23226768.8644   23226780.9054
        -0.000          -0.000
   8691358.459 7   6776710.94654  22846536.932    22846536.6324          0.0005
        -0.000          -0.000
  -9289160.823 9  -6927244.74146  23229866.533    23229866.0494   23229879.1264
        -0.000          -0.000
 99  3 19  1 32 30.0000000  0  8 30  5  6 17 22 26 10 23            -0.000000030
   4310635.584 9   3498639.76248  21696263.664    21696263.8494   21696271.2864
        -0.000          -0.000
  17909114.666 9  13889008.58046  23917516.579    23917515.9584   23917527.8654
        -0.000          -0.000
 -11824112.592 9  -9022460.51449  20414933.851    20414933.8954   20414940.6874
        -0.000          -0.000
 -15968590.092 9 -12417778.08048  21966276.578    21966275.9644   21966284.3944
        -0.000          -0.000
  -4890508.641 8  -3774159.29645  24522687.725    24522686.0474   24522698.8254
        -0.000          -0.000
  -1696009.829 8  -1308560.49745  23212195.309    23212195.5894   23212207.1814
        -0.000          -0.000
   8782326.82717   6847595.27954  22863847.213    22863847.1375          0.0005
        -0.000          -0.000
  -9384578.552 9  -7001595.93846  23211708.888    23211708.3694   23211721.4454
        -0.000          -0.000
 99  3 19  1 33  0.0000000  0  8 30  5  6 17 22 26 10 23            -0.000000012
   4389867.386 9   3560378.77748  21711341.103    21711341.2014   21711348.7874
        -0.000          -0.000
  18015754.179 9  13972104.15946  23937809.485    23937808.8604   23937820.5614
        -0.000          -0.000
 -11849917.015 9  -9042567.80749  20410023.506    20410023.5254   20410030.2314
        -0.000          -0.000
 -16014762.877 9 -12453756.77548  21957489.946    21957489.4174   21957497.8164
        -0.000          -0.000
  -4964080.174 9  -3831487.65845  24508687.485    24508685.9404   24508698.0734
        -0.000          -0.000
  -1772325.867 7  -1368027.34744  23197672.718    23197673.0274   23197684.2614
        -0.000          -0.000
   8873610.118 7   6918724.96754  22881217.510    22881217.5344          0.0005
        -0.000          -0.000
  -9479751.579 9  -7075756.45646  23193597.759    23193597.3374   23193610.1494
        -0.000          -0.000
 99  3 19  1 33 30.0000000  0  8 30  5  6 17 22 26 10 23             0.000000029
   4469344.903 9   3622309.27648  21726465.007    21726465.2024   21726472.9654
        -0.000          -0.000
  18122348.486 9  14055164.50246  23958093.338    23958092.9884   23958105.1034
        -0.000          -0.000
 -11875476.546 9  -9062484.28449  20405159.666    20405159.6824   20405166.4254
        -0.000          -0.000
 -16060824.244 9 -12489648.66148  21948724.486    21948724.0654   21948732.4824
        -0.000          -0.000
  -5037370.558 9  -3888596.90345  24494740.887    24494739.3544   24494751.1134
        -0.000          -0.000
  -1848481.46517  -1427369.13654  23183179.906    23183179.9415          0.0005
        -0.000          -0.000
   8965087.10317   6990005.61154  22898625.531    22898624.8985          0.0005
        -0.000          -0.000
  -9574799.353 9  -7149819.37846  23175510.734    23175510.2784   23175522.6954
        -0.000          -0.000
 99  3 19  1 34  0.0000000  0  8 30  5  6 17 22 26 10 23             0.000000058
   4549098.122 9   3684454.60948  21741641.375    21741641.6154   21741649.5644
        -0.000          -0.000
  18228942.964 9  14138224.98546  23978377.218    23978377.1354   23978389.5874
        -0.000          -0.000
 -11900730.767 9  -9082162.85049  20400353.938    20400353.9894   20400360.7424
        -0.000          -0.000
 -16106709.626 9 -12525403.40448  21939992.799    21939992.3494   21940000.7514
        -0.000          -0.000
  -5110340.234 9  -3945456.23745  24480855.453    24480853.9974   24480865.3594
        -0.000          -0.000
  -1924417.039 7  -1486539.59944  23168729.103    23168729.6624   23168740.9174
        -0.000          -0.000
   9056801.355 7   2092426.23642         0.000           0.0004          0.0004
        -0.000          -0.000
  -9669663.856 9  -7223739.48746  23157458.370    23157457.8674   23157470.3414
        -0.000          -0.000
 99  3 19  1 34 30.0000000  0  8 30  5  6 17 22 26 10 23             0.000000072
   4629129.859 9   3746816.96448  21756870.748    21756871.0624   21756879.1014
        -0.000          -0.000
  18335527.898 9  14221278.03345  23998659.705    23998659.5444   23998672.3644
        -0.000          -0.000
 -11925662.633 9  -9101590.23249  20395609.609    20395609.6134   20395616.3884
        -0.000          -0.000
 -16152401.944 9 -12561007.70548  21931297.889    21931297.3894   21931305.7384
        -0.000          -0.000
  -5182981.585 9  -4002059.72145  24467032.675    24467031.2174   24467042.0764
        -0.000          -0.000
  -2000150.268 7  -1545552.27944  23154317.307    23154318.2794   23154329.3804
        -0.000          -0.000
   9148761.297 7   2164101.27152         0.000           0.0004          0.0005
        -0.000          -0.000
  -9764318.724 9  -7297496.25246  23139445.507    23139445.2164   23139457.7994
        -0.000          -0.000
 99  3 19  1 35  0.0000000  0  8 30  5  6 17 22 26 10 23             0.000000074
   4709464.039 9   3809415.00248  21772157.699    21772158.0884   21772166.2504
        -0.000          -0.000
  18442112.754 9  14304330.99445  24018942.651    24018942.2314   24018955.0814
        -0.000          -0.000
 -11950252.146 9  -9120750.85649  20390930.252    20390930.2734   20390937.1754
        -0.000          -0.000
 -16197904.764 9 -12596464.35148  21922638.980    21922638.4034   21922646.7294
        -0.000          -0.000
  -5255281.526 9  -4058397.16345  24453274.397    24453273.1614   24453283.7344
        -0.000          -0.000
  -2075686.15017  -1604411.26044  23139942.615    23139943.7625   23139955.3594
        -0.000          -0.000
   9240974.867 7   2236007.15252         0.000           0.0004          0.0005
        -0.000          -0.000
  -9858742.729 9  -7371073.12246  23121476.631    23121476.4564   23121489.1294
        -0.000          -0.000
 99  3 19  1 35 30.0000000  0  8 30  5  6 17 22 26 10 23             0.000000070
   4790156.247 9   3872292.01248  21787512.864    21787513.2494   21787521.5524
        -0.000          -0.000
  18548721.726 9  14387402.72345  24039230.274    24039229.6874   24039242.3824
        -0.000          -0.000
 -11974465.101 9  -9139618.05149  20386322.702    20386322.7124   20386329.5334
        -0.000          -0.000
 -16243221.973 9 -12631776.36648  21914015.033    21914014.6444   21914023.1014
        -0.000          -0.000
  -5327208.863 9  -4114444.29745  24439587.034    24439585.7974   24439596.3444
        -0.000          -0.000
  -2151009.508 8  -1663104.59644  23125607.579    23125609.0344   23125621.0534
        -0.000          -0.000
   9333444.388 8   2119092.06442         0.000           0.0004          0.0004
        -0.000          -0.000
  -9952909.991 9  -7444449.92846  23103556.796    23103556.6914   23103569.2084
        -0.000          -0.000
 99  3 19  1 36  0.0000000  0  8 30  5  6 17 22 26 10 23             0.000000061
   4871230.283 9   3935466.54148  21802940.714    21802941.0684   21802949.5504
        -0.000          -0.000
  18655350.005 9  14470489.52745  24059521.577    24059520.8594   24059533.3584
        -0.000          -0.000
 -11998302.410 9  -9158192.53549  20381786.708    20381786.6734   20381793.3514
        -0.000          -0.000
 -16288368.480 9 -12666955.37148  21905423.895    21905423.5314   21905432.0614
        -0.000          -0.000
  -5398758.180 9  -4170196.86245  24425971.749    24425970.4434   24425980.7094
        -0.000          -0.000
  -2226135.528 8  -1721644.06845  23111311.919    23111313.4004   23111324.6004
        -0.000          -0.000
   9426165.416 8   2191340.36242         0.000           0.0004          0.0004
        -0.000          -0.000
 -10046817.026 9  -7517623.98546  23085686.741    23085686.6914   23085698.8944
        -0.000          -0.000
 99  3 19  1 36 30.0000000  0  8 30  5  6 17 22 26 10 23             0.000000053
   4952712.090 9   3998958.80548  21818446.129    21818446.4644   21818455.0754
        -0.000          -0.000
  18762006.852 8  14553598.56945  24079817.975    24079817.1404   24079829.8264
        -0.000          -0.000
 -12021746.262 9  -9176460.42849  20377325.527    20377325.4714   20377332.0904
        -0.000          -0.000
 -16333343.089 9 -12702000.41948  21896865.654    21896865.1764   21896873.7674
        -0.000          -0.000
  -5469903.370 9  -4225634.51145  24412433.312    24412431.9754   24412442.2164
        -0.000          -0.000
  -2301066.530 8  -1780031.61245  23097053.769    23097054.7404   23097065.6244
        -0.000          -0.000
   9519154.204 8   2263792.13652         0.000           0.0004          0.0005
        -0.000          -0.000
 -10140455.075 9  -7590588.44646  23067868.178    23067868.0974   23067879.8514
        -0.000          -0.000
 99  3 19  1 37  0.0000000  0  8 30  5  6 17 22 26 10 23             0.000000062
   5034614.856 9   4062779.12048  21834031.440    21834031.8554   21834040.5544
        -0.000          -0.000
  18868713.111 8  14636746.13345  24100123.178    24100122.4534   24100135.4824
        -0.000          -0.000
 -12044789.346 9  -9194416.04549  20372940.559    20372940.5074   20372947.1314
        -0.000          -0.000
 -16378126.535 9 -12736896.52548  21888343.440    21888343.0564   21888351.7704
        -0.000          -0.000
  -5540620.144 9  -4280738.34345  24398976.123    24398974.8624   24398985.1804
        -0.000          -0.000
  -2375766.079 8  -1838238.88945  23082839.540    23082840.1624   23082850.6594
        -0.000          -0.000
   9612417.33018   2145613.66052         0.000           0.0005          0.0005
        -0.000          -0.000
 -10233815.499 9  -7663336.56547  23050102.501    23050102.2264   23050113.6264
        -0.000          -0.000
 99  3 19  1 37 30.0000000  0  8 30  5  6 17 22 26 10 23             0.000000070
   5116884.664 9   4126885.43448  21849686.624    21849687.0874   21849695.8224
        -0.000          -0.000
  18975430.970 8  14719902.74845  24120430.527    24120429.7454   24120443.6794
        -0.000          -0.000
 -12067473.319 9  -9212091.83149  20368623.921    20368623.8854   20368630.4314
        -0.000          -0.000
 -16422729.684 9 -12771652.13348  21879855.599    21879855.2624   21879863.9404
        -0.000          -0.000
  -5610942.871 9  -4335535.13445  24385593.573    24385592.5664   24385603.0424
        -0.000          -0.000
  -2450249.757 8  -1896277.93445  23068665.688    23068666.1654   23068676.5404
        -0.000          -0.000
   9705916.878 8   2218457.17542         0.000           0.0004          0.0004
        -0.000          -0.000
 -10326931.732 9  -7735894.38947  23032383.296    23032382.7934   23032393.8904
        -0.000          -0.000
 99  3 19  1 38  0.0000000  0  8 30  5  6 17 22 26 10 23             0.000000084
   5199506.183 9   4191265.81148  21865408.936    21865409.3624   21865418.0264
        -0.000          -0.000
  19082153.249 8  14803062.80045  24140738.650    24140738.0354   24140752.5934
        -0.000          -0.000
 -12089794.082 9  -9229484.59449  20364376.404    20364376.3664   20364382.8404
        -0.000          -0.000
 -16467118.498 9 -12806240.72448  21871408.594    21871408.2594   21871416.7254
        -0.000          -0.000
  -5680862.410 8  -4390017.70445  24372287.388    24372286.7094   24372297.6444
        -0.000          -0.000
  -2524496.340 8  -1954132.23845  23054537.212    23054537.4754   23054547.5754
        -0.000          -0.000
   9799657.520 8   2291428.23652         0.000           0.0004          0.0005
        -0.000          -0.000
 -10419790.819 9  -7808251.85347  23014712.794    23014712.1274   23014723.0764
        -0.000          -0.000
 99  3 19  1 38 30.0000000  0  8 30  5  6 17 22 26 10 23             0.000000139
   5282464.586 9   4255908.67748  21881195.441    21881195.8134   21881204.3644
        -0.000          -0.000
  19188877.130 8  14886224.09445  24161047.392    24161046.8064   24161061.8714
        -0.000          -0.000
 -12111752.754 9  -9246595.20949  20360197.792    20360197.7194   20360204.1614
        -0.000          -0.000
 -16511284.014 9 -12840655.32348  21863004.268    21863003.7784   21863012.2074
        -0.000          -0.000
  -5750377.402 8  -4444185.05645  24359058.478    24359057.9664   24359069.4204
        -0.000          -0.000
  -2598487.832 8  -2011787.76245  23040457.219    23040457.5034   23040467.5304
        -0.000          -0.000
   9893637.961 8    264993.323 1         0.000           0.000           0.000
        -0.000          -0.000
 -10512376.836 9  -7880396.53147  22997093.766    22997093.2754   22997104.1374
        -0.000          -0.000
 99  3 19  1 39  0.0000000  0  8 30  5  6 17 22 26 10 23             0.000000126
   5365705.159 9   4320771.40448  21897035.589    21897036.0274   21897044.3924
        -0.000          -0.000
  19295567.156 8  14969359.02545  24181349.835    24181349.2404   24181364.3774
        -0.000          -0.000
 -12133404.665 9  -9263466.78749  20356077.517    20356077.4414   20356083.8364
        -0.000          -0.000
 -16555250.606 9 -12874914.93848  21854637.485    21854637.0204   21854645.6694
        -0.000          -0.000
  -5819531.361 8  -4498071.06045  24345898.622    24345898.0964   24345910.1384
        -0.000          -0.000
  -2672241.912 8  -2069258.17845  23026422.572    23026422.8294   23026431.7474
        -0.000          -0.000
   9987814.625 8   2245546.83942         0.000           0.0004          0.0004
        -0.000          -0.000
 -10604718.053 9  -7952350.46547  22979521.764    22979521.1794   22979531.6604
        -0.000          -0.000
 99  3 19  1 39 30.0000000  0  8 30  5  6 17 22 26 10 23             0.000000140
   5449241.915 9   4385864.93848  21912932.311    21912932.7924   21912940.9624
        -0.000          -0.000
  19402229.323 9  15052472.22945  24201647.274    24201646.7384   24201661.5304
        -0.000          -0.000
 -12154722.658 9  -9280078.18149  20352020.742    20352020.6904   20352027.1674
        -0.000          -0.000
 -16599006.660 9 -12909010.47748  21846310.922    21846310.4944   21846318.9904
        -0.000          -0.000
  -5888315.632 8  -4551669.01245  24332809.189    24332808.5084   24332821.3184
        -0.000          -0.000
  -2745744.848 8  -2126532.94745  23012435.166    23012435.4334   23012444.4034
        -0.000          -0.000
  10082217.756 8   2319104.67852         0.000           0.0004          0.0005
        -0.000          -0.000
 -10696796.014 9  -8024099.26247  22961999.766    22961999.0994   22962009.3784
        -0.000          -0.000
 99  3 19  1 40  0.0000000  0  8 30  5  6 17 22 26 10 23             0.000000129
   5533039.643 9   4451161.82048  21928878.756    21928879.1924   21928887.2224
        -0.000          -0.000
  19508820.113 8  15135529.82545  24221931.083    24221930.5164   24221945.0774
        -0.000          -0.000
 -12175736.969 9  -9296452.93949  20348021.725    20348021.6984   20348028.2654
        -0.000          -0.000
 -16642600.459 9 -12942979.58048  21838015.314    21838014.8074   21838023.0694
        -0.000          -0.000
  -5956763.924 8  -4605005.12645  24319783.586    24319782.9454   24319796.2234
        -0.000          -0.000
  -2819028.970 9  -2183637.33745  22998489.702    22998489.7674   22998499.1764
        -0.000          -0.000
  10176827.223 8   2392823.37452         0.000           0.0004          0.0005
        -0.000          -0.000
 -10788646.362 9  -8095670.71447  22944520.825    22944520.2494   22944530.8014
        -0.000          -0.000
 99  3 19  1 40 30.0000000  0  8 30  5  6 17 22 26 10 23             0.000000111
   5617117.259 9   4516676.81548  21944878.527    21944878.9264   21944886.7924
        -0.000          -0.000
  19615373.291 9  15218558.07945  24242207.810    24242207.2384   24242221.5294
        -0.000          -0.000
 -12196423.264 9  -9312572.09549  20344085.157    20344085.1434   20344091.7824
        -0.000          -0.000
 -16686013.058 9 -12976807.49348  21829754.168    21829753.6564   21829761.8594
        -0.000          -0.000
  -6024852.128 9  -4658060.68945  24306826.681    24306826.0454   24306839.5974
        -0.000          -0.000
  -2892065.593 9  -2240548.84045  22984591.316    22984591.5084   22984601.1074
        -0.000          -0.000
  10271669.627 8   2272371.15542         0.000           0.0004          0.0004
        -0.000          -0.000
 -10880247.291 9  -8167047.85347  22927089.489    22927089.0674   22927099.7304
        -0.000          -0.000
 99  3 19  1 41  0.0000000  0  8 30  5  6 17 22 26 10 23             0.000000073
   5701461.575 9   4582399.62348  21960928.958    21960929.3444   21960937.1034
        -0.000          -0.000
  19721873.753 9  15301545.32845  24262474.660    24262473.8984   24262488.0914
        -0.000          -0.000
 -12216790.920 9  -9328442.96849  20340209.245    20340209.2364   20340215.9454
        -0.000          -0.000
 -16729256.264 9 -13010503.42448  21821525.240    21821524.7034   21821532.9644
        -0.000          -0.000
  -6092591.910 9  -4710844.75746  24293936.206    24293935.4594   24293949.1464
        -0.000          -0.000
  -2964871.533 9  -2297280.54945  22970736.926    22970737.1204   22970746.6994
        -0.000          -0.000
  10366717.724 8   2346434.04952         0.000           0.0004          0.0005
        -0.000          -0.000
 -10971637.137 9  -8238260.48847  22909698.418    22909698.0074   22909708.8504
        -0.000          -0.000
 99  3 19  1 41 30.0000000  0  8 30  5  6 17 22 26 10 23             0.000000037
   5786130.185 9   4648375.12248  21977041.003    21977041.3814   21977049.0764
        -0.000          -0.000
  19828357.089 9  15384519.20245  24282738.007    24282737.2604   24282751.5284
        -0.000          -0.000
 -12236770.420 9  -9344011.38049  20336407.138    20336407.1684   20336413.9414
        -0.000          -0.000
 -16772291.654 9 -13044037.41048  21813335.888    21813335.3324   21813343.5064
        -0.000          -0.000
  -6159921.401 9  -4763309.10446  24281123.574    24281122.9794   24281136.7014
        -0.000          -0.000
  -3037398.404 8  -2353794.75045  22956935.499    22956935.5054   22956945.1984
        -0.000          -0.000
  10462002.725 8   2420681.25652         0.000           0.0004          0.0005
        -0.000          -0.000
 -11062787.143 9  -8309286.23347  22892353.051    22892352.4944   22892363.4734
        -0.000          -0.000
 99  3 19  1 42  0.0000000  0  8 30  5  6 17 22 26 10 23            -0.000000009
   5871105.673 9   4714589.74648  21993211.187    21993211.5774   21993219.3234
        -0.000          -0.000
  19934821.685 9  15467478.46845  24302997.589    24302996.9754   24303011.5584
        -0.000          -0.000
 -12256376.306 9  -9359288.65549  20332676.279    20332676.2914   20332683.0924
        -0.000          -0.000
 -16815144.558 9 -13077429.19848  21805181.368    21805180.7084   21805188.7104
        -0.000          -0.000
  -6226856.807 8  -4815466.36446  24268385.678    24268385.4274   24268399.3104
        -0.000          -0.000
  -3109659.413 8  -2410101.76245  22943184.273    22943184.2764   22943194.4494
        -0.000          -0.000
  10557476.956 8   2299949.64042         0.000           0.0004          0.0004
        -0.000          -0.000
 -11153710.640 9  -8380135.48947  22875050.613    22875050.1034   22875061.1204
        -0.000          -0.000
 99  3 19  1 42 30.0000000  0  8 30  5  6 17 22 26 10 23            -0.000000054
   5956419.910 9   4781068.33948  22009445.819    22009446.2484   22009454.0644
        -0.000          -0.000
  20041298.793 9  15550447.47345  24323259.633    24323259.1574   24323273.9314
        -0.000          -0.000
 -12275576.760 9  -9374250.00949  20329022.599    20329022.6104   20329029.3674
        -0.000          -0.000
 -16857801.674 9 -13110668.42448  21797063.993    21797063.4174   21797071.2694
        -0.000          -0.000
  -6293366.238 8  -4867291.68346  24255728.746    24255728.6994   24255742.7994
        -0.000          -0.000
  -3181643.377 8  -2466192.99645  22929485.773    22929485.7574   22929496.2924
        -0.000          -0.000
  10653131.743 8   2374487.31152         0.000           0.0004          0.0005
        -0.000          -0.000
 -11244380.488 9  -8450787.08447  22857796.444    22857795.9384   22857806.9884
        -0.000          -0.000
 99  3 19  1 43  0.0000000  0  8 30  5  6 17 22 26 10 23            -0.000000079
   6042114.435 9   4847843.24048  22025753.021    22025753.3684   22025761.1924
        -0.000          -0.000
  20147808.116 9  15633441.57345  24343527.952    24343527.5064   24343542.1774
        -0.000          -0.000
 -12294330.382 9  -9388863.19249  20325453.933    20325453.9414   20325460.6344
        -0.000          -0.000
 -16900253.850 9 -13143747.96248  21788985.653    21788984.9704   21788992.8564
        -0.000          -0.000
  -6359414.206 8  -4918757.43446  24243159.924    24243159.8904   24243173.9814
        -0.000          -0.000
  -3253316.384 8  -2522041.90745  22915846.910    22915846.8584   22915856.5654
        -0.000          -0.000
  10748999.347 8   2449191.05552         0.000           0.0004          0.0005
        -0.000          -0.000
 -11334760.700 9  -8521213.01047  22840597.606    22840597.0934   22840608.0134
        -0.000          -0.000
 99  3 19  1 43 30.0000000  0  8 30  5  6 17 22 26 10 23            -0.000000092
   6128177.745 9   4914905.51048  22042130.327    22042130.7204   22042138.4634
        -0.000          -0.000
  20254333.953 9  15716448.53245  24363799.375    24363798.8734   24363813.5534
        -0.000          -0.000
 -12312641.192 9  -9403131.31549  20321969.590    20321969.5434   20321976.1354
        -0.000          -0.000
 -16942533.434 9 -13176693.01248  21780940.095    21780939.4094   21780947.2664
        -0.000          -0.000
  -6425020.715 9  -4969879.18645  24230675.452    24230675.2624   24230689.1604
        -0.000          -0.000
  -3324685.999 8  -2577654.38045  22902266.064    22902265.9714   22902275.0534
        -0.000          -0.000
  10845083.741 8   2326459.48242         0.000           0.0004          0.0004
        -0.000          -0.000
 -11424839.636 9  -8591404.15747  22823456.134    22823455.5114   22823466.3634
        -0.000          -0.000
 99  3 19  1 44  0.0000000  0  8 30  5  6 17 22 26 10 23            -0.000000085
   6214607.703 9   4982253.49348  22058577.536    22058577.8844   22058585.6264
        -0.000          -0.000
  20360883.061 9  15799473.61045  24384075.118    24384074.4764   24384089.0834
        -0.000          -0.000
 -12330512.872 9  -9417057.25949  20318568.703    20318568.6484   20318575.2064
        -0.000          -0.000
 -16984640.477 9 -13209503.60648  21772927.482    21772926.7364   21772934.5974
        -0.000          -0.000
  -6490187.804 9  -5020658.56946  24218274.886    24218274.4274   24218287.8024
        -0.000          -0.000
  -3395748.515 9  -2633027.51845  22888743.157    22888742.9744   22888752.1434
        -0.000          -0.000
  10941407.553 8   2401521.63752         0.000           0.0004          0.0005
        -0.000          -0.000
 -11514583.205 9  -8661334.00747  22806378.052    22806377.6444   22806388.5164
        -0.000          -0.000
 99  3 19  1 44 30.0000000  0  8 30  5  6 17 22 26 10 23            -0.000000070
   6301366.937 9   5049858.05648  22075087.309    22075087.6854   22075095.5994
        -0.000          -0.000
  20467405.983 8  15882478.28645  24404345.927    24404345.3134   24404359.6864
        -0.000          -0.000
 -12347981.767 9  -9430669.34549  20315244.414    20315244.3394   20315250.8914
        -0.000          -0.000
 -17026602.259 9 -13242201.01948  21764942.276    21764941.5354   21764949.5834
        -0.000          -0.000
  -6554931.239 9  -5071107.79146  24205954.896    24205954.1774   24205967.3054
        -0.000          -0.000
  -3466529.434 8  -2688181.30045  22875273.824    22875273.7184   22875282.8224
        -0.000          -0.000
  11037960.043 7   2476762.69152         0.000           0.0004          0.0005
        -0.000          -0.000
 -11604019.353 9  -8731024.30347  22789358.844    22789358.5154   22789369.2054
        -0.000          -0.000
 99  3 19  1 45  0.0000000  0  8 30  5  6 17 22 26 10 23            -0.000000041
   6388442.804 9   5117709.36048  22091657.242    22091657.6544   22091665.7844
        -0.000          -0.000
  20573892.554 8  15965454.65445  24424609.940    24424609.1554   24424623.2974
        -0.000          -0.000
 -12365053.749 9  -9443972.15149  20311995.607    20311995.5384   20312002.0964
        -0.000          -0.000
 -17068394.661 9 -13274766.44248  21756989.088    21756988.4804   21756996.6904
        -0.000          -0.000
  -6619249.949 9  -5121226.07246  24193715.465    24193714.7004   24193727.5864
        -0.000          -0.000
  -3537010.371 8  -2743101.41445  22861861.331    22861861.4334   22861870.5664
        -0.000          -0.000
  11134762.556 7   2353143.13242         0.000           0.0004          0.0004
        -0.000          -0.000
 -11693135.474 9  -8800465.22547  22772400.976    22772400.3854   22772410.8734
        -0.000          -0.000
 99  3 19  1 45 30.0000000  0  8 30  5  6 17 22 26 10 23            -0.000000018
   6475794.330 9   5185775.44648  22108279.706    22108280.1264   22108288.3104
        -0.000          -0.000
  20680305.117 8  16048373.33345  24444859.681    24444858.8864   24444872.8234
        -0.000          -0.000
 -12381772.650 9  -9456999.84149  20308814.021    20308814.0214   20308820.5884
        -0.000          -0.000
 -17110023.861 9 -13307204.68948  21749067.221    21749066.6354   21749074.9074
        -0.000          -0.000
  -6683169.848 9  -5171033.60146  24181551.970    24181551.2304   24181563.6194
        -0.000          -0.000
  -3607227.323 8  -2797815.76645  22848499.224    22848499.3334   22848508.5144
        -0.000          -0.000
  11231775.149 7   2428740.60652         0.000           0.0004          0.0005
        -0.000          -0.000
 -11781965.132 9  -8869682.94147  22755497.240    22755496.6784   22755506.9464
        -0.000          -0.000
 99  3 19  1 46  0.0000000  0  8 30  5  6 17 22 26 10 23            -0.000000005
   6563404.400 9   5254042.98048  22124951.397    22124951.8244   22124959.8484
        -0.000          -0.000
  20786628.466 8  16131222.48145  24465092.150    24465091.6704   24465105.6974
        -0.000          -0.000
 -12398154.734 9  -9469765.06749  20305696.645    20305696.6194   20305703.1944
        -0.000          -0.000
 -17151491.937 9 -13339517.39648  21741176.036    21741175.4474   21741183.6324
        -0.000          -0.000
  -6746684.770 9  -5220525.60146  24169465.840    24169465.0374   24169476.8424
        -0.000          -0.000
  -3677188.100 8  -2852330.47745  22835186.102    22835186.3004   22835195.1174
        -0.000          -0.000
  11328964.160 7   2504476.34552         0.000           0.0004          0.0005
        -0.000          -0.000
 -11870527.626 9  -8938692.48447  22738644.030    22738643.5854   22738653.8684
        -0.000          -0.000
 99  3 19  1 46 30.0000000  0  8 30  5  6 17 22 26 10 23            -0.000000004
   6651270.027 9   5322509.65048  22141671.721    22141672.1394   22141679.9704
        -0.000          -0.000
  20892863.870 8  16214003.12545  24485307.783    24485307.6044   24485321.6524
        -0.000          -0.000
 -12414199.356 9  -9482267.33249  20302643.359    20302643.3734   20302649.9494
        -0.000          -0.000
 -17192796.033 9 -13371702.30848  21733316.258    21733315.5794   21733323.6114
        -0.000          -0.000
  -6809790.727 9  -5269698.93146  24157457.613    24157456.7004   24157468.0364
        -0.000          -0.000
  -3746891.696 8  -2906644.76945  22821921.450    22821921.8444   22821930.8494
        -0.000          -0.000
  11426321.503 7   2379616.93442         0.000           0.0004          0.0004
        -0.000          -0.000
 -11958840.078 9  -9007507.18947  22721838.346    22721837.9894   22721848.3754
        -0.000          -0.000
 99  3 19  1 47  0.0000000  0  8 30  5  6 17 22 26 10 23            -0.000000002
   6739421.959 9   5391199.42348  22158446.550    22158446.9264   22158454.6644
        -0.000          -0.000
  20999046.742 8  16296742.78945  24505513.330    24505513.2274   24505527.7364
        -0.000          -0.000
 -12429870.599 9  -9494478.66049  20299661.186    20299661.2074   20299667.7954
        -0.000          -0.000
 -17233893.283 9 -13403726.05748  21725495.579    21725494.8834   21725502.9854
        -0.000          -0.000
  -6872461.874 8  -5318533.47145  24145531.776    24145530.6884   24145541.8734
        -0.000          -0.000
  -3816310.467 8  -2960737.07145  22808710.619    22808711.3284   22808720.7984
        -0.000          -0.000
  11523863.295 8   2455521.49552         0.000           0.0004          0.0005
        -0.000          -0.000
 -12046872.741 9  -9076103.87947  22705086.056    22705085.7374   22705096.0654
        -0.000          -0.000
 99  3 19  1 47 30.0000000  0  8 30  5  6 17 22 26 10 23            -0.000000006
   6827844.223 9   5460099.84048  22175272.837    22175273.1584   22175280.9114
        -0.000          -0.000
  21105181.337 8  16379444.87145  24525709.632    24525709.6354   24525724.5264
        -0.000          -0.000
 -12445170.140 9  -9506400.35249  20296749.784    20296749.8124   20296756.3454
        -0.000          -0.000
 -17274819.261 9 -13435616.35348  21717707.399    21717706.7754   21717715.0124
        -0.000          -0.000
  -6934710.400 8  -5367038.68945  24133685.839    24133684.7994   24133696.1264
        -0.000          -0.000
  -3885467.172 8  -3014625.22945  22795550.256    22795551.0694   22795560.6154
        -0.000          -0.000
  11621568.129 7   2531509.60852         0.000           0.0004          0.0005
        -0.000          -0.000
 -12134661.855 9  -9144510.77347  22688380.154    22688379.8724   22688390.0644
        -0.000          -0.000
 99  3 19  1 48  0.0000000  0  8 30  5  6 17 22 26 10 23            -0.000000008
   6916537.026 9   5529211.06447  22192150.477    22192150.7344   22192158.7254
        -0.000          -0.000
  21211295.806 8  16462131.23945  24545902.486    24545902.7554   24545917.2554
        -0.000          -0.000
 -12460071.260 9  -9518011.58049  20293914.276    20293914.2364   20293920.6674
        -0.000          -0.000
 -17315559.613 9 -13467362.00748  21709954.652    21709954.0424   21709962.3224
        -0.000          -0.000
  -6996524.400 8  -5415205.32745  24121922.513    24121921.4824   24121933.1214
        -0.000          -0.000
  -3954355.666 8  -3068304.40845  22782440.750    22782441.5954   22782451.3044
        -0.000          -0.000
  11719448.742 7   2405829.65442         0.000           0.0004          0.0004
        -0.000          -0.000
 -12222185.354 9  -9212710.69547  22671724.990    22671724.5624   22671734.6984
        -0.000          -0.000
 99  3 19  1 48 30.0000000  0  8 30  5  6 17 22 26 10 23            -0.000000002
   7005505.779 9   5598537.31647  22209080.545    22209080.8044   22209089.1844
        -0.000          -0.000
  21317396.951 8  16544807.22345  24566093.343    24566093.3954   24566107.5704
        -0.000          -0.000
 -12474568.541 9  -9529308.12949  20291155.442    20291155.4064   20291161.8614
        -0.000          -0.000
 -17356087.062 9 -13498941.75248  21702242.524    21702241.9204   21702250.0764
        -0.000          -0.000
  -7057907.520 9  -5463036.21745  24110241.083    24110240.0794   24110252.0774
        -0.000          -0.000
  -4022969.561 8  -3121769.61045  22769383.911    22769384.7234   22769394.2644
        -0.000          -0.000
  11817523.454 7   2482207.50552         0.000           0.0004          0.0005
        -0.000          -0.000
 -12309424.363 9  -9280688.93447  22655123.731    22655123.2754   22655133.5164
        -0.000          -0.000
 99  3 19  1 49  0.0000000  0  8 30  5  6 17 22 26 10 23             0.000000014
   7094751.253 9   5668079.21147  22226063.132    22226063.5264   22226072.1224
        -0.000          -0.000
  21423484.874 9  16627472.93945  24586282.028    24586281.8814   24586295.6144
        -0.000          -0.000
 -12488657.096 9  -9540286.19549  20288474.474    20288474.4614   20288480.8544
        -0.000          -0.000
 -17396391.780 9 -13530347.94148  21694572.720    21694572.0514   21694580.2104
        -0.000          -0.000
  -7118854.507 9  -5510527.27246  24098642.679    24098641.9984   24098654.2154
        -0.000          -0.000
  -4091293.515 8  -3175008.91645  22756382.331    22756382.8364   22756392.3054
        -0.000          -0.000
  11915790.261 7   2558707.82652         0.000           0.0004          0.0005
        -0.000          -0.000
 -12396364.962 9  -9348434.66447  22638579.030    22638578.6394   22638589.0004
        -0.000          -0.000
 99  3 19  1 49 30.0000000  0  8 30  5  6 17 22 26 10 23             0.000000031
   7184256.247 9   5737823.31047  22243095.358    22243095.7754   22243104.5064
        -0.000          -0.000
  21529531.738 8  16710106.65945  24606462.614    24606462.1404   24606476.1234
        -0.000          -0.000
 -12502354.626 9  -9550959.56549  20285867.914    20285867.8764   20285874.2224
        -0.000          -0.000
 -17436506.881 9 -13561606.38048  21686938.836    21686938.3054   21686946.5414
        -0.000          -0.000
  -7179378.275 9  -5557688.57746  24087125.038    24087124.5414   24087136.7924
        -0.000          -0.000
  -4159322.641 8  -3228018.47445  22743436.639    22743437.2154   22743446.9064
        -0.000          -0.000
  12014232.546 7   2432013.64942         0.000           0.0004          0.0004
        -0.000          -0.000
 -12483024.201 9  -9415961.16247  22622087.901    22622087.5854   22622098.0684
        -0.000          -0.000
 99  3 19  1 50  0.0000000  0  8 30  5  6 17 22 26 10 23             0.000000040
   7274020.463 9   5807769.39647  22260176.931    22260177.2904   22260186.2084
        -0.000          -0.000
  21635495.821 8  16792675.84345  24626627.244    24626626.6214   24626641.0804
        -0.000          -0.000
 -12515683.899 9  -9561345.97749  20283331.400    20283331.3624   20283337.7064
        -0.000          -0.000
 -17476442.397 9 -13592724.87848  21679339.343    21679338.8264   21679346.9724
        -0.000          -0.000
  -7239494.098 9  -5604531.98846  24075685.187    24075684.7304   24075696.9334
        -0.000          -0.000
  -4227040.812 9  -3280785.62345  22730550.770    22730551.2264   22730560.4044
        -0.000          -0.000
  12112838.588 8   2508839.01352         0.000           0.0004          0.0005
        -0.000          -0.000
 -12569386.564 9  -9483256.32847  22605653.665    22605653.4014   22605663.6854
        -0.000          -0.000
 99  3 19  1 50 30.0000000  0  8 30  5  6 17 22 26 10 23             0.000000042
   7364063.166 9   5877932.50447  22277311.488    22277311.8084   22277320.8884
        -0.000          -0.000
  21741366.205 8  16875172.01645  24646773.794    24646773.2544   24646788.2394
        -0.000          -0.000
 -12528637.385 9  -9571439.56949  20280866.444    20280866.3784   20280872.7544
        -0.000          -0.000
 -17516214.119 9 -13623715.74048  21671771.040    21671770.4564   21671778.4754
        -0.000          -0.000
  -7299201.496 9  -5651057.14846  24064323.061    24064322.5974   24064334.6904
        -0.000          -0.000
  -4294415.922 9  -3333285.47645  22717729.762    22717730.3134   22717739.1094
        -0.000          -0.000
  12211615.816 8   2585788.72352         0.000           0.0004          0.0005
        -0.000          -0.000
 -12655458.550 9  -9550325.21347  22589274.952    22589274.5704   22589284.5474
        -0.000          -0.000
 99  3 19  1 51  0.0000000  0  8 30  5  6 17 22 26 10 23             0.000000037
   7454379.838 9   5948309.10147  22294498.094    22294498.4704   22294507.6814
        -0.000          -0.000
  21847140.252 8  16957593.15445  24666901.980    24666901.7484   24666916.9754
        -0.000          -0.000
 -12541197.663 9  -9581226.77149  20278476.198    20278476.1534   20278482.5774
        -0.000          -0.000
 -17555844.834 9 -13654596.74048  21664229.393    21664228.8874   21664236.8784
        -0.000          -0.000
  -7358485.590 9  -5697252.46946  24053041.294    24053040.9964   24053053.2384
        -0.000          -0.000
  -4361425.921 9  -3385500.96545  22704977.814    22704978.4414   22704987.2884
        -0.000          -0.000
  12310563.123 8   2458058.74942         0.000           0.0004          0.0004
        -0.000          -0.000
 -12741257.373 9  -9617181.24847  22572948.053    22572947.6144   22572957.3544
        -0.000          -0.000
 99  3 19  1 51 30.0000000  0  8 30  5  6 17 22 26 10 23             0.000000006
   7544981.907 9   6018908.05247  22311739.346    22311739.6534   22311748.6674
        -0.000          -0.000
  21952826.716 8  17039946.03045  24687013.687    24687013.5254   24687028.9804
        -0.000          -0.000
 -12553335.614 9  -9590684.88849  20276166.400    20276166.3724   20276172.8204
        -0.000          -0.000
 -17595326.129 9 -13685361.31348  21656716.356    21656715.8284   21656723.8594
        -0.000          -0.000
  -7417338.259 9  -5743111.58446  24041841.965    24041841.6404   24041853.8364
        -0.000          -0.000
  -4428063.150 9  -3437425.93346  22692297.146    22692297.7094   22692306.5214
        -0.000          -0.000
  12409697.621 8   2535305.92552         0.000           0.0004          0.0005
        -0.000          -0.000
 -12826774.683 9  -9683817.92647  22556674.312    22556673.9114   22556683.6634
        -0.000          -0.000
 99  3 19  1 52  0.0000000  0  8 30  5  6 17 22 26 10 23             0.000000009
   7635861.592 9   6089723.32347  22329033.496    22329033.8114   22329042.4404
        -0.000          -0.000
  22058431.933 8  17122235.57145  24707110.094    24707109.9824   24707125.3774
        -0.000          -0.000
 -12565031.047 9  -9599798.17649  20273940.846    20273940.8334   20273947.2394
        -0.000          -0.000
 -17634646.142 9 -13716000.21248  21649234.000    21649233.4674   21649241.4944
        -0.000          -0.000
  -7475765.901 9  -5788639.51246  24030723.705    24030723.3064   24030735.2124
        -0.000          -0.000
  -4494339.689 9  -3489069.79245  22679685.303    22679685.6114   22679694.0174
        -0.000          -0.000
  12509020.667 8   2612700.51752         0.000           0.0004          0.0005
        -0.000          -0.000
 -12912001.468 9  -9750228.23247  22540455.712    22540455.3394   22540465.1614
        -0.000          -0.000
 99  3 19  1 52 30.0000000  0  8 30  5  6 17 22 26 10 23             0.000000004
   7727009.691 9   6160747.76247  22346378.691    22346379.0334   22346387.1554
        -0.000          -0.000
  22163975.401 8  17204476.99245  24727195.056    24727194.6984   24727209.9834
        -0.000          -0.000
 -12576266.754 9  -9608553.23949  20271802.673    20271802.6834   20271809.0634
        -0.000          -0.000
 -17673784.323 9 -13746497.42948  21641786.293    21641785.7434   21641793.6874
        -0.000          -0.000
  -7533753.627 9  -5833824.62846  24019689.131    24019688.5764   24019700.4334
        -0.000          -0.000
  -4560248.354 8  -3540427.04145  22667143.393    22667143.5344   22667151.9184
        -0.000          -0.000
  12608523.53718   2690235.46844         0.000           0.0005   23591959.0944
        -0.000          -0.000
 -12996946.673 9  -9816419.12547  22524290.647    22524290.3294   22524300.3684
        -0.000          -0.000
 99  3 19  1 53  0.0000000  0  8 30  5  6 17 22 26 10 23            -0.000000011
   7818414.020 9   6231971.85147  22363772.370    22363772.7124   22363780.8294
        -0.000          -0.000
  22269456.830 8  17286670.08045  24747267.852    24747267.5234   24747282.3134
        -0.000          -0.000
 -12587048.115 9  -9616954.26949  20269751.048    20269751.0534   20269757.3194
        -0.000          -0.000
 -17712732.352 9 -13776846.46548  21634374.965    21634374.3044   21634382.0804
        -0.000          -0.000
  -7591296.401 9  -5878662.99346  24008739.154    24008738.5464   24008750.4104
        -0.000          -0.000
  -4625793.598 8  -3591501.11545  22654670.128    22654670.2794   22654679.0534
        -0.000          -0.000
  12708191.493 8   2767898.77145  23610915.367    23610906.7154   23610921.6584
        -0.000          -0.000
 -13081585.599 9  -9882371.36547  22508184.026    22508183.7894   22508194.0454
        -0.000          -0.000
 99  3 19  1 53 30.0000000  0  8 30  5  6 17 22 26 10 23            -0.000000019
   7910095.793 9   6303412.14547  22381218.820    22381219.1044   22381227.3624
        -0.000          -0.000
  22374898.582 8  17368832.24245  24767332.726    24767332.5034   24767347.1154
        -0.000          -0.000
 -12597358.066 9  -9624987.96449  20267789.150    20267789.1614   20267795.3584
        -0.000          -0.000
 -17751465.378 9 -13807027.97848  21627004.308    21627003.6274   21627011.4174
        -0.000          -0.000
  -7648374.872 9  -5923139.58746  23997877.954    23997877.1344   23997888.8414
        -0.000          -0.000
  -4690964.254 9  -3642283.31146  22642268.167    22642268.4244   22642277.5734
        -0.000          -0.000
  12808040.272 8   2845703.02745  23629915.485    23629907.3814   23629925.0744
        -0.000          -0.000
 -13165868.080 9  -9948045.87347  22492145.524    22492145.2424   22492155.5164
        -0.000          -0.000
 99  3 19  1 54  0.0000000  0  8 30  5  6 17 22 26 10 23            -0.000000014
   8002039.502 9   6375056.55347  22398715.175    22398715.4624   22398723.7154
        -0.000          -0.000
  22480288.535 8  17450954.03345  24787387.596    24787387.3394   24787402.2224
        -0.000          -0.000
 -12607228.170 9  -9632678.91949  20265911.044    20265911.0414   20265917.0884
        -0.000          -0.000
 -17789985.332 9 -13837043.46048  21619674.024    21619673.4424   21619681.3604
        -0.000          -0.000
  -7704981.297 9  -5967248.34946  23987106.674    23987105.6124   23987116.9854
        -0.000          -0.000
  -4755765.391 9  -3692777.54246  22629937.032    22629937.2204   22629946.4224
        -0.000          -0.000
  12908043.136 8   2923627.34844  23648945.032    23648944.1264   23648955.0394
        -0.000          -0.000
 -13249791.406 9 -10013440.50247  22476175.378    22476175.1474   22476185.2774
        -0.000          -0.000
 99  3 19  1 54 30.0000000  0  8 30  5  6 17 22 26 10 23            -0.000000007
   8094209.754 9   6446877.47847  22416254.805    22416255.0494   22416263.2014
        -0.000          -0.000
  22585600.391 8  17533014.98145  24807427.433    24807427.2564   24807442.8914
        -0.000          -0.000
 -12616710.913 9  -9640068.03549  20264106.692    20264106.6814   20264112.4994
        -0.000          -0.000
 -17828328.060 9 -13866920.84348  21612377.404    21612376.8434   21612385.0274
        -0.000          -0.000
  -7761131.147 9  -6011001.35846  23976422.075    23976420.8094   23976431.8274
        -0.000          -0.000
  -4820234.906 9  -3743013.32846  22617668.568    22617668.8744   22617677.9884
        -0.000          -0.000
  13008165.686 8   3001644.90844  23667997.563    23667997.6174   23668007.2124
        -0.000          -0.000
 -13333385.725 9 -10078578.76947  22460267.944    22460267.7104   22460277.5314
        -0.000          -0.000
 99  3 19  1 55  0.0000000  0  8 30  5  6 17 22 26 10 23             0.000000008
   8186605.876 9   6518874.40247  22433837.530    22433837.6974   22433845.5464
        -0.000          -0.000
  22690831.109 8  17615012.69445  24827451.908    24827451.7344   24827468.0504
        -0.000          -0.000
 -12625814.140 9  -9647161.41949  20262374.395    20262374.3404   20262380.0974
        -0.000          -0.000
 -17866512.627 9 -13896674.96748  21605110.834    21605110.3244   21605118.6544
        -0.000          -0.000
  -7816819.139 9  -6054394.48146  23965824.972    23965823.7154   23965834.5334
        -0.000          -0.000
  -4884396.721 8  -3793009.36246  22605458.644    22605459.0574   22605468.3004
        -0.000          -0.000
  13108423.215 8   3079767.61054  23687076.285    23687076.4144          0.0005
        -0.000          -0.000
 -13416651.828 9 -10143461.26947  22444422.808    22444422.5404   22444432.1804
        -0.000          -0.000
 99  3 19  1 55 30.0000000  0  8 30  5  6 17 22 26 10 23             0.000000026
   8279221.799 9   6591042.60047  22451461.759    22451462.0364   22451469.6764
        -0.000          -0.000
  22795981.435 8  17696947.77645  24847461.500    24847461.4304   24847477.6254
        -0.000          -0.000
 -12634542.046 9  -9653962.35249  20260713.282    20260713.2704   20260719.2464
        -0.000          -0.000
 -17904533.379 9 -13926301.43548  21597875.572    21597875.0634   21597883.3854
        -0.000          -0.000
  -7872037.452 9  -6097421.59046  23955317.092    23955315.8604   23955326.5074
        -0.000          -0.000
  -4948261.963 9  -3842774.28046  22593305.296    22593305.5514   22593315.1304
        -0.000          -0.000
  13208815.51018   3157995.37853         0.000           0.0005          0.0005
        -0.000          -0.000
 -13499617.635 9 -10208109.76847  22428634.609    22428634.4304   22428644.1084
        -0.000          -0.000
 99  3 19  1 56  0.0000000  0  8 30  5  6 17 22 26 10 23             0.000000043
   8372057.929 9   6663382.38447  22469127.903    22469128.2364   22469135.7684
        -0.000          -0.000
  22901050.361 8  17778819.40445  24867455.769    24867455.5584   24867471.4594
        -0.000          -0.000
 -12642903.526 9  -9660477.75249  20259122.113    20259122.1314   20259128.1804
        -0.000          -0.000
 -17942386.229 9 -13955797.09648  21590672.178    21590671.6694   21590680.0764
        -0.000          -0.000
  -7926794.031 9  -6140088.93546  23944896.870    23944895.5344   23944906.3634
        -0.000          -0.000
  -5011829.752 9  -3892307.44646  22581208.628    22581208.9744   22581218.6084
        -0.000          -0.000
  13309339.03218   3236325.36953         0.000           0.0005          0.0005
        -0.000          -0.000
 -13582305.087 9 -10272541.36847  22412899.596    22412899.3634   22412909.1824
        -0.000          -0.000
 99  3 19  1 56 30.0000000  0  8 30  5  6 17 22 26 10 23             0.000000061
   8465121.461 9   6735899.38347  22486837.348    22486837.5574   22486845.1554
        -0.000          -0.000
  23006035.462 8  17860625.69445  24887434.371    24887433.9864   24887450.2034
        -0.000          -0.000
 -12650882.090 9  -9666694.78749  20257604.009    20257603.9824   20257609.9874
        -0.000          -0.000
 -17980090.135 9 -13985176.70248  21583497.212    21583496.8464   21583505.1794
        -0.000          -0.000
  -7981093.144 9  -6182399.77646  23934563.606    23934562.5674   23934573.4314
        -0.000          -0.000
  -5075088.963 9  -3941600.20546  22569170.653    22569171.0884   22569180.6434
        -0.000          -0.000
  13410008.970 8   2597902.33042         0.000           0.0004          0.0004
        -0.000          -0.000
 -13664722.702 9 -10336762.71547  22397215.872    22397215.7004   22397225.7274
        -0.000          -0.000
 99  3 19  1 57  0.0000000  0  8 30  5  6 17 22 26 10 23             0.000000083
   8558421.330 9   6808600.53947  22504591.418    22504591.6864   22504599.6154
        -0.000          -0.000
  23110918.736 8  17942352.65645  24907393.647    24907393.0204   24907408.9784
        -0.000          -0.000
 -12658461.928 9  -9672601.11849  20256161.550    20256161.5014   20256167.5504
        -0.000          -0.000
 -18017637.507 9 -14014434.31148  21576352.291    21576351.8134   21576359.9444
        -0.000          -0.000
  -8034940.638 9  -6224358.68946  23924316.892    23924315.7314   23924326.9414
        -0.000          -0.000
  -5138009.989 9  -3990629.45846  22557197.195    22557197.4874   22557206.9214
        -0.000          -0.000
  13510828.781 8   2676433.60752         0.000           0.0004          0.0005
        -0.000          -0.000
 -13746865.336 9 -10400769.78447  22381584.697    22381584.4224   22381594.4664
        -0.000          -0.000
 99  3 19  1 57 30.0000000  0  8 30  5  6 17 22 26 10 23             0.000000093
   8651940.080 9   6881472.26347  22522387.083    22522387.4064   22522395.8834
        -0.000          -0.000
  23215673.652 8  18023979.54345  24927328.048    24927327.2404   24927343.2464
        -0.000          -0.000
 -12665646.057 9  -9678199.11649  20254794.270    20254794.2584   20254800.5124
        -0.000          -0.000
 -18055020.216 9 -14043563.60248  21569238.611    21569238.1674   21569246.0304
        -0.000          -0.000
  -8088361.797 9  -6265985.42346  23914151.086    23914150.0384   23914161.3444
        -0.000          -0.000
  -5200581.796 9  -4039386.54146  22545290.175    22545290.4704   22545299.6334
        -0.000          -0.000
  13611765.166 8   2755048.16352         0.000           0.0004          0.0005
        -0.000          -0.000
 -13828722.717 9 -10464554.57847  22366007.732    22366007.4064   22366017.2894
        -0.000          -0.000
 99  3 19  1 58  0.0000000  0  8 30  5  6 17 22 26 10 23             0.000000092
   8745667.564 9   6954506.61247  22540222.717    22540223.0084   22540231.8554
        -0.000          -0.000
  23320290.082 8  18105498.57345  24947235.536    24947234.5304   24947250.8664
        -0.000          -0.000
 -12672423.657 9  -9683480.34049  20253504.449    20253504.5104   20253510.7324
        -0.000          -0.000
 -18092246.205 9 -14072570.78048  21562154.798    21562154.2914   21562162.2084
        -0.000          -0.000
  -8141360.524 9  -6307282.99746  23904065.897    23904064.9004   23904076.0914
        -0.000          -0.000
  -5262787.747 8  -4087858.51646  22533452.745    22533452.9564   22533461.8854
        -0.000          -0.000
  13712819.095 7   2623811.20342         0.000           0.0004          0.0004
        -0.000          -0.000
 -13910264.491 9 -10528093.45447  22350490.805    22350490.3584   22350500.1964
        -0.000          -0.000
 99  3 19  1 58 30.0000000  0  8 30  5  6 17 22 26 10 23             0.000000089
   8839608.841 9   7027707.55647  22558099.064    22558099.4434   22558108.4084
        -0.000          -0.000
  23424781.596 7  18186920.21245  24967118.819    24967118.2554   24967134.5894
        -0.000          -0.000
 -12678750.326 9  -9688410.17549  20252300.675    20252300.6444   20252306.6924
        -0.000          -0.000
 -18129278.452 9 -14101427.00948  21555107.624    21555107.1904   21555115.2934
        -0.000          -0.000
  -8193902.643 9  -6348224.77546  23894067.543    23894066.4424   23894077.3544
        -0.000          -0.000
  -5324596.072 8  -4136020.67246  22521690.625    22521690.8394   22521699.9594
        -0.000          -0.000
  13814015.207 7   2702668.89652         0.000           0.0004          0.0005
        -0.000          -0.000
 -13991450.854 9 -10591355.38847  22335041.346    22335040.9334   22335050.7104
        -0.000          -0.000
 99  3 19  1 59  0.0000000  0  8 30  5  6 17 22 26 10 23             0.000000069
   8933744.107 9   7101059.65847  22576012.492    22576012.8914   22576021.8354
        -0.000          -0.000
  23529144.742 8  18268241.84845  24986977.945    24986977.6454   24986994.3094
        -0.000          -0.000
 -12684626.697 9  -9692989.13849  20251182.373    20251182.3584   20251188.3504
        -0.000          -0.000
 -18166105.286 9 -14130123.16648  21548099.785    21548099.3714   21548107.4274
        -0.000          -0.000
  -8245999.992 9  -6388819.96746  23884153.537    23884152.5254   23884163.2694
        -0.000          -0.000
  -5386013.892 9  -4183878.59246  22510002.936    22510003.2704   22510012.4334
        -0.000          -0.000
  13915330.705 7   2781620.93552         0.000           0.0004          0.0005
        -0.000          -0.000
 -14072281.246 9 -10654339.94647  22319659.696    22319659.3424   22319668.9384
        -0.000          -0.000
 99  3 19  1 59 30.0000000  0  8 30  5  6 17 22 26 10 23             0.000000055
   9028106.723 9   7174588.90147  22593969.284    22593969.6504   22593978.5964
        -0.000          -0.000
  23633428.535 8  18349501.66145  25006822.622    25006822.7554   25006839.4214
        -0.000          -0.000
 -12690017.023 9  -9697189.37349  20250156.516    20250156.5584   20250162.6474
        -0.000          -0.000
 -18202697.997 9 -14158636.89148  21541136.328    21541135.9024   21541143.9594
        -0.000          -0.000
  -8297607.503 9  -6429033.47046  23874332.981    23874332.0244   23874342.3374
        -0.000          -0.000
  -5447016.193 9  -4231412.73846  22498394.429    22498394.7854   22498403.9604
        -0.000          -0.000
  14016796.523 7   2649720.68842         0.000           0.0004          0.0004
        -0.000          -0.000
 -14152720.411 9 -10717019.64547  22304352.490    22304352.1494   22304361.7434
        -0.000          -0.000
 99  3 19  2  0  0.0000000  0  8 30  5  6 17 22 26 10 23             0.000000033
   9122674.068 9   7248277.70647  22611964.777    22611965.3324   22611974.3224
        -0.000          -0.000
  23737614.402 8  18430685.16145  25026649.205    25026649.3404   25026665.5924
        -0.000          -0.000
 -12694948.015 9  -9701031.66949  20249218.214    20249218.2384   20249224.3784
        -0.000          -0.000
 -18239109.810 9 -14187009.64848  21534207.271    21534206.8794   21534214.9274
        -0.000          -0.000
  -8348745.411 9  -6468881.00546  23864601.626    23864600.5724   23864610.6474
        -0.000          -0.000
  -5507633.549 9  -4278646.90746  22486859.491    22486859.8014   22486868.4244
        -0.000          -0.000
  14118395.024 6   2728814.84252         0.000           0.0004          0.0005
        -0.000          -0.000
 -14232821.493 9 -10779435.90247  22289109.462    22289109.2414   22289118.6124
        -0.000          -0.000
 99  3 19  2  0 30.0000000  0  8 30  5  6 17 22 26 10 23             0.000000022
   9217492.512 9   7322162.15147  22630008.326    22630008.8314   22630017.7754
        -0.000          -0.000
  23841729.843 8  18511813.77145  25046462.086    25046462.4144   25046478.3744
        -0.000          -0.000
 -12699399.496 9  -9704500.33949  20248371.151    20248371.1744   20248377.3174
        -0.000          -0.000
 -18275323.247 9 -14215227.83148  21527316.004    21527315.6104   21527323.7694
        -0.000          -0.000
  -8399394.798 9  -6508347.91346  23854963.142    23854962.0844   23854971.8394
        -0.000          -0.000
  -5567837.184 9  -4325558.65546  22475403.068    22475403.2934   22475411.9164
        -0.000          -0.000
  14220147.07116   2807986.11752         0.000           0.0005          0.0005
        -0.000          -0.000
 -14312583.490 9 -10841587.92747  22273931.132    22273930.8694   22273939.9064
        -0.000          -0.000
 99  3 19  2  1  0.0000000  0  8 30  5  6 17 22 26 10 23             0.000000019
   9312551.630 9   7396234.13547  22648097.741    22648098.1974   22648106.7704
        -0.000          -0.000
  23945761.845 8  18592877.36345  25066259.164    25066259.1694   25066275.3644
        -0.000          -0.000
 -12703403.864 9  -9707620.59649  20247609.150    20247609.1424   20247615.2464
        -0.000          -0.000
 -18311371.054 9 -14243316.95948  21520456.198    21520455.7794   21520464.0884
        -0.000          -0.000
  -8449577.291 9  -6547451.00346  23845413.642    23845412.5454   23845422.0224
        -0.000          -0.000
  -5627638.834 9  -4372157.22346  22464022.808    22464023.0704   22464032.0154
        -0.000          -0.000
  14322026.77316   2675616.38342         0.000           0.0005          0.0004
        -0.000          -0.000
 -14392022.114 9 -10903487.97747  22258814.408    22258814.0944   22258822.7954
        -0.000          -0.000
 99  3 19  2  1 30.0000000  0  8 30  5  6 17 22 26 10 23             0.000000013
   9407826.793 9   7470474.48247  22666228.208    22666228.5374   22666236.8574
        -0.000          -0.000
  24049680.124 8  18673852.30245  25086034.595    25086034.4194   25086050.8184
        -0.000          -0.000
 -12706985.631 9  -9710411.55849  20246927.510    20246927.5044   20246933.5524
        -0.000          -0.000
 -18347281.330 9 -14271298.91648  21513622.637    21513622.2094   21513630.3914
        -0.000          -0.000
  -8499312.252 9  -6586205.36146  23835949.015    23835947.9084   23835957.6044
        -0.000          -0.000
  -5687057.720 9  -4418457.51446  22452715.652    22452715.9084   22452724.8784
        -0.000          -0.000
  14424005.30816   2755075.52952         0.000           0.0005          0.0005
        -0.000          -0.000
 -14471147.907 9 -10965144.28547  22243757.221    22243756.8084   22243765.4934
        -0.000          -0.000
 99  3 19  2  2  0.0000000  0  8 30  5  6 17 22 26 10 23             0.000000015
   9503324.886 9   7544888.53747  22684400.910    22684401.2264   22684409.5224
        -0.000          -0.000
  24153502.641 8  18754752.64445  25105791.669    25105791.5614   25105807.9584
        -0.000          -0.000
 -12710117.713 9  -9712852.11349  20246331.440    20246331.4664   20246337.4784
        -0.000          -0.000
 -18383026.006 9 -14299151.83348  21506820.724    21506820.2984   21506828.1774
        -0.000          -0.000
  -8548582.764 9  -6624597.79146  23826572.748    23826571.7484   23826581.8474
        -0.000          -0.000
  -5746055.196 9  -4464429.43146  22441488.849    22441489.0504   22441497.9504
        -0.000          -0.000
  14526105.05717   2834625.51752         0.000           0.0005          0.0005
        -0.000          -0.000
 -14549933.377 9 -11026535.39347  22228764.598    22228764.2374   22228773.1144
        -0.000          -0.000
 99  3 19  2  2 30.0000000  0  8 30  5  6 17 22 26 10 23             0.000000010
   9599012.105 9   7619449.96147  22702609.718    22702609.9204   22702618.3304
        -0.000          -0.000
  24257208.324 8  18835561.94345  25125526.243    25125526.1314   25125543.0824
        -0.000          -0.000
 -12712821.777 9  -9714959.14949  20245816.887    20245816.8934   20245822.8254
        -0.000          -0.000
 -18418599.374 9 -14326871.26648  21500051.361    21500050.8454   21500058.6414
        -0.000          -0.000
  -8597400.702 9  -6662637.58746  23817282.802    23817281.8784   23817292.2844
        -0.000          -0.000
  -5804653.821 9  -4510090.54846  22430337.723    22430337.9514   22430346.5044
        -0.000          -0.000
  14628298.914 7   2701425.37142         0.000           0.0004          0.0004
        -0.000          -0.000
 -14628376.221 9 -11087659.53448  22213837.362    22213837.0014   22213845.9574
        -0.000          -0.000
 99  3 19  2  3  0.0000000  0  8 30  5  6 17 22 26 10 23             0.000000004
   9694882.879 9   7694154.42147  22720853.443    22720853.6104   22720862.0874
        -0.000          -0.000
  24360810.165 8  18916290.30645  25145241.142    25145240.9424   25145258.0634
        -0.000          -0.000
 -12715082.660 9  -9716720.85149  20245386.602    20245386.5914   20245392.5004
        -0.000          -0.000
 -18453982.352 9 -14354442.34648  21493317.884    21493317.4764   21493325.3334
        -0.000          -0.000
  -8645737.266 9  -6700302.31046  23808084.607    23808083.7164   23808094.3234
        -0.000          -0.000
  -5862848.404 9  -4555436.83646  22419263.401    22419263.6474   22419272.2434
        -0.000          -0.000
  14730603.73017   2781164.89352         0.000           0.0005          0.0005
        -0.000          -0.000
 -14706445.147 9 -11148492.29748  22198981.476    22198980.9564   22198989.9054
        -0.000          -0.000
 99  3 19  2  3 30.0000000  0  8 30  5  6 17 22 26 10 23            -0.000000008
   9790920.953 9   7768989.22347  22739128.927    22739129.0484   22739137.6244
        -0.000          -0.000
  24464279.003 8  18996915.03645  25164930.767    25164930.6304   25164947.9544
        -0.000          -0.000
 -12716921.366 9  -9718153.57849  20245036.558    20245036.5934   20245042.5884
        -0.000          -0.000
 -18489208.076 9 -14381890.88048  21486614.588    21486614.2064   21486621.9184
        -0.000          -0.000
  -8693613.857 9  -6737608.59946  23798974.043    23798973.1144   23798983.8254
        -0.000          -0.000
  -5920661.923 9  -4600486.19646  22408261.511    22408261.8444   22408270.6274
        -0.000          -0.000
  14833010.533 7   2861008.02252         0.000           0.0004          0.0005
        -0.000          -0.000
 -14784173.149 9 -11209059.41748  22184190.086    22184189.6654   22184198.7534
        -0.000          -0.000
 99  3 19  2  4  0.0000000  0  8 30  5  6 17 22 26 10 23            -0.000000009
   9887132.880 9   7843959.49647  22757437.451    22757437.5444   22757446.1634
        -0.000          -0.000
  24567626.240 8  19077445.03245  25184597.334    25184597.4454   25184614.8434
        -0.000          -0.000
 -12718341.217 9  -9719259.92449  20244766.185    20244766.2404   20244772.3874
        -0.000          -0.000
 -18524271.620 9 -14409213.03548  21479942.450    21479941.9354   21479949.5534
        -0.000          -0.000
  -8741005.765 9  -6774537.20646  23789955.541    23789954.4784   23789965.4494
        -0.000          -0.000
  -5978089.487 9  -4645234.82546  22397333.319    22397333.6494   22397342.6074
        -0.000          -0.000
  14935540.02117   2727181.55542         0.000           0.0005          0.0004
        -0.000          -0.000
 -14861569.273 9 -11269367.93248  22169461.938    22169461.5714   22169470.6494
        -0.000          -0.000
 99  3 19  2  4 30.0000000  0  8 30  5  6 17 22 26 10 23            -0.000000002
   9983523.974 9   7919069.40147  22775779.913    22775780.1764   22775788.7974
        -0.000          -0.000
  24670838.206 8  19157869.59545  25204238.118    25204238.0594   25204255.9124
        -0.000          -0.000
 -12719353.901 9  -9720049.00249  20244573.486    20244573.5234   20244579.6784
        -0.000          -0.000
 -18559173.783 9 -14436409.44948  21473300.864    21473300.3334   21473307.9754
        -0.000          -0.000
  -8787912.409 9  -6811087.68946  23781028.909    23781028.0784   23781039.2054
        -0.000          -0.000
  -6035149.886 9  -4689697.34346  22386475.180    22386475.5154   22386484.4304
        -0.000          -0.000
  15038176.647 7   2807116.04952         0.000           0.0004          0.0005
        -0.000          -0.000
 -14938639.815 9 -11329422.74848  22154795.891    22154795.4654   22154804.4234
        -0.000          -0.000
 99  3 19  2  5  0.0000000  0  8 30  5  6 17 22 26 10 23             0.000000013
  10080098.773 9   7994322.44747  22794157.464    22794157.7634   22794166.4564
        -0.000          -0.000
  24773898.688 8  19238176.12045  25223850.174    25223850.1914   25223867.9124
        -0.000          -0.000
 -12719961.773 9  -9720522.63749  20244457.814    20244457.8534   20244463.9474
        -0.000          -0.000
 -18593934.353 9 -14463495.52748  21466685.967    21466685.4834   21466693.1474
        -0.000          -0.000
  -8834340.831 9  -6847265.54346  23772193.398    23772192.7554   23772204.0154
        -0.000          -0.000
  -6091836.590 9  -4733868.65046  22375688.307    22375688.5534   22375697.2994
        -0.000          -0.000
  15140910.63517   2887058.80852         0.000           0.0005          0.0005
        -0.000          -0.000
 -15015402.045 9 -11389237.32448  22140188.304    22140187.9174   22140196.8924
        -0.000          -0.000
 99  3 19  2  5 30.0000000  0  8 30  5  6 17 22 26 10 23             0.000000023
  10176841.780 9   8069706.55947  22812567.135    22812567.3884   22812576.1624
        -0.000          -0.000
  24876800.453 8  19318358.94045  25243432.138    25243432.1754   25243449.7494
        -0.000          -0.000
 -12720162.137 9  -9720678.73849  20244419.724    20244419.7104   20244425.7684
        -0.000          -0.000
 -18628546.202 9 -14490465.72348  21460099.321    21460098.8734   21460106.5354
        -0.000          -0.000
  -8880295.552 9  -6883074.29646  23763447.899    23763447.3894   23763459.0234
        -0.000          -0.000
  -6148151.070 9  -4777749.92746  22364972.053    22364972.2624   22364980.9124
        -0.000          -0.000
  15243720.63216   2752907.29242         0.000           0.0005          0.0004
        -0.000          -0.000
 -15091868.685 9 -11448821.58048  22125637.051    22125636.6704   22125645.6744
        -0.000          -0.000
 99  3 19  2  6  0.0000000  0  7 30  5  6 17 22 26 23                0.000000050
  10273744.712 9   8145215.30047  22831007.119    22831007.4134   22831016.3284
        -0.000          -0.000
  24979554.818 8  19398426.93645  25262986.550    25262986.3064   25263003.5114
        -0.000          -0.000
 -12719941.376 9  -9720506.68849  20244461.663    20244461.6514   20244467.7894
        -0.000          -0.000
 -18662980.494 9 -14517297.56848  21453546.550    21453546.0894   21453553.7904
        -0.000          -0.000
  -8925759.121 9  -6918500.32146  23754796.316    23754795.9374   23754807.7054
        -0.000          -0.000
  -6204086.058 9  -4821335.52446  22354328.048    22354328.2614   22354336.5734
        -0.000          -0.000
 -15168017.882 9 -11508158.48348  22111146.256    22111145.9124   22111154.8844
        -0.000          -0.000
 99  3 19  2  6 30.0000000  0  7 30  5  6 17 22 26 23                0.000000031
  10370803.511 9   8220845.49447  22849476.711    22849477.0364   22849486.0324
        -0.000          -0.000
  25082154.194 8  19478374.13145  25282511.462    25282511.1504   25282527.5654
        -0.000          -0.000
 -12719281.102 9  -9719992.16849  20244587.199    20244587.2444   20244593.4964
        -0.000          -0.000
 -18697235.538 9 -14543989.74148  21447027.805    21447027.3924   21447035.2164
        -0.000          -0.000
  -8970748.015 9  -6953556.46946  23746235.028    23746234.6844   23746246.6674
        -0.000          -0.000
  -6259640.935 9  -4864624.89646  22343756.408    22343756.5594   22343764.4684
        -0.000          -0.000
 -15243842.396 9 -11567242.36248  22096717.334    22096716.9614   22096726.0034
        -0.000          -0.000
 99  3 19  2  7  0.0000000  0  7 30  5  6 17 22 26 23                0.000000010
  10468028.341 9   8296605.05447  22867977.859    22867978.1884   22867987.0894
        -0.000          -0.000
  25184632.847 8  19558227.22045  25302013.315    25302012.8304   25302028.7844
        -0.000          -0.000
 -12718145.332 9  -9719107.13349  20244803.400    20244803.4044   20244809.6694
        -0.000          -0.000
 -18731287.470 9 -14570523.65448  21440547.759    21440547.4084   21440555.2974
        -0.000          -0.000
  -9015231.561 9  -6988218.81646  23737769.746    23737769.5644   23737781.7404
        -0.000          -0.000
  -6314772.289 9  -4907584.26846  22333265.188    22333265.3434   22333273.1924
        -0.000          -0.000
 -15319308.418 9 -11626046.89748  22082356.676    22082356.2834   22082365.2974
        -0.000          -0.000
 99  3 19  2  7 30.0000000  0  7 30  5  6 17 22 26 23               -0.000000007
  10565415.828 9   8372491.33847  22886509.988    22886510.4284   22886519.0204
        -0.000          -0.000
  25286998.543 8  19637992.33945  25321493.441    25321492.9434   25321508.6174
        -0.000          -0.000
 -12716536.542 9  -9717853.50349  20245109.565    20245109.5624   20245115.8144
        -0.000          -0.000
 -18765134.024 9 -14596897.51548  21434107.193    21434106.7764   21434114.4864
        -0.000          -0.000
  -9059201.271 9  -7022480.76946  23729402.242    23729402.1974   23729414.5304
        -0.000          -0.000
  -6369470.631 9  -4950206.22447  22322856.275    22322856.4584   22322864.3764
        -0.000          -0.000
 -15394390.265 9 -11684552.08748  22068069.143    22068068.7244   22068077.4814
        -0.000          -0.000
 99  3 19  2  8  0.0000000  0  8 21 30  5  6 17 22 26 23            -0.000000010
  -1390107.717 8  -1066242.27052         0.000           0.0004          0.0005
        -0.000          -0.000
  10662985.759 9   8448519.78847  22905077.125    22905077.5344   22905085.6624
        -0.000          -0.000
  25389247.772 8  19717666.63945  25340951.145    25340950.6744   25340966.2314
        -0.000          -0.000
 -12714452.091 9  -9716229.22949  20245506.227    20245506.1984   20245512.4234
        -0.000          -0.000
 -18798782.243 9 -14623116.82048  21427704.416    21427703.7904   21427711.2374
        -0.000          -0.000
  -9102658.622 9  -7056343.49546  23721132.235    23721132.3024   23721144.6184
        -0.000          -0.000
  -6423716.556 9  -4992475.64747  22312533.215    22312533.4954   22312541.6544
        -0.000          -0.000
 -15469070.797 9 -11742744.57048  22053857.822    22053857.4124   22053865.9484
        -0.000          -0.000
 99  3 19  2  8 30.0000000  0  8 21 30  5  6 17 22 26 23            -0.000000025
  -1486958.28618   -877982.96552         0.000           0.0005          0.0005
        -0.000          -0.000
  10760694.337 9   8524656.29947  22923670.708    22923671.0324   22923678.9334
        -0.000          -0.000
  25491324.027 8  19797206.18445  25360375.570    25360375.4464   25360390.8654
        -0.000          -0.000
 -12711929.743 9  -9714263.73949  20245986.090    20245986.1064   20245992.3084
        -0.000          -0.000
 -18832292.902 9 -14649228.95848  21421327.262    21421326.7444   21421334.1424
        -0.000          -0.000
  -9145654.889 9  -7089846.94846  23712950.261    23712950.3064   23712962.3364
        -0.000          -0.000
  -6477547.822 9  -5034421.97647  22302289.243    22302289.6264   22302297.8364
        -0.000          -0.000
 -15543402.805 9 -11800665.48348  22039712.799    22039712.4454   22039720.6744
        -0.000          -0.000
 99  3 19  2  9  0.0000000  0  8 21 30  5  6 17 22 26 23            -0.000000039
  -1583715.713 8   -953378.16042         0.000           0.0004          0.0004
        -0.000          -0.000
  10858547.560 9   8600905.52247  22942291.540    22942291.8224   22942299.9564
        -0.000          -0.000
  25593225.016 7  19876609.14644  25379766.617    25379766.8534   25379782.5134
        -0.000          -0.000
 -12708985.719 9  -9711969.66349  20246546.308    20246546.3084   20246552.4514
        -0.000          -0.000
 -18865672.344 9 -14675238.84348  21414975.213    21414974.7924   21414982.2474
        -0.000          -0.000
  -9188188.406 9  -7122989.84046  23704856.650    23704856.5684   23704867.9264
        -0.000          -0.000
  -6530947.622 9  -5076032.07847  22292127.601    22292127.8914   22292136.0314
        -0.000          -0.000
 -15617379.223 9 -11858309.29548  22025635.351    22025634.9914   22025643.0854
        -0.000          -0.000
 99  3 19  2  9 30.0000000  0  8 21 30  5  6 17 22 26 23            -0.000000035
  -1680366.215 8  -1028687.71952         0.000           0.0004          0.0005
        -0.000          -0.000
  10956584.031 9   8677297.54447  22960947.176    22960947.4574   22960955.9734
        -0.000          -0.000
  25694969.32316  19955890.05154  25399127.749    25399127.7025          0.0005
        -0.000          -0.000
 -12705594.354 9  -9709327.02049  20247191.657    20247191.6714   20247197.7634
        -0.000          -0.000
 -18898911.321 9 -14701139.28148  21408649.999    21408649.5014   21408657.0214
        -0.000          -0.000
  -9230238.973 9  -7155756.43746  23696855.077    23696854.9084   23696865.2814
        -0.000          -0.000
  -6583892.911 9  -5117288.04647  22282052.375    22282052.6264   22282060.6294
        -0.000          -0.000
 -15690980.750 9 -11915660.99648  22011628.983    22011628.8574   22011636.8604
        -0.000          -0.000
 99  3 19  2 10  0.0000000  0  8 21 30  5  6 17 22 26 23            -0.000000028
  -1776934.491 7  -1103932.97552         0.000           0.0004          0.0005
        -0.000          -0.000
  11054783.338 9   8753816.44947  22979633.830    22979634.0904   22979643.0204
        -0.000          -0.000
  25796550.13516  20035043.53053         0.000           0.0005          0.0005
        -0.000          -0.000
 -12701751.596 9  -9706332.65049  20247922.938    20247922.9354   20247929.0604
        -0.000          -0.000
 -18932028.845 9 -14726945.09148  21402347.749    21402347.2844   21402354.9334
        -0.000          -0.000
  -9271821.086 9  -7188157.98846  23688942.522    23688942.1664   23688951.8014
        -0.000          -0.000
  -6636398.549 9  -5158201.42347  22272060.806    22272061.0334   22272069.0094
        -0.000          -0.000
 -15764245.732 9 -11972750.44548  21997687.018    21997686.7894   21997694.8724
        -0.000          -0.000
 99  3 19  2 10 30.0000000  0  7 21 30  6 17 22 26 23               -0.000000006
  -1873410.103 8   -914682.93942         0.000           0.0004          0.0004
        -0.000          -0.000
  11153154.867 9   8830469.54847  22998353.204    22998353.5714   22998362.7634
        -0.000          -0.000
 -12697436.983 9  -9702970.59649  20248743.952    20248743.9764   20248750.0354
        -0.000          -0.000
 -18965006.806 9 -14752642.14848  21396072.105    21396071.7384   21396079.2664
        -0.000          -0.000
  -9312913.149 9  -7220177.69046  23681123.053    23681122.5514   23681131.8664
        -0.000          -0.000
  -6688444.276 9  -5198756.41147  22262156.778    22262157.0194   22262164.8484
        -0.000          -0.000
 -15837163.010 9 -12029568.95348  21983811.015    21983810.7854   21983819.1944
        -0.000          -0.000
 99  3 19  2 11  0.0000000  0  7 21 30  6 17 22 26 23                0.000000017
  -1969845.692 8   -989834.10952         0.000           0.0004          0.0005
        -0.000          -0.000
  11251651.538 9   8907220.16547  23017096.561    23017096.9754   23017106.2884
        -0.000          -0.000
 -12692688.185 9  -9699270.20449  20249647.641    20249647.6514   20249653.6774
        -0.000          -0.000
 -18997876.229 9 -14778254.60848  21389817.612    21389817.1074   21389824.2694
        -0.000          -0.000
  -9353542.108 9  -7251836.48246  23673391.646    23673390.9734   23673400.3224
        -0.000          -0.000
  -6740053.238 9  -5238971.07347  22252335.914    22252336.1184   22252343.7984
        -0.000          -0.000
 -15909764.518 9 -12086141.42648  21969995.052    21969994.9794   21970003.6164
        -0.000          -0.000
 99  3 19  2 11 30.0000000  0  7 21 30  6 17 22 26 23                0.000000036
  -2066232.317 8  -1064947.05052         0.000           0.0004          0.0005
        -0.000          -0.000
  11350258.857 9   8984056.98547  23035861.132    23035861.4554   23035870.7964
        -0.000          -0.000
 -12687476.499 9  -9695209.12449  20250639.382    20250639.4144   20250645.4194
        -0.000          -0.000
 -19030620.632 9 -14803769.65748  21383586.797    21383586.1414   21383593.2694
        -0.000          -0.000
  -9393694.674 9  -7283124.05846  23665750.968    23665750.1224   23665759.4304
        -0.000          -0.000
  -6791216.884 9  -5278838.74547  22242599.871    22242600.0684   22242607.6164
        -0.000          -0.000
 -15982046.432 9 -12142464.85248  21956240.366    21956240.1714   21956248.7304
        -0.000          -0.000
 99  3 19  2 12  0.0000000  0  7 21 30  6 17 22 26 23                0.000000063
  -2162540.830 8   -876279.65142         0.000           0.0004          0.0004
        -0.000          -0.000
  11448991.765 9   9060991.65147  23054649.468    23054649.7084   23054659.0904
        -0.000          -0.000
 -12681776.478 9  -9690767.53149  20251724.150    20251724.1434   20251730.1484
        -0.000          -0.000
 -19063185.252 9 -14829144.63348  21377389.865    21377389.2714   21377396.4824
        -0.000          -0.000
  -9433343.702 9  -7314019.26846  23658206.234    23658205.2654   23658214.5354
        -0.000          -0.000
  -6841903.161 9  -5318334.44147  22232954.495    22232954.7064   22232962.2754
        -0.000          -0.000
 -16053976.388 9 -12198514.03848  21942552.622    21942552.2874   21942560.6414
        -0.000          -0.000
 99  3 19  2 12 30.0000000  0  7 21 30  6 17 22 26 23                0.000000077
  -2258783.469 8   -951273.27052         0.000           0.0004          0.0005
        -0.000          -0.000
  11547827.646 9   9138006.58147  23073456.997    23073457.4384   23073466.7874
        -0.000          -0.000
 -12675607.830 9  -9685960.75949  20252897.947    20252897.8714   20252903.9934
        -0.000          -0.000
 -19095565.773 9 -14854376.14548  21371227.979    21371227.3384   21371234.6464
        -0.000          -0.000
  -9472512.258 9  -7344540.11646  23650752.819    23650751.9044   23650761.1874
        -0.000          -0.000
  -6892129.288 9  -5357471.61647  22223396.622    22223396.8234   22223404.3974
        -0.000          -0.000
 -16125560.142 9 -12254293.46248  21928930.591    21928930.2974   21928938.4704
        -0.000          -0.000
 99  3 19  2 13  0.0000000  0  7 21 30  6 17 22 26 23                0.000000079
  -2354945.436 8  -1026204.28043         0.000           0.0004   25315879.1774
        -0.000          -0.000
  11646771.851 9   9215105.91147  23092285.198    23092285.7644   23092295.1694
        -0.000          -0.000
 -12668967.406 9  -9680786.37849  20254161.335    20254161.3464   20254167.5984
        -0.000          -0.000
 -19127745.426 9 -14879451.14148  21365104.249    21365103.6674   21365111.0624
        -0.000          -0.000
  -9511192.228 9  -7374680.25546  23643392.434    23643391.5514   23643400.9654
        -0.000          -0.000
  -6941892.164 9  -5396247.77047  22213926.923    22213927.1584   22213934.7224
        -0.000          -0.000
 -16196778.312 9 -12309788.00848  21915378.305    21915377.8704   21915385.9974
        -0.000          -0.000
 99  3 19  2 13 30.0000000  0  7 21 30  6 17 22 26 23                0.000000084
  -2450983.488 8  -1101038.48745  25297592.540    25297589.7934   25297604.2324
        -0.000          -0.000
  11745862.150 9   9292319.07547  23111141.598    23111142.0394   23111151.5504
        -0.000          -0.000
 -12661849.256 9  -9675239.74149  20255515.757    20255515.7884   20255522.0724
        -0.000          -0.000
 -19159698.789 9 -14904349.80448  21359023.566    21359023.0364   21359030.4664
        -0.000          -0.000
  -9549359.428 9  -7404420.83746  23636129.193    23636128.4094   23636138.1074
        -0.000          -0.000
  -6991184.011 9  -5434656.87247  22204546.917    22204547.1824   22204554.7164
        -0.000          -0.000
 -16267603.854 9 -12364976.62448  21901900.373    21901900.1304   21901908.2604
        -0.000          -0.000
 99  3 19  2 14  0.0000000  0  7 21 30  6 17 22 26 23                0.000000072
  -2546930.945 8  -1175802.17745  25279334.450    25279334.7414   25279346.7054
        -0.000          -0.000
  11845074.948 9   9369627.68547  23130021.654    23130021.9194   23130031.2764
        -0.000          -0.000
 -12654304.512 9  -9669360.68849  20256951.577    20256951.5744   20256957.7484
        -0.000          -0.000
 -19191464.786 9 -14929102.46648  21352978.557    21352978.0514   21352985.4594
        -0.000          -0.000
  -9587045.850 9  -7433786.78146  23628957.675    23628956.7554   23628966.6304
        -0.000          -0.000
  -7040053.915 9  -5472737.20047  22195247.084    22195247.3514   22195254.9714
        -0.000          -0.000
 -16338074.406 9 -12419888.61648  21888490.264    21888489.9344   21888497.9744
        -0.000          -0.000
 99  3 19  2 14 30.0000000  0  7 21 30  6 17 22 26 23                0.000000062
  -2642754.925 9  -1250469.66345  25261100.036    25261098.3344   25261112.1404
        -0.000          -0.000
  11944428.098 9   9447045.68047  23148928.159    23148928.4614   23148937.7194
        -0.000          -0.000
 -12646313.616 9  -9663133.98949  20258472.231    20258472.1824   20258478.2214
        -0.000          -0.000
 -19223042.359 9 -14953708.30148  21346969.331    21346968.8814   21346976.3564
        -0.000          -0.000
  -9624221.609 9  -7462754.79746  23621882.967    23621882.0534   23621892.1514
        -0.000          -0.000
  -7088483.254 9  -5510474.24447  22186031.285    22186031.5204   22186038.9714
        -0.000          -0.000
 -16408166.705 9 -12474505.87148  21875151.964    21875151.5984   21875159.7064
        -0.000          -0.000
 99  3 19  2 15  0.0000000  0  7 21 30  6 17 22 26 23                0.000000064
  -2738461.325 8  -1325045.51445  25242887.855    25242886.7834   25242899.7064
        -0.000          -0.000
  12043911.417 9   9524565.09847  23167859.299    23167859.5544   23167869.0374
        -0.000          -0.000
 -12637900.952 9  -9656578.64649  20260072.975    20260072.9544   20260079.1064
        -0.000          -0.000
 -19254472.100 9 -14978198.94348  21340988.267    21340987.9124   21340995.3924
        -0.000          -0.000
  -9660887.742 9  -7491325.71446  23614905.375    23614904.4624   23614914.6704
        -0.000          -0.000
  -7136477.035 9  -5547871.88447  22176898.367    22176898.5934   22176905.7554
        -0.000          -0.000
 -16477889.156 9 -12528834.93148  21861883.951    21861883.6534   21861891.8814
        -0.000          -0.000
 99  3 19  2 15 30.0000000  0  7 21 30  6 17 22 26 23                0.000000064
  -2834069.225 8  -1399544.60145  25224693.858    25224692.6994   25224705.8944
        -0.000          -0.000
  12143499.621 9   9602166.22847  23186810.298    23186810.6154   23186820.2524
        -0.000          -0.000
 -12629066.331 9  -9649694.49849  20261754.158    20261754.1204   20261760.2534
        -0.000          -0.000
 -19285785.512 9 -15002598.93648  21335029.703    21335029.2374   21335036.6724
        -0.000          -0.000
  -9697055.654 9  -7519508.38546  23608022.905    23608022.0064   23608032.1074
        -0.000          -0.000
  -7184055.805 9  -5584946.12847  22167844.502    22167844.6914   22167851.7304
        -0.000          -0.000
 -16547269.273 9 -12582897.23948  21848681.224    21848680.8934   21848689.1734
        -0.000          -0.000
 99  3 19  2 16  0.0000000  0  7 21 30  6 17 22 26 23                0.000000062
  -2929564.771 8  -1473956.18445  25206520.587    25206519.3824   25206533.9614
        -0.000          -0.000
  12243194.252 9   9679850.32146  23205781.577    23205781.9124   23205791.6174
        -0.000          -0.000
 -12619748.041 9  -9642433.46149  20263527.336    20263527.2824   20263533.4034
        -0.000          -0.000
 -19316955.262 9 -15026886.98748  21329098.299    21329097.7934   21329105.2564
        -0.000          -0.000
  -9732705.023 9  -7547286.99946  23601239.238    23601238.3234   23601248.3224
        -0.000          -0.000
  -7231181.678 9  -5621667.46447  22158876.716    22158876.8704   22158883.9564
        -0.000          -0.000
 -16616277.351 9 -12636669.65548  21835549.372    21835549.0344   21835557.2894
        -0.000          -0.000
 99  3 19  2 16 30.0000000  0  7 21 30  6 17 22 26 23                0.000000054
  -3024943.062 8  -1548276.46745  25188369.411    25188368.4984   25188383.8914
        -0.000          -0.000
  12342993.431 9   9757615.84646  23224772.497    23224772.9544   23224782.7494
        -0.000          -0.000
 -12609930.360 9  -9634783.29649  20265395.424    20265395.4094   20265401.5414
        -0.000          -0.000
 -19347983.935 9 -15051065.10248  21323193.616    21323193.2114   21323200.5884
        -0.000          -0.000
  -9767839.518 9  -7574664.43046  23594553.324    23594552.3824   23594562.4884
        -0.000          -0.000
  -7277838.870 9  -5658023.59347  22149997.983    22149998.1464   22150005.3704
        -0.000          -0.000
 -16684897.980 9 -12690140.15548  21822491.344    21822490.9544   21822499.1264
        -0.000          -0.000
 99  3 19  2 17  0.0000000  0  7 21 30  6 17 22 26 23                0.000000055
  -3120170.421 8  -1622479.10945  25170247.321    25170246.5114   25170262.8254
        -0.000          -0.000
  12442937.956 9   9835494.60946  23243791.135    23243791.5584   23243801.5674
        -0.000          -0.000
 -12599569.230 9  -9626709.66049  20267367.086    20267367.1144   20267373.1904
        -0.000          -0.000
 -19378827.622 9 -15075099.07548  21317324.273    21317323.8844   21317331.2054
        -0.000          -0.000
  -9802431.993 9  -7601619.48846  23587970.109    23587969.4294   23587979.9294
        -0.000          -0.000
  -7323982.963 9  -5693979.95347  22141216.843    22141217.0054   22141224.3204
        -0.000          -0.000
 -16753086.591 9 -12743274.01648  21809515.318    21809514.9884   21809523.2274
        -0.000          -0.000
 99  3 19  2 17 30.0000000  0  7 21 30  6 17 22 26 23                0.000000053
  -3215242.876 9  -1696561.08745  25152155.445    25152154.7954   25152171.5054
        -0.000          -0.000
  12543022.935 9   9913482.82046  23262836.550    23262837.1324   23262847.1114
        -0.000          -0.000
 -12588659.936 9  -9618208.89449  20269443.186    20269443.1764   20269449.1604
        -0.000          -0.000
 -19409464.646 9 -15098972.01848  21311494.284    21311493.8504   21311501.1264
        -0.000          -0.000
  -9836498.337 9  -7628164.58846  23581487.255    23581486.6174   23581497.4244
        -0.000          -0.000
  -7369616.117 9  -5729538.15247  22132532.957    22132533.2164   22132540.5414
        -0.000          -0.000
 -16820843.554 9 -12796071.54548  21796621.282    21796621.0844   21796629.4264
        -0.000          -0.000
 99  3 19  2 18  0.0000000  0  7 21 30  6 17 22 26 23                0.000000058
  -3310162.175 9  -1770523.73345  25134093.136    25134092.3604   25134108.9344
        -0.000          -0.000
  12643252.663 9   9991583.85346  23281909.842    23281910.2994   23281920.1754
        -0.000          -0.000
 -12577235.429 9  -9609306.65749  20271617.218    20271617.1724   20271623.2374
        -0.000          -0.000
 -19439887.304 9 -15122677.91948  21305705.101    21305704.6674   21305711.7474
        -0.000          -0.000
  -9870051.115 9  -7654309.49646  23575102.518    23575101.7374   23575112.3904
        -0.000          -0.000
  -7414725.431 9  -5764688.16747  22123948.920    22123949.1894   22123956.3014
        -0.000          -0.000
 -16888167.887 9 -12848531.94748  21783809.873    21783809.6234   21783817.9204
        -0.000          -0.000
 99  3 19  2 18 30.0000000  0  7 21 30  6 17 22 26 23                0.000000062
  -3404954.013 9  -1844387.08345  25116055.368    25116054.3774   25116070.4204
        -0.000          -0.000
  12743610.056 9  10069784.37346  23301007.482    23301007.9074   23301017.4944
        -0.000          -0.000
 -12565363.727 9  -9600055.95149  20273876.222    20273876.2184   20273882.3584
        -0.000          -0.000
 -19470134.979 9 -15146247.47448  21299949.230    21299948.7924   21299955.6914
        -0.000          -0.000
  -9903129.188 9  -7680084.52446  23568808.299    23568807.3144   23568817.3214
        -0.000          -0.000
  -7459347.448 9  -5799458.45747  22115457.441    22115457.6984   22115464.8144
        -0.000          -0.000
 -16955104.999 9 -12900690.63248  21771072.247    21771071.8914   21771079.9224
        -0.000          -0.000
 99  3 19  2 19  0.0000000  0  7 21 30  6 17 22 26 23                0.000000079
  -3499614.563 9  -1918148.10245  25098042.122    25098040.7694   25098056.7204
        -0.000          -0.000
  12844086.291 9  10148077.47946  23320127.893    23320128.0914   23320137.5704
        -0.000          -0.000
 -12553047.016 9  -9590458.47849  20276220.019    20276220.0154   20276226.2004
        -0.000          -0.000
 -19500185.547 9 -15169663.44048  21294230.771    21294230.3314   21294237.2674
        -0.000          -0.000
  -9935711.061 9  -7705472.88646  23562608.135    23562607.2164   23562616.9444
        -0.000          -0.000
  -7503466.492 9  -5833836.85447  22107061.575    22107061.8404   22107069.1964
        -0.000          -0.000
 -17021657.332 9 -12952549.48648  21758407.608    21758407.3584   21758415.1574
        -0.000          -0.000
 99  3 19  2 19 30.0000000  0  7 21 30  6 17 22 26 23                0.000000079
  -3594202.849 8  -1991852.83245  25080042.394    25080040.8304   25080056.5684
        -0.000          -0.000
  12944609.627 9  10226407.28746  23339257.041    23339257.2384   23339266.6514
        -0.000          -0.000
 -12540344.322 9  -9580560.24549  20278637.251    20278637.2424   20278643.3494
        -0.000          -0.000
 -19530096.080 9 -15192970.28248  21288538.857    21288538.4724   21288545.4774
        -0.000          -0.000
  -9967841.471 9  -7730509.48246  23556494.159    23556493.0904   23556502.4754
        -0.000          -0.000
  -7547143.429 9  -5867870.72047  22098750.136    22098750.3934   22098757.7264
        -0.000          -0.000
 -17087894.117 9 -13004162.45848  21745802.995    21745802.8144   21745810.5894
        -0.000          -0.000
 99  3 19  2 20  0.0000000  0  7 21 30  6 17 22 26 23                0.000000072
  -3688702.047 8  -2065488.15645  25062058.676    25062057.3024   25062073.2424
        -0.000          -0.000
  13045188.860 9  10304780.66146  23358396.504    23358396.8594   23358406.2644
        -0.000          -0.000
 -12527223.093 9  -9570335.89649  20281134.126    20281134.0634   20281140.2284
        -0.000          -0.000
 -19559857.916 9 -15216161.24948  21282875.300    21282874.9024   21282881.8494
        -0.000          -0.000
  -9999485.788 9  -7755167.29546  23550472.166    23550471.1194   23550480.5274
        -0.000          -0.000
  -7590362.090 9  -5901547.49747  22090525.930    22090526.1574   22090533.4334
        -0.000          -0.000
 -17153799.234 9 -13055516.98448  21733261.837    21733261.5664   21733269.1724
        -0.000          -0.000
 99  3 19  2 20 30.0000000  0  7 21 30  6 17 22 26 23                0.000000066
  -3783084.271 8  -2139032.34645  25044097.143    25044096.1844   25044111.9394
        -0.000          -0.000
  13145842.470 9  10383211.98046  23377549.993    23377550.4884   23377560.1704
        -0.000          -0.000
 -12513624.201 9  -9559739.33949  20283721.889    20283721.8624   20283728.0244
        -0.000          -0.000
 -19589453.560 9 -15239222.72148  21277243.379    21277243.0314   21277249.8444
        -0.000          -0.000
 -10030611.389 9  -7779420.89446  23544548.518    23544547.5804   23544557.5844
        -0.000          -0.000
  -7633092.628 9  -5934843.92947  22082394.520    22082394.7274   22082401.9824
        -0.000          -0.000
 -17219335.764 9 -13106584.28948  21720790.758    21720790.3404   21720797.9734
        -0.000          -0.000
 99  3 19  2 21  0.0000000  0  7 21 30  6 17 22 26 23                0.000000051
  -3877350.586 8  -2212486.23745  25026158.003    25026157.2934   25026172.8664
        -0.000          -0.000
  13246540.696 9  10461678.08346  23396711.992    23396712.6034   23396722.4164
        -0.000          -0.000
 -12499533.659 9  -9548759.67749  20286403.190    20286403.1654   20286409.3084
        -0.000          -0.000
 -19618898.398 9 -15262166.68548  21271640.411    21271639.9104   21271646.6624
        -0.000          -0.000
 -10061217.469 9  -7803269.66846  23538723.618    23538722.7634   23538733.4514
        -0.000          -0.000
  -7675336.953 9  -5967761.52047  22074355.464    22074355.6424   22074363.0184
        -0.000          -0.000
 -17284503.896 9 -13157364.55748  21708389.320    21708389.0654   21708396.9704
        -0.000          -0.000
 99  3 19  2 21 30.0000000  0  7 21 30  6 17 22 26 23                0.000000030
  -3971475.532 8  -2285829.94745  25008245.751    25008245.4034   25008261.1364
        -0.000          -0.000
  13347306.700 9  10540197.01146  23415887.250    23415887.8974   23415897.5884
        -0.000          -0.000
 -12484935.155 9  -9537384.19249  20289181.181    20289181.1424   20289187.2264
        -0.000          -0.000
 -19648196.141 9 -15284996.04348  21266065.084    21266064.5504   21266071.4634
        -0.000          -0.000
 -10091304.004 9  -7826713.62046  23532997.775    23532997.0754   23533008.0704
        -0.000          -0.000
  -7717086.986 9  -6000293.94147  22066410.544    22066410.8514   22066418.0514
        -0.000          -0.000
 -17349287.309 9 -13207845.03548  21696061.201    21696061.0594   21696069.1334
        -0.000          -0.000
 99  3 19  2 22  0.0000000  0  7 21 30  6 17 22 26 23                0.000000028
  -4065437.371 8  -2359046.60045  24990364.426    24990364.6714   24990380.6274
        -0.000          -0.000
  13448175.936 9  10618796.37146  23435082.525    23435082.8994   23435092.4234
        -0.000          -0.000
 -12469811.780 9  -9525599.72749  20292058.965    20292058.9804   20292065.1784
        -0.000          -0.000
 -19677331.981 9 -15307699.23348  21260520.554    21260520.1784   21260527.0264
        -0.000          -0.000
 -10120854.013 9  -7849739.53546  23527374.666    23527374.0584   23527384.3734
        -0.000          -0.000
  -7758305.077 9  -6032411.82947  22058567.019    22058567.3424   22058574.3434
        -0.000          -0.000
 -17413656.287 9 -13258002.58348  21683812.355    21683812.1394   21683820.0524
        -0.000          -0.000
 99  3 19  2 22 30.0000000  0  7 21 30  6 17 22 26 23                0.000000030
  -4159263.065 8  -2432157.15745  24972509.627    24972509.8824   24972525.7314
        -0.000          -0.000
  13549128.297 9  10697460.49146  23454293.444    23454293.7694   23454303.0624
        -0.000          -0.000
 -12454203.541 9  -9513437.44449  20295029.204    20295029.1744   20295035.3024
        -0.000          -0.000
 -19706328.406 9 -15330293.77348  21255002.876    21255002.3884   21255009.0944
        -0.000          -0.000
 -10149900.452 9  -7872373.03146  23521847.552    23521846.7844   23521856.3404
        -0.000          -0.000
  -7799002.248 9  -6064123.80547  22050822.614    22050822.9134   22050829.8074
        -0.000          -0.000
 -17477624.524 9 -13307847.85548  21671639.805    21671639.4364   21671647.0814
        -0.000          -0.000
 99  3 19  2 23  0.0000000  0  7 21 30  6 17 22 26 23                0.000000037
  -4252963.533 9  -2505170.13045  24954679.219    24954679.1664   24954694.6954
        -0.000          -0.000
  13650150.745 9  10776179.22146  23473517.385    23473517.6724   23473527.1384
        -0.000          -0.000
 -12438140.942 9  -9500921.11149  20298085.783    20298085.7884   20298091.8434
        -0.000          -0.000
 -19735184.148 9 -15352778.70748  21249511.583    21249511.1804   21249517.9794
        -0.000          -0.000
 -10178442.934 9  -7894613.83846  23516416.036    23516415.2554   23516424.6124
        -0.000          -0.000
  -7839198.770 9  -6095445.67847  22043173.284    22043173.6394   22043180.6034
        -0.000          -0.000
 -17541208.072 9 -13357393.37548  21659540.031    21659539.6834   21659547.2274
        -0.000          -0.000
 99  3 19  2 23 30.0000000  0  7 21 30  6 17 22 26 23                0.000000144
  -4346633.901 8  -2578159.65245  24936854.301    24936854.0464   24936869.3154
        -0.000          -0.000
  13751185.491 9  10854907.51946  23492743.463    23492743.9314   23492753.4954
        -0.000          -0.000
 -12421707.622 9  -9488115.90549  20301212.974    20301212.9834   20301218.9314
        -0.000          -0.000
 -19763960.475 9 -15375201.76348  21244035.483    21244035.1314   21244041.9904
        -0.000          -0.000
 -10206560.649 9  -7916523.63546  23511065.064    23511064.4494   23511073.9954
        -0.000          -0.000
  -7878973.196 9  -6126438.65747  22035604.463    22035604.8384   22035611.6844
        -0.000          -0.000
 -17604484.593 9 -13406699.65948  21647498.844    21647498.5384   21647505.9314
        -0.000          -0.000
 99  3 19  2 24  0.0000000  0  7 21 30  6 17 22 26 23                0.000000118
  -4440192.484 9  -2651062.03245  24919050.393    24919050.0214   24919065.2744
        -0.000          -0.000
  13852316.303 9  10933710.68546  23511988.316    23511988.5494   23511997.9944
        -0.000          -0.000
 -12404806.078 9  -9474945.84749  20304429.310    20304429.2964   20304435.1414
        -0.000          -0.000
 -19792566.881 9 -15397492.42548  21238591.675    21238591.3494   21238598.2834
        -0.000          -0.000
 -10234165.734 9  -7938033.98846  23505811.916    23505811.2754   23505820.9694
        -0.000          -0.000
  -7918241.620 9  -6157037.33747  22028132.075    22028132.4014   22028139.2034
        -0.000          -0.000
 -17667363.056 9 -13455695.75548  21635533.652    21635533.2224   21635540.6154
        -0.000          -0.000
 99  3 19  2 24 30.0000000  0  7 21 30  6 17 22 26 23                0.000000094
  -4533616.130 8  -2723859.28545  24901272.598    24901272.0284   24901286.8864
        -0.000          -0.000
  13953555.144 9  11012598.00146  23531253.362    23531253.6424   23531262.9714
        -0.000          -0.000
 -12387403.789 9  -9461385.61149  20307740.890    20307740.8734   20307746.6724
        -0.000          -0.000
 -19820972.622 9 -15419626.70648  21233186.241    21233185.9214   21233192.7134
        -0.000          -0.000
 -10261233.014 9  -7959125.27946  23500661.383    23500660.6614   23500670.4534
        -0.000          -0.000
  -7956997.313 9  -6187236.49147  22020757.106    22020757.3584   22020764.2694
        -0.000          -0.000
 -17729828.364 9 -13504369.90748  21623646.780    21623646.3524   21623653.8984
        -0.000          -0.000
 99  3 19  2 25  0.0000000  0  7 21 30  6 17 22 26 23                0.000000086
  -4626889.479 8  -2796539.43445  24883522.910    24883522.3274   24883536.9374
        -0.000          -0.000
  14054897.658 9  11091566.11346  23550538.257    23550538.5424   23550547.5904
        -0.000          -0.000
 -12369488.727 9  -9447425.81049  20311150.174    20311150.1334   20311155.8094
        -0.000          -0.000
 -19849164.282 9 -15441594.17348  21227821.605    21227821.2454   21227827.9044
        -0.000          -0.000
 -10287745.201 9  -7979784.02746  23495616.286    23495615.6144   23495625.3994
        -0.000          -0.000
  -7995232.380 9  -6217029.95147  22013480.917    22013481.2344   22013488.3404
        -0.000          -0.000
 -17791894.488 9 -13552733.03448  21611835.849    21611835.4784   21611842.9884
        -0.000          -0.000
 99  3 19  2 25 30.0000000  0  7 21 30  6 17 22 26 23                0.000000074
  -4720034.732 8  -2869119.76545  24865797.048    24865796.9884   24865811.5544
        -0.000          -0.000
  14156308.223 9  11170587.25846  23569836.014    23569836.3824   23569845.0814
        -0.000          -0.000
 -12351085.928 9  -9433085.95349  20314652.084    20314652.0594   20314657.7114
        -0.000          -0.000
 -19877175.874 9 -15463421.32048  21222491.172    21222490.7364   21222497.4414
        -0.000          -0.000
 -10313747.191 9  -8000045.21946  23490668.214    23490667.5204   23490677.4574
        -0.000          -0.000
  -8032974.690 9  -6246439.44047  22006298.809    22006299.0564   22006306.0184
        -0.000          -0.000
 -17853599.593 9 -13600814.83048  21600093.642    21600093.3474   21600100.7504
        -0.000          -0.000
 99  3 19  2 26  0.0000000  0  7 21 30  6 17 22 26 23                0.000000066
  -4813039.526 8  -2941590.64345  24848098.220    24848098.2114   24848112.7724
        -0.000          -0.000
  14257769.536 9  11249647.96346  23589143.475    23589143.8854   23589152.3294
        -0.000          -0.000
 -12332198.836 9  -9418368.72649  20318246.094    20318246.1414   20318251.6964
        -0.000          -0.000
 -19905018.516 9 -15485116.83848  21217192.633    21217192.2344   21217199.1564
        -0.000          -0.000
 -10339230.727 9  -8019902.40846  23485818.802    23485818.0374   23485828.1164
        -0.000          -0.000
  -8070221.593 9  -6275462.89947  21999211.008    21999211.2334   21999217.8914
        -0.000          -0.000
 -17914942.327 9 -13648614.26648  21588420.419    21588420.0984   21588427.3564
        -0.000          -0.000
 99  3 19  2 26 30.0000000  0  7 21 30  6 17 22 26 23                0.000000070
  -4905906.942 8  -3013954.47845  24830426.140    24830425.8044   24830440.2854
        -0.000          -0.000
  14359261.382 9  11328732.45746  23608456.854    23608457.2054   23608465.5564
        -0.000          -0.000
 -12312839.625 9  -9403283.59849  20321930.029    20321930.0804   20321935.5394
        -0.000          -0.000
 -19932694.991 9 -15506682.86648  21211925.855    21211925.5004   21211932.5164
        -0.000          -0.000
 -10364193.303 9  -8039353.67346  23481068.802    23481067.8654   23481077.9824
        -0.000          -0.000
  -8106963.533 9  -6304092.87447  21992219.176    21992219.3744   21992225.9464
        -0.000          -0.000
 -17975934.360 9 -13696140.43248  21576813.840    21576813.5934   21576820.8274
        -0.000          -0.000
 99  3 19  2 27  0.0000000  0  7 21 30  6 17 22 26 23                0.000000081
  -4998647.382 8  -3086219.34545  24812778.079    24812777.5424   24812791.8914
        -0.000          -0.000
  14460761.752 9  11407823.62646  23627771.890    23627772.2034   23627780.6774
        -0.000          -0.000
 -12293032.162 9  -9387849.18449  20325699.280    20325699.2524   20325704.7984
        -0.000          -0.000
 -19960228.065 9 -15528137.15748  21206686.382    21206686.0274   21206693.1354
        -0.000          -0.000
 -10388652.651 9  -8058412.79747  23476414.432    23476413.3774   23476423.8034
        -0.000          -0.000
  -8143202.741 9  -6332331.14947  21985322.872    21985323.1484   21985329.8084
        -0.000          -0.000
 -18036582.758 9 -13743398.82248  21565272.768    21565272.5234   21565279.7584
        -0.000          -0.000
 99  3 19  2 27 30.0000000  0  7 21 30  6 17 22 26 23                0.000000085
  -5091269.105 9  -3158391.71345  24795152.722    24795152.0644   24795166.5574
        -0.000          -0.000
  14562280.727 9  11486929.26846  23647090.467    23647090.7794   23647099.5394
        -0.000          -0.000
 -12272764.158 9  -9372055.92049  20329556.049    20329556.0224   20329561.7444
        -0.000          -0.000
 -19987639.227 9 -15549496.45048  21201470.114    21201469.7884   21201476.9184
        -0.000          -0.000
 -10412612.177 9  -8077082.47147  23471855.356    23471854.1534   23471864.6594
        -0.000          -0.000
  -8178937.134 9  -6360176.04447  21978522.765    21978523.0454   21978529.7174
        -0.000          -0.000
 -18096858.884 9 -13790367.13148  21553802.472    21553802.1944   21553809.5834
        -0.000          -0.000
 99  3 19  2 28  0.0000000  0  7 21 30  6 17 22 26 23                0.000000094
  -5183762.389 9  -3230463.99245  24777551.760    24777551.0884   24777565.6254
        -0.000          -0.000
  14663823.571 9  11566053.51746  23666413.952    23666414.0814   23666422.8474
        -0.000          -0.000
 -12252010.814 9  -9355884.46249  20333505.072    20333505.0984   20333511.0414
        -0.000          -0.000
 -20014918.739 9 -15570753.15648  21196278.760    21196278.5224   21196285.7174
        -0.000          -0.000
 -10436049.668 9  -8095345.38747  23467395.558    23467394.2514   23467404.7224
        -0.000          -0.000
  -8214132.085 9  -6387600.60347  21971825.364    21971825.6524   21971832.2344
        -0.000          -0.000
 -18156731.964 9 -13837021.38348  21542408.787    21542408.5614   21542415.9744
        -0.000          -0.000
 99  3 19  2 28 30.0000000  0  7 21 30  6 17 22 26 23                0.000000098
  -5276131.634 9  -3302439.64945  24759974.526    24759973.8964   24759988.4884
        -0.000          -0.000
  14765378.367 9  11645187.04546  23685739.332    23685739.5334   23685748.2444
        -0.000          -0.000
 -12230776.245 9  -9339338.02349  20337545.806    20337545.8604   20337551.9164
        -0.000          -0.000
 -20042062.543 9 -15591904.12048  21191113.417    21191113.2184   21191120.3314
        -0.000          -0.000
 -10458977.636 9  -8113211.27046  23463032.444    23463031.1924   23463041.5894
        -0.000          -0.000
  -8248783.955 9  -6414601.97147  21965231.289    21965231.5574   21965238.0534
        -0.000          -0.000
 -18216198.009 9 -13883358.45948  21531092.751    21531092.4654   21531099.8414
        -0.000          -0.000
 99  3 19  2 29  0.0000000  0  7 21 30  6 17 22 26 23                0.000000104
  -5368351.634 8  -3374299.00445  24742424.825    24742424.5484   24742439.3764
        -0.000          -0.000
  14866978.170 9  11724355.64146  23705073.253    23705073.4394   23705082.1434
        -0.000          -0.000
 -12209046.397 9  -9322405.65049  20341680.921    20341680.8984   20341686.9854
        -0.000          -0.000
 -20069051.155 9 -15612934.15348  21185977.727    21185977.5034   21185984.4534
        -0.000          -0.000
 -10481372.728 9  -8130661.93346  23458770.637    23458769.5224   23458779.7494
        -0.000          -0.000
  -8282881.645 9  -6441171.51647  21958742.531    21958742.7894   21958749.3814
        -0.000          -0.000
 -18275222.310 9 -13929351.33248  21519860.851    21519860.5314   21519867.7614
        -0.000          -0.000
 99  3 19  2 29 30.0000000  0  7 21 30  6 17 22 26 23                0.000000091
  -5460445.717 8  -3446060.25745  24724898.998    24724898.9604   24724913.9914
        -0.000          -0.000
  14968592.542 9  11803535.60746  23724409.777    23724410.0434   23724418.8284
        -0.000          -0.000
 -12186838.871 9  -9305101.07049  20345906.791    20345906.7924   20345912.8704
        -0.000          -0.000
 -20095907.157 9 -15633860.86248  21180867.228    21180866.9314   21180873.7824
        -0.000          -0.000
 -10503269.640 9  -8147724.38946  23454603.595    23454602.5274   23454612.8014
        -0.000          -0.000
  -8316451.168 9  -6467329.49147  21952354.358    21952354.6614   21952361.3154
        -0.000          -0.000
 -18333833.512 9 -13975022.30648  21508707.479    21508707.1124   21508714.3814
        -0.000          -0.000
 99  3 19  2 30  0.0000000  0  7 21 30  6 17 22 26 23                0.000000083
  -5552379.086 8  -3517696.26045  24707404.478    24707404.1814   24707419.0464
        -0.000          -0.000
  15070240.730 9  11882741.92146  23743752.634    23743752.9824   23743762.0104
        -0.000          -0.000
 -12164142.538 9  -9287415.60449  20350225.720    20350225.7324   20350231.7084
        -0.000          -0.000
 -20122583.745 9 -15654647.75948  21175790.888    21175790.5754   21175797.3454
        -0.000          -0.000
 -10524650.398 9  -8164384.63946  23450534.538    23450533.6954   23450544.0284
        -0.000          -0.000
  -8349467.566 9  -6493056.47947  21946071.515    21946071.8614   21946078.4324
        -0.000          -0.000
 -18392022.521 9 -14020364.29848  21497634.237    21497633.9184   21497641.3484
        -0.000          -0.000
 99  3 19  2 30 30.0000000  0  7 21 30  6 17 22 26 23                0.000000073
  -5644153.202 8  -3589208.16345  24689940.243    24689939.8114   24689954.3824
        -0.000          -0.000
  15171923.676 9  11961975.33546  23763102.316    23763102.6654   23763111.8384
        -0.000          -0.000
 -12140973.223 9  -9269361.57049  20354634.696    20354634.6904   20354640.6154
        -0.000          -0.000
 -20149088.960 9 -15675301.11748  21170747.024    21170746.7074   21170753.4814
        -0.000          -0.000
 -10545524.567 9  -8180650.15346  23446562.032    23446561.2644   23446571.5584
        -0.000          -0.000
  -8381950.882 9  -6518368.08747  21939890.136    21939890.4104   21939897.0204
        -0.000          -0.000
 -18449807.247 9 -14065391.24848  21486638.074    21486637.7014   21486645.2084
        -0.000          -0.000
 99  3 19  2 31  0.0000000  0  7 21 30  6 17 22 26 23                0.000000065
  -5735770.787 8  -3660598.09945  24672505.575    24672505.1814   24672519.8524
        -0.000          -0.000
  15273639.449 9  12041234.31446  23782458.469    23782458.5574   23782468.0544
        -0.000          -0.000
 -12117323.371 9  -9250933.09549  20359135.167    20359135.1744   20359140.9504
        -0.000          -0.000
 -20175438.486 9 -15695833.16248  21165732.711    21165732.4094   21165739.2924
        -0.000          -0.000
 -10565898.395 9  -8196525.79646  23442685.100    23442684.3374   23442694.4134
        -0.000          -0.000
  -8413903.226 9  -6543265.96547  21933809.665    21933809.9404   21933816.4644
        -0.000          -0.000
 -18507209.652 9 -14110120.30448  21475714.486    21475714.2224   21475721.6994
        -0.000          -0.000
 99  3 19  2 31 30.0000000  0  7 21 30  6 17 22 26 23                0.000000053
  -5827238.819 8  -3731871.49645  24655099.677    24655099.1714   24655113.8524
        -0.000          -0.000
  15375370.318 9  12120505.05546  23801817.115    23801817.3154   23801827.0414
        -0.000          -0.000
 -12093178.125 9  -9232118.60149  20363729.854    20363729.8334   20363735.6174
        -0.000          -0.000
 -20201635.158 9 -15716246.09448  21160747.654    21160747.2994   21160754.2404
        -0.000          -0.000
 -10585782.210 9  -8212019.60446  23438901.606    23438900.7574   23438910.6304
        -0.000          -0.000
  -8445314.913 9  -6567742.53147  21927832.095    21927832.4174   21927838.8364
        -0.000          -0.000
 -18564236.437 9 -14154556.65848  21464862.708    21464862.4254   21464869.6994
        -0.000          -0.000
 99  3 19  2 32  0.0000000  0  7 21 30  6 17 22 26 23                0.000000065
  -5918530.089 9  -3803007.13245  24637727.472    24637726.8374   24637741.3594
        -0.000          -0.000
  15477156.126 9  12199818.64346  23821186.087    23821186.3564   23821196.2564
        -0.000          -0.000
 -12068507.929 9  -9212895.05549  20368424.404    20368424.4134   20368430.2454
        -0.000          -0.000
 -20227641.882 9 -15736511.01148  21155798.842    21155798.3864   21155805.3754
        -0.000          -0.000
 -10605121.830 9  -8227089.36746  23435221.621    23435220.5744   23435230.3464
        -0.000          -0.000
  -8476155.219 9  -6591773.85647  21921963.498    21921963.7704   21921970.0414
        -0.000          -0.000
 -18620849.784 9 -14198670.86448  21454089.536    21454089.1634   21454096.4054
        -0.000          -0.000
 99  3 19  2 32 30.0000000  0  7 21 30  6 17 22 26 23                0.000000065
  -6009705.324 9  -3874052.36845  24620377.483    24620376.6584   24620391.0074
        -0.000          -0.000
  15578932.545 9  12279124.88346  23840553.031    23840553.4194   23840563.5454
        -0.000          -0.000
 -12043372.569 9  -9193309.04449  20373207.456    20373207.4724   20373213.2774
        -0.000          -0.000
 -20253525.014 9 -15756679.62848  21150873.523    21150872.9854   21150879.9344
        -0.000          -0.000
 -10623970.273 9  -8241776.38346  23431634.843    23431633.8374   23431643.4244
        -0.000          -0.000
  -8506481.435 9  -6615404.55547  21916192.638    21916192.8664   21916199.0574
        -0.000          -0.000
 -18677110.457 9 -14242510.26948  21443383.330    21443383.0554   21443390.4584
        -0.000          -0.000
 99  3 19  2 33  0.0000000  0  7 21 30  6 17 22 26 23                0.000000071
  -6100738.469 9  -3944986.88045  24603053.913    24603053.3224   24603067.3484
        -0.000          -0.000
  15680725.833 9  12358444.27446  23859923.484    23859923.9784   23859933.9594
        -0.000          -0.000
 -12017739.870 9  -9173335.48549  20378085.279    20378085.2454   20378091.0164
        -0.000          -0.000
 -20279251.272 9 -15776726.01848  21145978.015    21145977.4454   21145984.3524
        -0.000          -0.000
 -10642296.781 9  -8256056.71946  23428147.730    23428146.6814   23428155.6834
        -0.000          -0.000
  -8536254.651 9  -6638604.37447  21910526.928    21910527.1384   21910533.3874
        -0.000          -0.000
 -18732982.630 9 -14286046.92848  21432751.258    21432750.8864   21432758.3264
        -0.000          -0.000
 99  3 19  2 33 30.0000000  0  7 21 30  6 17 22 26 23                0.000000073
  -6191623.550 9  -4015806.02645  24585758.349    24585758.1954   24585771.8694
        -0.000          -0.000
  15782537.105 9  12437777.65246  23879297.807    23879298.0864   23879307.8654
        -0.000          -0.000
 -11991622.148 9  -9152984.00349  20383055.326    20383055.3244   20383061.0354
        -0.000          -0.000
 -20304804.345 9 -15796637.45948  21141115.374    21141114.8314   21141121.6454
        -0.000          -0.000
 -10660098.467 9  -8269928.09446  23424760.362    23424759.1974   23424767.8194
        -0.000          -0.000
  -8565492.293 9  -6661386.88947  21904963.060    21904963.3094   21904969.5134
        -0.000          -0.000
 -18788446.702 9 -14329265.60048  21422196.722    21422196.3724   21422203.7014
        -0.000          -0.000
 99  3 19  2 34  0.0000000  0  7 21 30  6 17 22 26 23                0.000000078
  -6282345.043 9  -4086497.70045  24568494.083    24568493.9964   24568507.4624
        -0.000          -0.000
  15884374.363 9  12517131.29846  23898677.264    23898677.3604   23898686.8344
        -0.000          -0.000
 -11965036.694 9  -9132268.05849  20388114.395    20388114.3524   20388120.0854
        -0.000          -0.000
 -20330176.236 9 -15816407.70948  21136287.189    21136286.6634   21136293.3984
        -0.000          -0.000
 -10677373.517 9  -8283389.10546  23421472.721    23421471.7134   23421480.1024
        -0.000          -0.000
  -8594200.240 9  -6683756.65947  21899500.161    21899500.4024   21899506.5204
        -0.000          -0.000
 -18843505.948 9 -14372168.81248  21411719.338    21411719.0054   21411726.1934
        -0.000          -0.000
 99  3 19  2 34 30.0000000  0  7 21 30  6 17 22 26 23                0.000000072
  -6372898.391 8  -4157058.38845  24551262.034    24551261.9664   24551275.0274
        -0.000          -0.000
  15986208.922 9  12596482.84746  23918055.836    23918055.8054   23918065.3944
        -0.000          -0.000
 -11937987.365 9  -9111190.64849  20393261.660    20393261.6394   20393267.4734
        -0.000          -0.000
 -20355385.117 9 -15836050.93848  21131489.941    21131489.4844   21131496.2174
        -0.000          -0.000
 -10694144.386 9  -8296457.26946  23418281.350    23418280.3524   23418288.3884
        -0.000          -0.000
  -8622389.301 9  -6705722.09947  21894135.919    21894136.1354   21894142.3024
        -0.000          -0.000
 -18898167.929 9 -14414762.47748  21401317.497    21401317.1474   21401324.2764
        -0.000          -0.000
 99  3 19  2 35  0.0000000  0  7 21 30  6 17 22 26 23                0.000000046
  -6463265.360 9  -4227473.86545  24534065.272    24534065.3104   24534078.3364
        -0.000          -0.000
  16088048.982 9  12675838.68446  23937435.032    23937435.2384   23937444.8014
        -0.000          -0.000
 -11910453.740 9  -9089735.87249  20398501.059    20398501.0324   20398506.9514
        -0.000          -0.000
 -20380418.900 9 -15855557.73448  21126726.210    21126725.7424   21126732.4034
        -0.000          -0.000
 -10710407.748 9  -8309129.93546  23415186.562    23415185.3954   23415193.4634
        -0.000          -0.000
  -8650055.943 9  -6727280.44648  21888870.979    21888871.2904   21888877.4944
        -0.000          -0.000
 -18952403.913 9 -14457024.18748  21390996.744    21390996.3914   21391003.4124
        -0.000          -0.000
 99  3 19  2 35 30.0000000  0  7 21 30  6 17 22 26 23                0.000000020
  -6553421.944 9  -4297725.41245  24516909.242    24516909.0874   24516921.7224
        -0.000          -0.000
  16189914.568 9  12755214.40746  23956819.517    23956819.7394   23956829.1314
        -0.000          -0.000
 -11882412.159 9  -9067885.27749  20403837.007    20403837.0284   20403842.9474
        -0.000          -0.000
 -20405261.946 9 -15874915.89748  21121998.827    21121998.3154   21122004.8844
        -0.000          -0.000
 -10726138.160 9  -8321387.33946  23412192.972    23412191.8374   23412200.0614
        -0.000          -0.000
  -8677172.314 9  -6748409.99848  21883710.877    21883711.1424   21883717.3904
        -0.000          -0.000
 -19006197.609 9 -14498941.26948  21380760.168    21380759.7384   21380766.7034
        -0.000          -0.000
 99  3 19  2 36  0.0000000  0  7 21 30  6 17 22 26 23                0.000000005
  -6643385.132 9  -4367826.28146  24499789.901    24499789.7184   24499802.0774
        -0.000          -0.000
  16291790.323 9  12834598.05246  23976205.775    23976206.0284   23976215.3184
        -0.000          -0.000
 -11853863.898 9  -9045639.86749  20409269.525    20409269.5574   20409275.3624
        -0.000          -0.000
 -20429938.131 9 -15894144.03948  21117303.039    21117302.5264   21117309.1964
        -0.000          -0.000
 -10741326.059 9  -8333222.00246  23409302.425    23409301.4684   23409309.9054
        -0.000          -0.000
  -8703720.864 9  -6769097.11147  21878658.780    21878659.0794   21878665.2974
        -0.000          -0.000
 -19059562.945 9 -14540524.56648  21370604.801    21370604.4994   21370611.4564
        -0.000          -0.000
 99  3 19  2 36 30.0000000  0  7 21 30  6 17 22 26 23                0.000000004
  -6733170.588 9  -4437788.64046  24482704.232    24482703.8974   24482716.2544
        -0.000          -0.000
  16393668.766 9  12913983.79246  23995592.589    23995592.9174   23995602.1464
        -0.000          -0.000
 -11824800.942 9  -9022993.39749  20414800.000    20414799.9984   20414805.7584
        -0.000          -0.000
 -20454460.021 9 -15913251.95448  21112636.538    21112636.0564   21112642.8344
        -0.000          -0.000
 -10755968.181 9  -8344631.38946  23406515.615    23406514.9274   23406523.6224
        -0.000          -0.000
  -8729691.583 9  -6789333.95747  21873716.560    21873716.8214   21873723.1424
        -0.000          -0.000
 -19112503.297 9 -14581776.70448  21360530.370    21360530.0734   21360537.1504
        -0.000          -0.000
 99  3 19  2 37  0.0000000  0  7 21 30  6 17 22 26 23                0.000000011
  -6822818.541 9  -4507643.88046  24465644.666    24465644.2374   24465656.7194
        -0.000          -0.000
  16495531.900 9  12993357.61446  24014976.580    24014976.8474   24014986.2944
        -0.000          -0.000
 -11795252.250 9  -8999968.43649  20420422.958    20420422.9364   20420428.6554
        -0.000          -0.000
 -20478854.612 9 -15932260.66548  21107994.285    21107993.7804   21108000.6154
        -0.000          -0.000
 -10770085.121 9  -8355631.54146  23403828.921    23403828.3274   23403837.1814
        -0.000          -0.000
  -8755092.529 9  -6809126.85647  21868882.893    21868883.1474   21868889.4994
        -0.000          -0.000
 -19165050.698 9 -14622722.65048  21350530.877    21350530.5254   21350537.7304
        -0.000          -0.000
 99  3 19  2 37 30.0000000  0  7 21 30  6 17 22 26 23                0.000000028
  -6912361.284 9  -4577417.13246  24448605.017    24448604.4544   24448616.8454
        -0.000          -0.000
  16597356.650 9  13072701.52146  24034353.351    24034353.5834   24034363.1844
        -0.000          -0.000
 -11765245.084 9  -8976586.21749  20426133.148    20426133.1524   20426138.9074
        -0.000          -0.000
 -20503139.255 9 -15951183.71848  21103372.821    21103372.4004   21103379.3024
        -0.000          -0.000
 -10783680.417 9  -8366225.22646  23401241.559    23401241.0384   23401249.8714
        -0.000          -0.000
  -8779940.864 9  -6828489.13947  21864154.329    21864154.6004   21864160.9954
        -0.000          -0.000
 -19217238.429 9 -14663388.33748  21340599.901    21340599.5004   21340606.6544
        -0.000          -0.000
 99  3 19  2 38  0.0000000  0  7 21 30  6 17 22 26 23                0.000000046
  -7001780.408 9  -4647094.10046  24431588.739    24431588.3544   24431600.3644
        -0.000          -0.000
  16699152.389 9  13152022.82646  24053724.618    24053724.8434   24053734.5584
        -0.000          -0.000
 -11734769.502 9  -8952839.00249  20431932.511    20431932.5074   20431938.2414
        -0.000          -0.000
 -20527293.187 9 -15970004.91648  21098776.483    21098776.1114   21098782.8684
        -0.000          -0.000
 -10796756.159 9  -8376414.07846  23398753.424    23398752.9604   23398761.5514
        -0.000          -0.000
  -8804238.057 9  -6847421.94547  21859530.808    21859531.0524   21859537.2654
        -0.000          -0.000
 -19269045.300 9 -14703757.24948  21330741.328    21330740.9154   21330747.9684
        -0.000          -0.000
 99  3 19  2 38 30.0000000  0  7 21 30  6 17 22 26 23                0.000000046
  -7091066.349 9  -4716667.26945  24414597.888    24414597.5074   24414609.1274
        -0.000          -0.000
  16800913.729 9  13231317.32646  24073089.556    24073089.6064   24073099.2784
        -0.000          -0.000
 -11703826.609 9  -8928727.64749  20437820.738    20437820.7214   20437826.4894
        -0.000          -0.000
 -20551314.264 9 -15988722.58449  21094205.653    21094205.1564   21094211.7544
        -0.000          -0.000
 -10809345.514 9  -8386223.90646  23396357.692    23396357.1894   23396366.0034
        -0.000          -0.000
  -8828000.729 9  -6865938.22847  21855008.924    21855009.2024   21855015.2194
        -0.000          -0.000
 -19320472.424 9 -14743830.25148  21320954.990    21320954.5904   21320961.5494
        -0.000          -0.000
 99  3 19  2 39  0.0000000  0  7 21 30  6 17 22 26 23                0.000000049
  -7180167.610 9  -4786096.53945  24397642.369    24397641.8054   24397653.1434
        -0.000          -0.000
  16902676.845 9  13310613.20546  24092454.689    24092454.6714   24092464.2234
        -0.000          -0.000
 -11672383.053 9  -8904226.17549  20443804.159    20443804.1994   20443810.0094
        -0.000          -0.000
 -20575154.670 9 -16007299.47948  21089668.857    21089668.4264   21089675.0564
        -0.000          -0.000
 -10821409.406 8  -8395624.28946  23394061.438    23394061.1694   23394070.2544
        -0.000          -0.000
  -8851192.637 9  -6884009.79247  21850595.616    21850595.8774   21850601.7824
        -0.000          -0.000
 -19371475.089 9 -14783572.51048  21311249.356    21311248.9904   21311255.9634
        -0.000          -0.000
 99  3 19  2 39 30.0000000  0  7 21 30  6 17 22 26 23                0.000000036
  -7269094.476 9  -4855389.90245  24380719.715    24380719.1614   24380730.3044
        -0.000          -0.000
  17004420.065 8  13389893.56546  24111815.461    24111815.7884   24111825.0844
        -0.000          -0.000
 -11640463.332 9  -8879353.65749  20449878.441    20449878.4434   20449884.1644
        -0.000          -0.000
 -20598822.523 9 -16025741.89748  21085165.013    21085164.5654   21085171.1824
        -0.000          -0.000
 -10832976.525 8  -8404637.58046  23391859.779    23391859.5844   23391869.1044
        -0.000          -0.000
  -8873843.389 9  -6901659.67147  21846285.104    21846285.3924   21846291.4924
        -0.000          -0.000
 -19422069.556 9 -14822996.70248  21301621.234    21301620.9954   21301628.1444
        -0.000          -0.000
 99  3 19  2 40  0.0000000  0  7 21 30  6 17 22 26 23                0.000000026
  -7357802.099 9  -4924512.41745  24363838.851    24363838.2464   24363849.4344
        -0.000          -0.000
  17106162.269 9  13469173.13845  24131176.097    24131176.5244   24131185.7104
        -0.000          -0.000
 -11608025.689 9  -8854077.55149  20456051.240    20456051.2204   20456056.8294
        -0.000          -0.000
 -20622296.291 9 -16044033.10049  21080698.012    21080697.5774   21080704.2454
        -0.000          -0.000
 -10844024.931 8  -8413246.63946  23389756.605    23389756.5694   23389766.8174
        -0.000          -0.000
  -8895901.294 9  -6918847.57847  21842087.571    21842087.8474   21842093.8944
        -0.000          -0.000
 -19472214.182 9 -14862070.35848  21292079.085    21292078.8104   21292085.9704
        -0.000          -0.000
 99  3 19  2 40 30.0000000  0  7 21 30  6 17 22 26 23                0.000000022
  -7446318.896 9  -4993486.25345  24346994.797    24346993.9664   24347005.3124
        -0.000          -0.000
  17207861.708 8  13548419.39445  24150528.578    24150529.1274   24150538.2044
        -0.000          -0.000
 -11575094.471 9  -8828416.84549  20462317.867    20462317.8524   20462323.4114
        -0.000          -0.000
 -20645606.460 9 -16062196.82349  21076262.302    21076261.8284   21076268.4434
        -0.000          -0.000
 -10854561.154 9  -8421456.61946  23387751.701    23387751.4874   23387761.7554
        -0.000          -0.000
  -8917378.555 9  -6935583.05147  21838000.491    21838000.7964   21838006.8414
        -0.000          -0.000
 -19521950.182 9 -14900825.60648  21282614.708    21282614.3834   21282621.4004
        -0.000          -0.000
 99  3 19  2 41  0.0000000  0  7 21 30  6 17 22 26 23                0.000000023
  -7534669.518 9  -5062330.60546  24330182.516    24330181.4664   24330192.9624
        -0.000          -0.000
  17309496.756 8  13627615.46645  24169868.394    24169869.1194   24169878.7564
        -0.000          -0.000
 -11541682.632 9  -8802381.63049  20468676.027    20468675.9804   20468681.5044
        -0.000          -0.000
 -20668762.456 9 -16080240.40948  21071855.819    21071855.3584   21071861.9274
        -0.000          -0.000
 -10864581.293 9  -8429264.48046  23385845.446    23385844.9964   23385854.4974
        -0.000          -0.000
  -8938276.074 9  -6951866.75947  21834023.858    21834024.1404   21834030.1084
        -0.000          -0.000
 -19571292.647 9 -14939274.20548  21273225.230    21273224.8634   21273231.7954
        -0.000          -0.000
 99  3 19  2 41 30.0000000  0  7 21 30  6 17 22 26 23                0.000000020
  -7622864.310 9  -5131053.56546  24313399.330    24313398.4954   24313410.1974
        -0.000          -0.000
  17411066.823 8  13706760.91145  24189195.886    24189196.6884   24189207.0704
        -0.000          -0.000
 -11507782.674 9  -8775966.06649  20475126.980    20475126.9054   20475132.4094
        -0.000          -0.000
 -20691771.177 9 -16098169.22748  21067477.382    21067476.8904   21067483.4434
        -0.000          -0.000
 -10874091.211 9  -8436674.74846  23384036.230    23384035.7294   23384044.2644
        -0.000          -0.000
  -8958586.103 9  -6967692.68647  21830159.070    21830159.2754   21830165.1454
        -0.000          -0.000
 -19620229.580 9 -14977406.79648  21263912.855    21263912.4704   21263919.3114
        -0.000          -0.000
 99  3 19  2 42  0.0000000  0  7 21 30  6 17 22 26 23                0.000000018
  -7710895.351 9  -5199648.91646  24296647.180    24296646.5224   24296658.4314
        -0.000          -0.000
  17512574.389 8  13785857.64345  24208511.635    24208512.7774   24208523.3554
        -0.000          -0.000
 -11473386.087 9  -8749163.53949  20481672.301    20481672.2144   20481677.8694
        -0.000          -0.000
 -20714641.049 9 -16115989.86348  21063125.247    21063124.7234   21063131.4014
        -0.000          -0.000
 -10883086.847 9  -8443684.25446  23382324.572    23382323.9944   23382331.9664
        -0.000          -0.000
  -8978302.047 9  -6983055.69247  21826407.292    21826407.4724   21826413.2524
        -0.000          -0.000
 -19668761.023 9 -15015223.41949  21254677.652    21254677.2834   21254683.9954
        -0.000          -0.000
 99  3 19  2 42 30.0000000  0  7 21 30  6 17 22 26 23                0.000000020
  -7798759.293 9  -5268114.06246  24279926.947    24279926.3974   24279938.3294
        -0.000          -0.000
  17614040.419 8  13864922.00045  24227819.690    24227819.9884   24227831.9994
        -0.000          -0.000
 -11438500.153 9  -8721979.69549  20488310.681    20488310.6584   20488316.5184
        -0.000          -0.000
 -20737360.885 9 -16133693.59449  21058801.746    21058801.3054   21058807.9014
        -0.000          -0.000
 -10891571.846 9  -8450295.86646  23380709.700    23380709.2824   23380717.3484
        -0.000          -0.000
  -8997437.248 9  -6997966.17947  21822765.927    21822766.0644   21822771.9114
        -0.000          -0.000
 -19716894.646 9 -15052730.05748  21245518.148    21245517.7244   21245524.3324
        -0.000          -0.000
 99  3 19  2 43  0.0000000  0  7 21 30  6 17 22 26 23                0.000000012
  -7886462.103 9  -5336453.65646  24263237.613    24263236.9514   24263248.8304
        -0.000          -0.000
  17715483.326 8  13943968.34045  24247123.950    24247124.7754   24247135.8914
        -0.000          -0.000
 -11403124.620 9  -8694414.35049  20495042.488    20495042.4974   20495048.3064
        -0.000          -0.000
 -20759927.350 9 -16151277.79849  21054507.746    21054507.1284   21054513.6074
        -0.000          -0.000
 -10899562.000 8  -8456521.92046  23379188.914    23379188.6364   23379197.0624
        -0.000          -0.000
  -9015997.568 9  -7012428.70247  21819233.806    21819234.0394   21819239.9614
        -0.000          -0.000
 -19764609.621 9 -15089910.50048  21236438.009    21236437.6504   21236444.2944
        -0.000          -0.000
 99  3 19  2 43 30.0000000  0  7 21 30  6 17 22 26 23                0.000000008
  -7973961.253 9  -5404634.56346  24246586.809    24246586.0794   24246597.8464
        -0.000          -0.000
  17816928.424 9  14023016.38145  24266428.376    24266429.4104   24266440.1114
        -0.000          -0.000
 -11367240.715 9  -8666452.86649  20501870.957    20501870.9504   20501876.7374
        -0.000          -0.000
 -20782316.352 9 -16168723.73948  21050247.144    21050246.5684   21050253.0924
        -0.000          -0.000
 -10907043.045 9  -8462351.22746  23377764.722    23377764.6214   23377773.7064
        -0.000          -0.000
  -9033966.208 9  -7026430.20747  21815814.338    21815814.5764   21815820.6314
        -0.000          -0.000
 -19811885.194 9 -15126748.53748  21227441.782    21227441.4384   21227447.9134
        -0.000          -0.000
 99  3 19  2 44  0.0000000  0  7 21 30  6 17 22 26 23                0.000000004
  -8061253.837 8  -5472654.47646  24229975.093    24229974.4594   24229985.8934
        -0.000          -0.000
  17918348.438 9  14102044.93745  24285728.200    24285729.2694   24285739.6374
        -0.000          -0.000
 -11330851.825 9  -8638097.88949  20508795.532    20508795.5764   20508801.2484
        -0.000          -0.000
 -20804538.218 9 -16186039.43349  21046018.502    21046017.9554   21046024.3154
        -0.000          -0.000
 -10914018.411 9  -8467786.53046  23376437.181    23376436.9704   23376446.4304
        -0.000          -0.000
  -9051369.780 9  -7039991.38447  21812502.434    21812502.7194   21812508.8904
        -0.000          -0.000
 -19858759.133 9 -15163273.60948  21218521.973    21218521.5434   21218527.9264
        -0.000          -0.000
 99  3 19  2 44 30.0000000  0  7 21 30  6 17 22 26 23               -0.000000000
  -8148359.277 8  -5540528.57045  24213399.038    24213398.4744   24213409.7154
        -0.000          -0.000
  18019733.744 8  14181046.43146  24305021.151    24305022.1934   24305032.8874
        -0.000          -0.000
 -11293967.300 9  -8609356.69349  20515814.542    20515814.5674   20515820.1624
        -0.000          -0.000
 -20826587.273 9 -16203220.47549  21041822.858    21041822.2304   21041828.3534
        -0.000          -0.000
 -10920478.695 9  -8472820.46646  23375207.850    23375207.4914   23375216.9154
        -0.000          -0.000
  -9068215.845 9  -7053118.11947  21809296.664    21809296.8894   21809303.2534
        -0.000          -0.000
 -19905233.393 9 -15199487.24148  21209678.085    21209677.6864   21209684.1144
        -0.000          -0.000
